<?xml version="1.0" encoding="UTF-8" standalone="no" ?>
<gpx xmlns="http://www.topografix.com/GPX/1/1" xmlns:xsi="http://www.w3.org/2001/XMLSchema-instance" xsi:schemaLocation="http://www.topografix.com/GPX/1/1 http://www.topografix.com/GPX/1/1/gpx.xsd" version="1.1" creator="VisuGPX - https://www.visugpx.com">
  <metadata>
    <name>Poissy Charmilles - Foret de St Germain</name>
  </metadata>
  <trk>
    <name><![CDATA[Poissy Charmilles - Foret de St Germain_1]]></name>
    <trkseg>
      <trkpt lat="48.92354" lon="2.05407">
        <ele>58.4</ele>
        <time>2022-05-24T07:59:02Z</time>
      </trkpt>
      <trkpt lat="48.92359" lon="2.05403">
        <ele>57.4</ele>
        <time>2022-05-24T07:59:07Z</time>
      </trkpt>
      <trkpt lat="48.92362" lon="2.05398">
        <ele>56.6</ele>
        <time>2022-05-24T07:59:12Z</time>
      </trkpt>
      <trkpt lat="48.92365" lon="2.05392">
        <ele>56.6</ele>
        <time>2022-05-24T07:59:16Z</time>
      </trkpt>
      <trkpt lat="48.92371" lon="2.05399">
        <ele>54.2</ele>
        <time>2022-05-24T07:59:21Z</time>
      </trkpt>
      <trkpt lat="48.92373" lon="2.05406">
        <ele>54</ele>
        <time>2022-05-24T07:59:25Z</time>
      </trkpt>
      <trkpt lat="48.92373" lon="2.05413">
        <ele>52.6</ele>
        <time>2022-05-24T07:59:30Z</time>
      </trkpt>
      <trkpt lat="48.92371" lon="2.0542">
        <ele>52.6</ele>
        <time>2022-05-24T07:59:34Z</time>
      </trkpt>
      <trkpt lat="48.92368" lon="2.05427">
        <ele>52.1</ele>
        <time>2022-05-24T07:59:39Z</time>
      </trkpt>
      <trkpt lat="48.92364" lon="2.05432">
        <ele>51.9</ele>
        <time>2022-05-24T07:59:43Z</time>
      </trkpt>
      <trkpt lat="48.92361" lon="2.05438">
        <ele>51.6</ele>
        <time>2022-05-24T07:59:47Z</time>
      </trkpt>
      <trkpt lat="48.9236" lon="2.05445">
        <ele>53</ele>
        <time>2022-05-24T07:59:51Z</time>
      </trkpt>
      <trkpt lat="48.92363" lon="2.05452">
        <ele>54.1</ele>
        <time>2022-05-24T07:59:56Z</time>
      </trkpt>
      <trkpt lat="48.92366" lon="2.05458">
        <ele>53.6</ele>
        <time>2022-05-24T08:00:00Z</time>
      </trkpt>
      <trkpt lat="48.92364" lon="2.05466">
        <ele>53.2</ele>
        <time>2022-05-24T08:00:04Z</time>
      </trkpt>
      <trkpt lat="48.92363" lon="2.05474">
        <ele>52.1</ele>
        <time>2022-05-24T08:00:09Z</time>
      </trkpt>
      <trkpt lat="48.92362" lon="2.05481">
        <ele>52.5</ele>
        <time>2022-05-24T08:00:12Z</time>
      </trkpt>
      <trkpt lat="48.92361" lon="2.05487">
        <ele>51</ele>
        <time>2022-05-24T08:00:15Z</time>
      </trkpt>
      <trkpt lat="48.92359" lon="2.05494">
        <ele>50.6</ele>
        <time>2022-05-24T08:00:18Z</time>
      </trkpt>
      <trkpt lat="48.92357" lon="2.05502">
        <ele>52.2</ele>
        <time>2022-05-24T08:00:23Z</time>
      </trkpt>
      <trkpt lat="48.92354" lon="2.05509">
        <ele>48.5</ele>
        <time>2022-05-24T08:00:27Z</time>
      </trkpt>
      <trkpt lat="48.92352" lon="2.05518">
        <ele>48.6</ele>
        <time>2022-05-24T08:00:32Z</time>
      </trkpt>
      <trkpt lat="48.92351" lon="2.05525">
        <ele>48.8</ele>
        <time>2022-05-24T08:00:37Z</time>
      </trkpt>
      <trkpt lat="48.9235" lon="2.05532">
        <ele>48.1</ele>
        <time>2022-05-24T08:00:41Z</time>
      </trkpt>
      <trkpt lat="48.92349" lon="2.0554">
        <ele>47.2</ele>
        <time>2022-05-24T08:00:45Z</time>
      </trkpt>
      <trkpt lat="48.92348" lon="2.05547">
        <ele>49.3</ele>
        <time>2022-05-24T08:00:49Z</time>
      </trkpt>
      <trkpt lat="48.92347" lon="2.05555">
        <ele>48.7</ele>
        <time>2022-05-24T08:00:53Z</time>
      </trkpt>
      <trkpt lat="48.92347" lon="2.05564">
        <ele>47.4</ele>
        <time>2022-05-24T08:00:57Z</time>
      </trkpt>
      <trkpt lat="48.92346" lon="2.05573">
        <ele>49.5</ele>
        <time>2022-05-24T08:01:02Z</time>
      </trkpt>
      <trkpt lat="48.92346" lon="2.05581">
        <ele>51.2</ele>
        <time>2022-05-24T08:01:05Z</time>
      </trkpt>
      <trkpt lat="48.92345" lon="2.05588">
        <ele>53</ele>
        <time>2022-05-24T08:01:09Z</time>
      </trkpt>
      <trkpt lat="48.92345" lon="2.05596">
        <ele>52.5</ele>
        <time>2022-05-24T08:01:13Z</time>
      </trkpt>
      <trkpt lat="48.92343" lon="2.05603">
        <ele>51.5</ele>
        <time>2022-05-24T08:01:17Z</time>
      </trkpt>
      <trkpt lat="48.92339" lon="2.0561">
        <ele>50.8</ele>
        <time>2022-05-24T08:01:20Z</time>
      </trkpt>
      <trkpt lat="48.92336" lon="2.05616">
        <ele>50.6</ele>
        <time>2022-05-24T08:01:24Z</time>
      </trkpt>
      <trkpt lat="48.92334" lon="2.05623">
        <ele>54.1</ele>
        <time>2022-05-24T08:01:27Z</time>
      </trkpt>
      <trkpt lat="48.92333" lon="2.05631">
        <ele>55.1</ele>
        <time>2022-05-24T08:01:30Z</time>
      </trkpt>
      <trkpt lat="48.92332" lon="2.05639">
        <ele>53.9</ele>
        <time>2022-05-24T08:01:34Z</time>
      </trkpt>
      <trkpt lat="48.9233" lon="2.05647">
        <ele>54.1</ele>
        <time>2022-05-24T08:01:38Z</time>
      </trkpt>
      <trkpt lat="48.92328" lon="2.05656">
        <ele>51.9</ele>
        <time>2022-05-24T08:01:42Z</time>
      </trkpt>
      <trkpt lat="48.92326" lon="2.05663">
        <ele>52.6</ele>
        <time>2022-05-24T08:01:45Z</time>
      </trkpt>
      <trkpt lat="48.92324" lon="2.0567">
        <ele>51.1</ele>
        <time>2022-05-24T08:01:49Z</time>
      </trkpt>
      <trkpt lat="48.92322" lon="2.05678">
        <ele>52.4</ele>
        <time>2022-05-24T08:01:53Z</time>
      </trkpt>
      <trkpt lat="48.92321" lon="2.05686">
        <ele>53</ele>
        <time>2022-05-24T08:01:57Z</time>
      </trkpt>
      <trkpt lat="48.9232" lon="2.05695">
        <ele>54.8</ele>
        <time>2022-05-24T08:02:01Z</time>
      </trkpt>
      <trkpt lat="48.92319" lon="2.05703">
        <ele>55.8</ele>
        <time>2022-05-24T08:02:04Z</time>
      </trkpt>
      <trkpt lat="48.92316" lon="2.0571">
        <ele>56.7</ele>
        <time>2022-05-24T08:02:08Z</time>
      </trkpt>
      <trkpt lat="48.92314" lon="2.05716">
        <ele>56.6</ele>
        <time>2022-05-24T08:02:11Z</time>
      </trkpt>
      <trkpt lat="48.92311" lon="2.05725">
        <ele>58.8</ele>
        <time>2022-05-24T08:02:15Z</time>
      </trkpt>
      <trkpt lat="48.92309" lon="2.05732">
        <ele>56.6</ele>
        <time>2022-05-24T08:02:19Z</time>
      </trkpt>
      <trkpt lat="48.92307" lon="2.05739">
        <ele>56.6</ele>
        <time>2022-05-24T08:02:22Z</time>
      </trkpt>
      <trkpt lat="48.92306" lon="2.05747">
        <ele>57</ele>
        <time>2022-05-24T08:02:25Z</time>
      </trkpt>
      <trkpt lat="48.92305" lon="2.05755">
        <ele>57.7</ele>
        <time>2022-05-24T08:02:29Z</time>
      </trkpt>
      <trkpt lat="48.92304" lon="2.05762">
        <ele>61.3</ele>
        <time>2022-05-24T08:02:32Z</time>
      </trkpt>
      <trkpt lat="48.92302" lon="2.05771">
        <ele>58.7</ele>
        <time>2022-05-24T08:02:36Z</time>
      </trkpt>
      <trkpt lat="48.92301" lon="2.05778">
        <ele>57.5</ele>
        <time>2022-05-24T08:02:39Z</time>
      </trkpt>
      <trkpt lat="48.92299" lon="2.05784">
        <ele>57.8</ele>
        <time>2022-05-24T08:02:42Z</time>
      </trkpt>
      <trkpt lat="48.92297" lon="2.05791">
        <ele>55.8</ele>
        <time>2022-05-24T08:02:45Z</time>
      </trkpt>
      <trkpt lat="48.92296" lon="2.05799">
        <ele>56.1</ele>
        <time>2022-05-24T08:02:49Z</time>
      </trkpt>
      <trkpt lat="48.92294" lon="2.05807">
        <ele>56</ele>
        <time>2022-05-24T08:02:53Z</time>
      </trkpt>
      <trkpt lat="48.92294" lon="2.05816">
        <ele>55</ele>
        <time>2022-05-24T08:02:56Z</time>
      </trkpt>
      <trkpt lat="48.92293" lon="2.05825">
        <ele>57</ele>
        <time>2022-05-24T08:03:01Z</time>
      </trkpt>
      <trkpt lat="48.92293" lon="2.05832">
        <ele>56.3</ele>
        <time>2022-05-24T08:03:04Z</time>
      </trkpt>
      <trkpt lat="48.92293" lon="2.0584">
        <ele>56.8</ele>
        <time>2022-05-24T08:03:08Z</time>
      </trkpt>
      <trkpt lat="48.92293" lon="2.05849">
        <ele>56</ele>
        <time>2022-05-24T08:03:12Z</time>
      </trkpt>
      <trkpt lat="48.92294" lon="2.05857">
        <ele>56.3</ele>
        <time>2022-05-24T08:03:16Z</time>
      </trkpt>
      <trkpt lat="48.92293" lon="2.05864">
        <ele>54.8</ele>
        <time>2022-05-24T08:03:20Z</time>
      </trkpt>
      <trkpt lat="48.92292" lon="2.05872">
        <ele>53</ele>
        <time>2022-05-24T08:03:23Z</time>
      </trkpt>
      <trkpt lat="48.92291" lon="2.05881">
        <ele>52.4</ele>
        <time>2022-05-24T08:03:28Z</time>
      </trkpt>
      <trkpt lat="48.92291" lon="2.05888">
        <ele>50.7</ele>
        <time>2022-05-24T08:03:31Z</time>
      </trkpt>
      <trkpt lat="48.9229" lon="2.05895">
        <ele>52.1</ele>
        <time>2022-05-24T08:03:35Z</time>
      </trkpt>
      <trkpt lat="48.92288" lon="2.05902">
        <ele>53</ele>
        <time>2022-05-24T08:03:38Z</time>
      </trkpt>
      <trkpt lat="48.92287" lon="2.0591">
        <ele>55</ele>
        <time>2022-05-24T08:03:42Z</time>
      </trkpt>
      <trkpt lat="48.92286" lon="2.05917">
        <ele>52.9</ele>
        <time>2022-05-24T08:03:46Z</time>
      </trkpt>
      <trkpt lat="48.92286" lon="2.05925">
        <ele>52.7</ele>
        <time>2022-05-24T08:03:50Z</time>
      </trkpt>
      <trkpt lat="48.92285" lon="2.05933">
        <ele>52.5</ele>
        <time>2022-05-24T08:03:53Z</time>
      </trkpt>
      <trkpt lat="48.92285" lon="2.0594">
        <ele>52.4</ele>
        <time>2022-05-24T08:03:57Z</time>
      </trkpt>
      <trkpt lat="48.92284" lon="2.05947">
        <ele>51.9</ele>
        <time>2022-05-24T08:04:00Z</time>
      </trkpt>
      <trkpt lat="48.92284" lon="2.05956">
        <ele>51.4</ele>
        <time>2022-05-24T08:04:05Z</time>
      </trkpt>
      <trkpt lat="48.92284" lon="2.05963">
        <ele>50.1</ele>
        <time>2022-05-24T08:04:08Z</time>
      </trkpt>
      <trkpt lat="48.92283" lon="2.05971">
        <ele>48.2</ele>
        <time>2022-05-24T08:04:12Z</time>
      </trkpt>
      <trkpt lat="48.92282" lon="2.05979">
        <ele>49.3</ele>
        <time>2022-05-24T08:04:16Z</time>
      </trkpt>
      <trkpt lat="48.92281" lon="2.05986">
        <ele>49.5</ele>
        <time>2022-05-24T08:04:20Z</time>
      </trkpt>
      <trkpt lat="48.9228" lon="2.05994">
        <ele>50.6</ele>
        <time>2022-05-24T08:04:23Z</time>
      </trkpt>
      <trkpt lat="48.92279" lon="2.06003">
        <ele>50.3</ele>
        <time>2022-05-24T08:04:28Z</time>
      </trkpt>
      <trkpt lat="48.92279" lon="2.06011">
        <ele>49.9</ele>
        <time>2022-05-24T08:04:32Z</time>
      </trkpt>
      <trkpt lat="48.9228" lon="2.0602">
        <ele>49.3</ele>
        <time>2022-05-24T08:04:36Z</time>
      </trkpt>
      <trkpt lat="48.92279" lon="2.06028">
        <ele>46.2</ele>
        <time>2022-05-24T08:04:40Z</time>
      </trkpt>
      <trkpt lat="48.92279" lon="2.06037">
        <ele>45.3</ele>
        <time>2022-05-24T08:04:44Z</time>
      </trkpt>
      <trkpt lat="48.92278" lon="2.06045">
        <ele>48</ele>
        <time>2022-05-24T08:04:47Z</time>
      </trkpt>
      <trkpt lat="48.92278" lon="2.06053">
        <ele>50.8</ele>
        <time>2022-05-24T08:04:51Z</time>
      </trkpt>
      <trkpt lat="48.92278" lon="2.0606">
        <ele>52</ele>
        <time>2022-05-24T08:04:54Z</time>
      </trkpt>
      <trkpt lat="48.92278" lon="2.06069">
        <ele>52.6</ele>
        <time>2022-05-24T08:04:58Z</time>
      </trkpt>
      <trkpt lat="48.92277" lon="2.06076">
        <ele>53.9</ele>
        <time>2022-05-24T08:05:02Z</time>
      </trkpt>
      <trkpt lat="48.92276" lon="2.06084">
        <ele>53.4</ele>
        <time>2022-05-24T08:05:05Z</time>
      </trkpt>
      <trkpt lat="48.92276" lon="2.06091">
        <ele>55</ele>
        <time>2022-05-24T08:05:09Z</time>
      </trkpt>
      <trkpt lat="48.92276" lon="2.06098">
        <ele>56.3</ele>
        <time>2022-05-24T08:05:12Z</time>
      </trkpt>
      <trkpt lat="48.92276" lon="2.06107">
        <ele>55</ele>
        <time>2022-05-24T08:05:16Z</time>
      </trkpt>
      <trkpt lat="48.92276" lon="2.06115">
        <ele>53.3</ele>
        <time>2022-05-24T08:05:20Z</time>
      </trkpt>
      <trkpt lat="48.92275" lon="2.06124">
        <ele>55</ele>
        <time>2022-05-24T08:05:24Z</time>
      </trkpt>
      <trkpt lat="48.92274" lon="2.06131">
        <ele>55.3</ele>
        <time>2022-05-24T08:05:27Z</time>
      </trkpt>
      <trkpt lat="48.92275" lon="2.06138">
        <ele>54.4</ele>
        <time>2022-05-24T08:05:30Z</time>
      </trkpt>
      <trkpt lat="48.92275" lon="2.06146">
        <ele>55.5</ele>
        <time>2022-05-24T08:05:34Z</time>
      </trkpt>
      <trkpt lat="48.92276" lon="2.06155">
        <ele>55.2</ele>
        <time>2022-05-24T08:05:38Z</time>
      </trkpt>
      <trkpt lat="48.92276" lon="2.06162">
        <ele>53.9</ele>
        <time>2022-05-24T08:05:41Z</time>
      </trkpt>
      <trkpt lat="48.92276" lon="2.0617">
        <ele>52.1</ele>
        <time>2022-05-24T08:05:44Z</time>
      </trkpt>
      <trkpt lat="48.92276" lon="2.06177">
        <ele>50.1</ele>
        <time>2022-05-24T08:05:48Z</time>
      </trkpt>
      <trkpt lat="48.92274" lon="2.06184">
        <ele>51.9</ele>
        <time>2022-05-24T08:05:52Z</time>
      </trkpt>
      <trkpt lat="48.92271" lon="2.06191">
        <ele>53.7</ele>
        <time>2022-05-24T08:05:56Z</time>
      </trkpt>
      <trkpt lat="48.92268" lon="2.06198">
        <ele>53</ele>
        <time>2022-05-24T08:05:59Z</time>
      </trkpt>
      <trkpt lat="48.92265" lon="2.06205">
        <ele>53.7</ele>
        <time>2022-05-24T08:06:04Z</time>
      </trkpt>
      <trkpt lat="48.92263" lon="2.06212">
        <ele>56.5</ele>
        <time>2022-05-24T08:06:07Z</time>
      </trkpt>
      <trkpt lat="48.9226" lon="2.06219">
        <ele>56.2</ele>
        <time>2022-05-24T08:06:11Z</time>
      </trkpt>
      <trkpt lat="48.92258" lon="2.06226">
        <ele>57.8</ele>
        <time>2022-05-24T08:06:15Z</time>
      </trkpt>
      <trkpt lat="48.92256" lon="2.06234">
        <ele>54.8</ele>
        <time>2022-05-24T08:06:18Z</time>
      </trkpt>
      <trkpt lat="48.92254" lon="2.0624">
        <ele>56.7</ele>
        <time>2022-05-24T08:06:22Z</time>
      </trkpt>
      <trkpt lat="48.92252" lon="2.06247">
        <ele>58.9</ele>
        <time>2022-05-24T08:06:25Z</time>
      </trkpt>
      <trkpt lat="48.92249" lon="2.06253">
        <ele>57.7</ele>
        <time>2022-05-24T08:06:29Z</time>
      </trkpt>
      <trkpt lat="48.92247" lon="2.0626">
        <ele>55.7</ele>
        <time>2022-05-24T08:06:33Z</time>
      </trkpt>
      <trkpt lat="48.92247" lon="2.06268">
        <ele>54</ele>
        <time>2022-05-24T08:06:36Z</time>
      </trkpt>
      <trkpt lat="48.92247" lon="2.06276">
        <ele>55.8</ele>
        <time>2022-05-24T08:06:41Z</time>
      </trkpt>
      <trkpt lat="48.92248" lon="2.06283">
        <ele>57.9</ele>
        <time>2022-05-24T08:06:44Z</time>
      </trkpt>
      <trkpt lat="48.92249" lon="2.06291">
        <ele>58.8</ele>
        <time>2022-05-24T08:06:47Z</time>
      </trkpt>
      <trkpt lat="48.92249" lon="2.06298">
        <ele>60.4</ele>
        <time>2022-05-24T08:06:51Z</time>
      </trkpt>
      <trkpt lat="48.92249" lon="2.06307">
        <ele>59.9</ele>
        <time>2022-05-24T08:06:55Z</time>
      </trkpt>
      <trkpt lat="48.9225" lon="2.06315">
        <ele>55.5</ele>
        <time>2022-05-24T08:06:58Z</time>
      </trkpt>
      <trkpt lat="48.92251" lon="2.06323">
        <ele>55.1</ele>
        <time>2022-05-24T08:07:02Z</time>
      </trkpt>
      <trkpt lat="48.92253" lon="2.0633">
        <ele>56.5</ele>
        <time>2022-05-24T08:07:05Z</time>
      </trkpt>
      <trkpt lat="48.92254" lon="2.06338">
        <ele>57.7</ele>
        <time>2022-05-24T08:07:09Z</time>
      </trkpt>
      <trkpt lat="48.92256" lon="2.06346">
        <ele>58.7</ele>
        <time>2022-05-24T08:07:13Z</time>
      </trkpt>
      <trkpt lat="48.92257" lon="2.06354">
        <ele>60.7</ele>
        <time>2022-05-24T08:07:17Z</time>
      </trkpt>
      <trkpt lat="48.92258" lon="2.06361">
        <ele>61.8</ele>
        <time>2022-05-24T08:07:20Z</time>
      </trkpt>
      <trkpt lat="48.92259" lon="2.06369">
        <ele>61.3</ele>
        <time>2022-05-24T08:07:24Z</time>
      </trkpt>
      <trkpt lat="48.9226" lon="2.06378">
        <ele>60.6</ele>
        <time>2022-05-24T08:07:29Z</time>
      </trkpt>
      <trkpt lat="48.9226" lon="2.06385">
        <ele>61.9</ele>
        <time>2022-05-24T08:07:32Z</time>
      </trkpt>
      <trkpt lat="48.92261" lon="2.06393">
        <ele>63.6</ele>
        <time>2022-05-24T08:07:36Z</time>
      </trkpt>
      <trkpt lat="48.92261" lon="2.06401">
        <ele>65.5</ele>
        <time>2022-05-24T08:07:40Z</time>
      </trkpt>
      <trkpt lat="48.92262" lon="2.06409">
        <ele>64.9</ele>
        <time>2022-05-24T08:07:44Z</time>
      </trkpt>
      <trkpt lat="48.92263" lon="2.06417">
        <ele>65.7</ele>
        <time>2022-05-24T08:07:48Z</time>
      </trkpt>
      <trkpt lat="48.92264" lon="2.06425">
        <ele>67.8</ele>
        <time>2022-05-24T08:07:52Z</time>
      </trkpt>
      <trkpt lat="48.92264" lon="2.06433">
        <ele>68.4</ele>
        <time>2022-05-24T08:07:56Z</time>
      </trkpt>
      <trkpt lat="48.92265" lon="2.06441">
        <ele>68.9</ele>
        <time>2022-05-24T08:08:00Z</time>
      </trkpt>
      <trkpt lat="48.92267" lon="2.06448">
        <ele>64</ele>
        <time>2022-05-24T08:08:04Z</time>
      </trkpt>
      <trkpt lat="48.9227" lon="2.06454">
        <ele>63.5</ele>
        <time>2022-05-24T08:08:07Z</time>
      </trkpt>
      <trkpt lat="48.92272" lon="2.06461">
        <ele>63</ele>
        <time>2022-05-24T08:08:10Z</time>
      </trkpt>
      <trkpt lat="48.92273" lon="2.06468">
        <ele>64.9</ele>
        <time>2022-05-24T08:08:13Z</time>
      </trkpt>
      <trkpt lat="48.92274" lon="2.06475">
        <ele>64.4</ele>
        <time>2022-05-24T08:08:17Z</time>
      </trkpt>
      <trkpt lat="48.92275" lon="2.06483">
        <ele>63.4</ele>
        <time>2022-05-24T08:08:21Z</time>
      </trkpt>
      <trkpt lat="48.92276" lon="2.06492">
        <ele>65.3</ele>
        <time>2022-05-24T08:08:25Z</time>
      </trkpt>
      <trkpt lat="48.92276" lon="2.06499">
        <ele>65.8</ele>
        <time>2022-05-24T08:08:28Z</time>
      </trkpt>
      <trkpt lat="48.92275" lon="2.06506">
        <ele>67.4</ele>
        <time>2022-05-24T08:08:31Z</time>
      </trkpt>
      <trkpt lat="48.92275" lon="2.06514">
        <ele>68</ele>
        <time>2022-05-24T08:08:36Z</time>
      </trkpt>
      <trkpt lat="48.92275" lon="2.06521">
        <ele>68.2</ele>
        <time>2022-05-24T08:08:40Z</time>
      </trkpt>
      <trkpt lat="48.92275" lon="2.0653">
        <ele>65.6</ele>
        <time>2022-05-24T08:08:44Z</time>
      </trkpt>
      <trkpt lat="48.92275" lon="2.06537">
        <ele>66.4</ele>
        <time>2022-05-24T08:08:47Z</time>
      </trkpt>
      <trkpt lat="48.92276" lon="2.06545">
        <ele>65.2</ele>
        <time>2022-05-24T08:08:51Z</time>
      </trkpt>
      <trkpt lat="48.92277" lon="2.06553">
        <ele>64.5</ele>
        <time>2022-05-24T08:08:55Z</time>
      </trkpt>
      <trkpt lat="48.92278" lon="2.06562">
        <ele>66.8</ele>
        <time>2022-05-24T08:08:59Z</time>
      </trkpt>
      <trkpt lat="48.92278" lon="2.06569">
        <ele>65</ele>
        <time>2022-05-24T08:09:02Z</time>
      </trkpt>
      <trkpt lat="48.92279" lon="2.06576">
        <ele>62.1</ele>
        <time>2022-05-24T08:09:05Z</time>
      </trkpt>
      <trkpt lat="48.9228" lon="2.06583">
        <ele>62.3</ele>
        <time>2022-05-24T08:09:09Z</time>
      </trkpt>
      <trkpt lat="48.9228" lon="2.06591">
        <ele>62.9</ele>
        <time>2022-05-24T08:09:13Z</time>
      </trkpt>
      <trkpt lat="48.9228" lon="2.066">
        <ele>59.5</ele>
        <time>2022-05-24T08:09:17Z</time>
      </trkpt>
      <trkpt lat="48.92281" lon="2.06607">
        <ele>59.1</ele>
        <time>2022-05-24T08:09:20Z</time>
      </trkpt>
      <trkpt lat="48.92282" lon="2.06615">
        <ele>61.1</ele>
        <time>2022-05-24T08:09:24Z</time>
      </trkpt>
      <trkpt lat="48.92282" lon="2.06624">
        <ele>64.7</ele>
        <time>2022-05-24T08:09:28Z</time>
      </trkpt>
      <trkpt lat="48.92282" lon="2.06632">
        <ele>62</ele>
        <time>2022-05-24T08:09:32Z</time>
      </trkpt>
      <trkpt lat="48.9228" lon="2.06644">
        <ele>65.7</ele>
        <time>2022-05-24T08:09:38Z</time>
      </trkpt>
      <trkpt lat="48.9228" lon="2.06653">
        <ele>65</ele>
        <time>2022-05-24T08:09:42Z</time>
      </trkpt>
      <trkpt lat="48.9228" lon="2.06661">
        <ele>63.8</ele>
        <time>2022-05-24T08:09:45Z</time>
      </trkpt>
      <trkpt lat="48.9228" lon="2.0667">
        <ele>62.7</ele>
        <time>2022-05-24T08:09:50Z</time>
      </trkpt>
      <trkpt lat="48.92281" lon="2.06677">
        <ele>64.2</ele>
        <time>2022-05-24T08:09:53Z</time>
      </trkpt>
      <trkpt lat="48.92283" lon="2.06689">
        <ele>65.1</ele>
        <time>2022-05-24T08:10:00Z</time>
      </trkpt>
      <trkpt lat="48.92283" lon="2.06696">
        <ele>64.5</ele>
        <time>2022-05-24T08:10:03Z</time>
      </trkpt>
      <trkpt lat="48.92283" lon="2.06704">
        <ele>66.2</ele>
        <time>2022-05-24T08:10:07Z</time>
      </trkpt>
      <trkpt lat="48.92285" lon="2.06716">
        <ele>66.9</ele>
        <time>2022-05-24T08:10:13Z</time>
      </trkpt>
      <trkpt lat="48.92286" lon="2.06725">
        <ele>64.5</ele>
        <time>2022-05-24T08:10:17Z</time>
      </trkpt>
      <trkpt lat="48.92286" lon="2.06733">
        <ele>66</ele>
        <time>2022-05-24T08:10:20Z</time>
      </trkpt>
      <trkpt lat="48.92286" lon="2.06741">
        <ele>67.6</ele>
        <time>2022-05-24T08:10:24Z</time>
      </trkpt>
      <trkpt lat="48.92287" lon="2.0675">
        <ele>69.4</ele>
        <time>2022-05-24T08:10:28Z</time>
      </trkpt>
      <trkpt lat="48.92289" lon="2.06758">
        <ele>71.4</ele>
        <time>2022-05-24T08:10:32Z</time>
      </trkpt>
      <trkpt lat="48.9229" lon="2.06767">
        <ele>71</ele>
        <time>2022-05-24T08:10:36Z</time>
      </trkpt>
      <trkpt lat="48.92292" lon="2.06775">
        <ele>70.1</ele>
        <time>2022-05-24T08:10:40Z</time>
      </trkpt>
      <trkpt lat="48.92293" lon="2.06782">
        <ele>69.2</ele>
        <time>2022-05-24T08:10:43Z</time>
      </trkpt>
      <trkpt lat="48.92294" lon="2.0679">
        <ele>68</ele>
        <time>2022-05-24T08:10:47Z</time>
      </trkpt>
      <trkpt lat="48.92295" lon="2.06798">
        <ele>68.4</ele>
        <time>2022-05-24T08:10:51Z</time>
      </trkpt>
      <trkpt lat="48.92295" lon="2.06807">
        <ele>69.5</ele>
        <time>2022-05-24T08:10:55Z</time>
      </trkpt>
      <trkpt lat="48.92295" lon="2.06815">
        <ele>69.1</ele>
        <time>2022-05-24T08:10:58Z</time>
      </trkpt>
      <trkpt lat="48.92295" lon="2.06822">
        <ele>70</ele>
        <time>2022-05-24T08:11:02Z</time>
      </trkpt>
      <trkpt lat="48.92296" lon="2.0683">
        <ele>67.6</ele>
        <time>2022-05-24T08:11:06Z</time>
      </trkpt>
      <trkpt lat="48.92297" lon="2.06838">
        <ele>65.5</ele>
        <time>2022-05-24T08:11:10Z</time>
      </trkpt>
      <trkpt lat="48.92298" lon="2.06846">
        <ele>64.1</ele>
        <time>2022-05-24T08:11:13Z</time>
      </trkpt>
      <trkpt lat="48.92299" lon="2.06855">
        <ele>68.5</ele>
        <time>2022-05-24T08:11:18Z</time>
      </trkpt>
      <trkpt lat="48.923" lon="2.06862">
        <ele>70.5</ele>
        <time>2022-05-24T08:11:21Z</time>
      </trkpt>
      <trkpt lat="48.923" lon="2.0687">
        <ele>73.3</ele>
        <time>2022-05-24T08:11:25Z</time>
      </trkpt>
      <trkpt lat="48.923" lon="2.06879">
        <ele>71.5</ele>
        <time>2022-05-24T08:11:29Z</time>
      </trkpt>
      <trkpt lat="48.923" lon="2.06888">
        <ele>71.4</ele>
        <time>2022-05-24T08:11:33Z</time>
      </trkpt>
      <trkpt lat="48.92299" lon="2.06895">
        <ele>70.7</ele>
        <time>2022-05-24T08:11:36Z</time>
      </trkpt>
      <trkpt lat="48.923" lon="2.06918">
        <ele>68.9</ele>
        <time>2022-05-24T08:11:47Z</time>
      </trkpt>
      <trkpt lat="48.923" lon="2.06926">
        <ele>70</ele>
        <time>2022-05-24T08:11:50Z</time>
      </trkpt>
      <trkpt lat="48.92301" lon="2.06935">
        <ele>72.7</ele>
        <time>2022-05-24T08:11:54Z</time>
      </trkpt>
      <trkpt lat="48.92301" lon="2.06942">
        <ele>71.5</ele>
        <time>2022-05-24T08:11:57Z</time>
      </trkpt>
      <trkpt lat="48.92301" lon="2.0695">
        <ele>72</ele>
        <time>2022-05-24T08:12:00Z</time>
      </trkpt>
      <trkpt lat="48.92301" lon="2.06959">
        <ele>73.7</ele>
        <time>2022-05-24T08:12:04Z</time>
      </trkpt>
      <trkpt lat="48.92301" lon="2.06966">
        <ele>75.6</ele>
        <time>2022-05-24T08:12:07Z</time>
      </trkpt>
      <trkpt lat="48.92303" lon="2.06974">
        <ele>76.7</ele>
        <time>2022-05-24T08:12:11Z</time>
      </trkpt>
      <trkpt lat="48.92304" lon="2.06982">
        <ele>77</ele>
        <time>2022-05-24T08:12:14Z</time>
      </trkpt>
      <trkpt lat="48.92304" lon="2.06989">
        <ele>79.7</ele>
        <time>2022-05-24T08:12:18Z</time>
      </trkpt>
      <trkpt lat="48.92306" lon="2.06998">
        <ele>81.2</ele>
        <time>2022-05-24T08:12:22Z</time>
      </trkpt>
      <trkpt lat="48.92308" lon="2.07005">
        <ele>79.1</ele>
        <time>2022-05-24T08:12:26Z</time>
      </trkpt>
      <trkpt lat="48.9231" lon="2.07012">
        <ele>78.4</ele>
        <time>2022-05-24T08:12:29Z</time>
      </trkpt>
      <trkpt lat="48.92312" lon="2.0702">
        <ele>80.1</ele>
        <time>2022-05-24T08:12:33Z</time>
      </trkpt>
      <trkpt lat="48.92313" lon="2.07026">
        <ele>79</ele>
        <time>2022-05-24T08:12:36Z</time>
      </trkpt>
      <trkpt lat="48.92314" lon="2.07034">
        <ele>78.4</ele>
        <time>2022-05-24T08:12:40Z</time>
      </trkpt>
      <trkpt lat="48.92314" lon="2.07042">
        <ele>79.3</ele>
        <time>2022-05-24T08:12:44Z</time>
      </trkpt>
      <trkpt lat="48.92314" lon="2.0705">
        <ele>74.6</ele>
        <time>2022-05-24T08:12:47Z</time>
      </trkpt>
      <trkpt lat="48.92314" lon="2.07057">
        <ele>76.5</ele>
        <time>2022-05-24T08:12:51Z</time>
      </trkpt>
      <trkpt lat="48.92314" lon="2.07064">
        <ele>77.6</ele>
        <time>2022-05-24T08:12:54Z</time>
      </trkpt>
      <trkpt lat="48.92313" lon="2.07072">
        <ele>77.3</ele>
        <time>2022-05-24T08:12:58Z</time>
      </trkpt>
      <trkpt lat="48.92313" lon="2.07079">
        <ele>77.9</ele>
        <time>2022-05-24T08:13:02Z</time>
      </trkpt>
      <trkpt lat="48.92313" lon="2.07087">
        <ele>77.8</ele>
        <time>2022-05-24T08:13:06Z</time>
      </trkpt>
      <trkpt lat="48.92313" lon="2.07095">
        <ele>79.8</ele>
        <time>2022-05-24T08:13:09Z</time>
      </trkpt>
      <trkpt lat="48.92316" lon="2.07114">
        <ele>75.8</ele>
        <time>2022-05-24T08:13:20Z</time>
      </trkpt>
      <trkpt lat="48.92317" lon="2.07123">
        <ele>74.3</ele>
        <time>2022-05-24T08:13:24Z</time>
      </trkpt>
      <trkpt lat="48.92318" lon="2.07131">
        <ele>74.5</ele>
        <time>2022-05-24T08:13:28Z</time>
      </trkpt>
      <trkpt lat="48.92319" lon="2.0714">
        <ele>74.6</ele>
        <time>2022-05-24T08:13:32Z</time>
      </trkpt>
      <trkpt lat="48.92319" lon="2.07148">
        <ele>73.7</ele>
        <time>2022-05-24T08:13:35Z</time>
      </trkpt>
      <trkpt lat="48.92317" lon="2.07155">
        <ele>73.5</ele>
        <time>2022-05-24T08:13:39Z</time>
      </trkpt>
      <trkpt lat="48.92317" lon="2.07163">
        <ele>71</ele>
        <time>2022-05-24T08:13:42Z</time>
      </trkpt>
      <trkpt lat="48.92316" lon="2.07171">
        <ele>69.3</ele>
        <time>2022-05-24T08:13:46Z</time>
      </trkpt>
      <trkpt lat="48.92315" lon="2.07179">
        <ele>69.4</ele>
        <time>2022-05-24T08:13:50Z</time>
      </trkpt>
      <trkpt lat="48.92314" lon="2.07187">
        <ele>69.8</ele>
        <time>2022-05-24T08:13:53Z</time>
      </trkpt>
      <trkpt lat="48.92312" lon="2.07198">
        <ele>70.3</ele>
        <time>2022-05-24T08:14:00Z</time>
      </trkpt>
      <trkpt lat="48.9231" lon="2.07207">
        <ele>71.2</ele>
        <time>2022-05-24T08:14:04Z</time>
      </trkpt>
      <trkpt lat="48.92309" lon="2.07215">
        <ele>70.4</ele>
        <time>2022-05-24T08:14:08Z</time>
      </trkpt>
      <trkpt lat="48.92307" lon="2.07223">
        <ele>67.9</ele>
        <time>2022-05-24T08:14:12Z</time>
      </trkpt>
      <trkpt lat="48.92307" lon="2.07231">
        <ele>67.7</ele>
        <time>2022-05-24T08:14:16Z</time>
      </trkpt>
      <trkpt lat="48.92306" lon="2.07238">
        <ele>68</ele>
        <time>2022-05-24T08:14:19Z</time>
      </trkpt>
      <trkpt lat="48.92306" lon="2.07246">
        <ele>68.3</ele>
        <time>2022-05-24T08:14:22Z</time>
      </trkpt>
      <trkpt lat="48.92305" lon="2.07253">
        <ele>68.6</ele>
        <time>2022-05-24T08:14:26Z</time>
      </trkpt>
      <trkpt lat="48.92305" lon="2.07261">
        <ele>69.3</ele>
        <time>2022-05-24T08:14:30Z</time>
      </trkpt>
      <trkpt lat="48.92304" lon="2.07269">
        <ele>69.1</ele>
        <time>2022-05-24T08:14:34Z</time>
      </trkpt>
      <trkpt lat="48.92303" lon="2.07277">
        <ele>70.3</ele>
        <time>2022-05-24T08:14:37Z</time>
      </trkpt>
      <trkpt lat="48.92302" lon="2.07286">
        <ele>70.5</ele>
        <time>2022-05-24T08:14:42Z</time>
      </trkpt>
      <trkpt lat="48.92301" lon="2.07295">
        <ele>70.8</ele>
        <time>2022-05-24T08:14:46Z</time>
      </trkpt>
      <trkpt lat="48.92301" lon="2.07303">
        <ele>70</ele>
        <time>2022-05-24T08:14:51Z</time>
      </trkpt>
      <trkpt lat="48.923" lon="2.07311">
        <ele>71.1</ele>
        <time>2022-05-24T08:14:55Z</time>
      </trkpt>
      <trkpt lat="48.92299" lon="2.07319">
        <ele>71.3</ele>
        <time>2022-05-24T08:14:59Z</time>
      </trkpt>
      <trkpt lat="48.92298" lon="2.07327">
        <ele>73.2</ele>
        <time>2022-05-24T08:15:02Z</time>
      </trkpt>
      <trkpt lat="48.92298" lon="2.07334">
        <ele>74.6</ele>
        <time>2022-05-24T08:15:06Z</time>
      </trkpt>
      <trkpt lat="48.92297" lon="2.07341">
        <ele>72</ele>
        <time>2022-05-24T08:15:09Z</time>
      </trkpt>
      <trkpt lat="48.92297" lon="2.07349">
        <ele>75.5</ele>
        <time>2022-05-24T08:15:13Z</time>
      </trkpt>
      <trkpt lat="48.92296" lon="2.07357">
        <ele>73.5</ele>
        <time>2022-05-24T08:15:16Z</time>
      </trkpt>
      <trkpt lat="48.92296" lon="2.07366">
        <ele>72.6</ele>
        <time>2022-05-24T08:15:21Z</time>
      </trkpt>
      <trkpt lat="48.92296" lon="2.07374">
        <ele>71.2</ele>
        <time>2022-05-24T08:15:24Z</time>
      </trkpt>
      <trkpt lat="48.92294" lon="2.07382">
        <ele>70.8</ele>
        <time>2022-05-24T08:15:28Z</time>
      </trkpt>
      <trkpt lat="48.92293" lon="2.07389">
        <ele>69.9</ele>
        <time>2022-05-24T08:15:31Z</time>
      </trkpt>
      <trkpt lat="48.92289" lon="2.074">
        <ele>71.2</ele>
        <time>2022-05-24T08:15:37Z</time>
      </trkpt>
      <trkpt lat="48.92288" lon="2.07408">
        <ele>69.4</ele>
        <time>2022-05-24T08:15:40Z</time>
      </trkpt>
      <trkpt lat="48.92286" lon="2.07415">
        <ele>70.6</ele>
        <time>2022-05-24T08:15:44Z</time>
      </trkpt>
      <trkpt lat="48.92284" lon="2.07423">
        <ele>71.9</ele>
        <time>2022-05-24T08:15:48Z</time>
      </trkpt>
      <trkpt lat="48.92283" lon="2.0744">
        <ele>69.4</ele>
        <time>2022-05-24T08:15:56Z</time>
      </trkpt>
      <trkpt lat="48.92282" lon="2.07448">
        <ele>70.2</ele>
        <time>2022-05-24T08:16:00Z</time>
      </trkpt>
      <trkpt lat="48.92282" lon="2.07457">
        <ele>65.8</ele>
        <time>2022-05-24T08:16:04Z</time>
      </trkpt>
      <trkpt lat="48.92282" lon="2.07465">
        <ele>67.2</ele>
        <time>2022-05-24T08:16:08Z</time>
      </trkpt>
      <trkpt lat="48.92281" lon="2.07473">
        <ele>67.5</ele>
        <time>2022-05-24T08:16:11Z</time>
      </trkpt>
      <trkpt lat="48.92279" lon="2.07481">
        <ele>68.2</ele>
        <time>2022-05-24T08:16:15Z</time>
      </trkpt>
      <trkpt lat="48.92278" lon="2.07489">
        <ele>66.1</ele>
        <time>2022-05-24T08:16:19Z</time>
      </trkpt>
      <trkpt lat="48.92276" lon="2.07497">
        <ele>68</ele>
        <time>2022-05-24T08:16:23Z</time>
      </trkpt>
      <trkpt lat="48.92275" lon="2.07505">
        <ele>68.1</ele>
        <time>2022-05-24T08:16:26Z</time>
      </trkpt>
      <trkpt lat="48.92274" lon="2.07513">
        <ele>67.9</ele>
        <time>2022-05-24T08:16:30Z</time>
      </trkpt>
      <trkpt lat="48.92274" lon="2.07521">
        <ele>64.3</ele>
        <time>2022-05-24T08:16:33Z</time>
      </trkpt>
      <trkpt lat="48.92274" lon="2.07529">
        <ele>67.9</ele>
        <time>2022-05-24T08:16:37Z</time>
      </trkpt>
      <trkpt lat="48.92274" lon="2.07537">
        <ele>67.9</ele>
        <time>2022-05-24T08:16:41Z</time>
      </trkpt>
      <trkpt lat="48.92272" lon="2.07545">
        <ele>60.9</ele>
        <time>2022-05-24T08:16:46Z</time>
      </trkpt>
      <trkpt lat="48.92272" lon="2.07554">
        <ele>62.5</ele>
        <time>2022-05-24T08:16:49Z</time>
      </trkpt>
      <trkpt lat="48.92271" lon="2.07562">
        <ele>67.1</ele>
        <time>2022-05-24T08:16:53Z</time>
      </trkpt>
      <trkpt lat="48.92271" lon="2.07569">
        <ele>66.4</ele>
        <time>2022-05-24T08:16:56Z</time>
      </trkpt>
      <trkpt lat="48.9227" lon="2.07578">
        <ele>67</ele>
        <time>2022-05-24T08:17:00Z</time>
      </trkpt>
      <trkpt lat="48.92269" lon="2.07612">
        <ele>69.2</ele>
        <time>2022-05-24T08:17:15Z</time>
      </trkpt>
      <trkpt lat="48.92269" lon="2.0762">
        <ele>68.8</ele>
        <time>2022-05-24T08:17:19Z</time>
      </trkpt>
      <trkpt lat="48.92269" lon="2.07628">
        <ele>66.5</ele>
        <time>2022-05-24T08:17:22Z</time>
      </trkpt>
      <trkpt lat="48.9227" lon="2.07636">
        <ele>65.9</ele>
        <time>2022-05-24T08:17:25Z</time>
      </trkpt>
      <trkpt lat="48.9227" lon="2.07644">
        <ele>67</ele>
        <time>2022-05-24T08:17:29Z</time>
      </trkpt>
      <trkpt lat="48.9227" lon="2.07652">
        <ele>68.9</ele>
        <time>2022-05-24T08:17:33Z</time>
      </trkpt>
      <trkpt lat="48.92269" lon="2.0766">
        <ele>69.6</ele>
        <time>2022-05-24T08:17:37Z</time>
      </trkpt>
      <trkpt lat="48.92267" lon="2.07669">
        <ele>71.4</ele>
        <time>2022-05-24T08:17:41Z</time>
      </trkpt>
      <trkpt lat="48.92266" lon="2.07676">
        <ele>68.1</ele>
        <time>2022-05-24T08:17:45Z</time>
      </trkpt>
      <trkpt lat="48.92265" lon="2.07684">
        <ele>66.8</ele>
        <time>2022-05-24T08:17:48Z</time>
      </trkpt>
      <trkpt lat="48.92265" lon="2.07693">
        <ele>66.6</ele>
        <time>2022-05-24T08:17:52Z</time>
      </trkpt>
      <trkpt lat="48.92268" lon="2.07701">
        <ele>66.3</ele>
        <time>2022-05-24T08:17:56Z</time>
      </trkpt>
      <trkpt lat="48.9227" lon="2.07707">
        <ele>65.7</ele>
        <time>2022-05-24T08:17:59Z</time>
      </trkpt>
      <trkpt lat="48.92273" lon="2.07712">
        <ele>66.4</ele>
        <time>2022-05-24T08:18:02Z</time>
      </trkpt>
      <trkpt lat="48.92278" lon="2.07724">
        <ele>69</ele>
        <time>2022-05-24T08:18:10Z</time>
      </trkpt>
      <trkpt lat="48.92275" lon="2.07729">
        <ele>69.8</ele>
        <time>2022-05-24T08:18:14Z</time>
      </trkpt>
      <trkpt lat="48.92279" lon="2.07732">
        <ele>69.7</ele>
        <time>2022-05-24T08:18:39Z</time>
      </trkpt>
      <trkpt lat="48.9228" lon="2.07725">
        <ele>66</ele>
        <time>2022-05-24T08:20:28Z</time>
      </trkpt>
      <trkpt lat="48.92286" lon="2.07725">
        <ele>64.6</ele>
        <time>2022-05-24T08:20:56Z</time>
      </trkpt>
      <trkpt lat="48.9229" lon="2.07729">
        <ele>64</ele>
        <time>2022-05-24T08:21:04Z</time>
      </trkpt>
      <trkpt lat="48.92294" lon="2.07737">
        <ele>64</ele>
        <time>2022-05-24T08:21:08Z</time>
      </trkpt>
      <trkpt lat="48.92295" lon="2.07743">
        <ele>63.7</ele>
        <time>2022-05-24T08:21:11Z</time>
      </trkpt>
      <trkpt lat="48.92297" lon="2.0775">
        <ele>62.1</ele>
        <time>2022-05-24T08:21:14Z</time>
      </trkpt>
      <trkpt lat="48.92299" lon="2.07757">
        <ele>61.2</ele>
        <time>2022-05-24T08:21:18Z</time>
      </trkpt>
      <trkpt lat="48.92302" lon="2.07765">
        <ele>62.4</ele>
        <time>2022-05-24T08:21:22Z</time>
      </trkpt>
      <trkpt lat="48.92305" lon="2.07772">
        <ele>62</ele>
        <time>2022-05-24T08:21:27Z</time>
      </trkpt>
      <trkpt lat="48.92308" lon="2.07778">
        <ele>62.1</ele>
        <time>2022-05-24T08:21:31Z</time>
      </trkpt>
      <trkpt lat="48.92312" lon="2.07785">
        <ele>59.1</ele>
        <time>2022-05-24T08:21:35Z</time>
      </trkpt>
      <trkpt lat="48.92315" lon="2.0779">
        <ele>59.3</ele>
        <time>2022-05-24T08:21:39Z</time>
      </trkpt>
      <trkpt lat="48.92319" lon="2.07795">
        <ele>58.8</ele>
        <time>2022-05-24T08:21:43Z</time>
      </trkpt>
      <trkpt lat="48.92322" lon="2.07801">
        <ele>58.6</ele>
        <time>2022-05-24T08:21:47Z</time>
      </trkpt>
      <trkpt lat="48.92325" lon="2.07808">
        <ele>57.4</ele>
        <time>2022-05-24T08:21:51Z</time>
      </trkpt>
      <trkpt lat="48.92329" lon="2.07813">
        <ele>56.6</ele>
        <time>2022-05-24T08:21:55Z</time>
      </trkpt>
      <trkpt lat="48.92332" lon="2.07818">
        <ele>56.7</ele>
        <time>2022-05-24T08:21:59Z</time>
      </trkpt>
      <trkpt lat="48.92335" lon="2.07823">
        <ele>60.1</ele>
        <time>2022-05-24T08:22:03Z</time>
      </trkpt>
      <trkpt lat="48.92339" lon="2.07829">
        <ele>58.9</ele>
        <time>2022-05-24T08:22:06Z</time>
      </trkpt>
      <trkpt lat="48.92342" lon="2.07835">
        <ele>60</ele>
        <time>2022-05-24T08:22:10Z</time>
      </trkpt>
      <trkpt lat="48.92345" lon="2.0784">
        <ele>62</ele>
        <time>2022-05-24T08:22:14Z</time>
      </trkpt>
      <trkpt lat="48.92348" lon="2.07846">
        <ele>62.1</ele>
        <time>2022-05-24T08:22:17Z</time>
      </trkpt>
      <trkpt lat="48.92352" lon="2.07851">
        <ele>64.1</ele>
        <time>2022-05-24T08:22:20Z</time>
      </trkpt>
      <trkpt lat="48.92357" lon="2.07855">
        <ele>64.1</ele>
        <time>2022-05-24T08:22:24Z</time>
      </trkpt>
      <trkpt lat="48.92361" lon="2.0786">
        <ele>63.1</ele>
        <time>2022-05-24T08:22:28Z</time>
      </trkpt>
      <trkpt lat="48.92366" lon="2.07865">
        <ele>63.7</ele>
        <time>2022-05-24T08:22:32Z</time>
      </trkpt>
      <trkpt lat="48.9237" lon="2.0787">
        <ele>62.4</ele>
        <time>2022-05-24T08:22:36Z</time>
      </trkpt>
      <trkpt lat="48.92373" lon="2.07875">
        <ele>61.9</ele>
        <time>2022-05-24T08:22:40Z</time>
      </trkpt>
      <trkpt lat="48.92377" lon="2.07881">
        <ele>61.2</ele>
        <time>2022-05-24T08:22:44Z</time>
      </trkpt>
      <trkpt lat="48.9238" lon="2.07886">
        <ele>62.4</ele>
        <time>2022-05-24T08:22:48Z</time>
      </trkpt>
      <trkpt lat="48.92383" lon="2.07893">
        <ele>61.7</ele>
        <time>2022-05-24T08:22:52Z</time>
      </trkpt>
      <trkpt lat="48.92386" lon="2.07898">
        <ele>61.2</ele>
        <time>2022-05-24T08:22:56Z</time>
      </trkpt>
      <trkpt lat="48.92389" lon="2.07905">
        <ele>62.2</ele>
        <time>2022-05-24T08:22:59Z</time>
      </trkpt>
      <trkpt lat="48.92393" lon="2.07911">
        <ele>63.5</ele>
        <time>2022-05-24T08:23:04Z</time>
      </trkpt>
      <trkpt lat="48.92398" lon="2.07917">
        <ele>64</ele>
        <time>2022-05-24T08:23:08Z</time>
      </trkpt>
      <trkpt lat="48.92402" lon="2.07923">
        <ele>66.8</ele>
        <time>2022-05-24T08:23:13Z</time>
      </trkpt>
      <trkpt lat="48.92406" lon="2.07927">
        <ele>64.9</ele>
        <time>2022-05-24T08:23:16Z</time>
      </trkpt>
      <trkpt lat="48.9241" lon="2.07934">
        <ele>64.5</ele>
        <time>2022-05-24T08:23:20Z</time>
      </trkpt>
      <trkpt lat="48.92413" lon="2.07941">
        <ele>64.3</ele>
        <time>2022-05-24T08:23:25Z</time>
      </trkpt>
      <trkpt lat="48.92417" lon="2.07947">
        <ele>64.7</ele>
        <time>2022-05-24T08:23:29Z</time>
      </trkpt>
      <trkpt lat="48.9242" lon="2.07953">
        <ele>65.3</ele>
        <time>2022-05-24T08:23:33Z</time>
      </trkpt>
      <trkpt lat="48.92423" lon="2.07958">
        <ele>64.4</ele>
        <time>2022-05-24T08:23:37Z</time>
      </trkpt>
      <trkpt lat="48.92427" lon="2.07964">
        <ele>64</ele>
        <time>2022-05-24T08:23:41Z</time>
      </trkpt>
      <trkpt lat="48.92431" lon="2.07969">
        <ele>64.6</ele>
        <time>2022-05-24T08:23:44Z</time>
      </trkpt>
      <trkpt lat="48.92435" lon="2.07974">
        <ele>64.9</ele>
        <time>2022-05-24T08:23:48Z</time>
      </trkpt>
      <trkpt lat="48.92439" lon="2.0798">
        <ele>65.9</ele>
        <time>2022-05-24T08:23:53Z</time>
      </trkpt>
      <trkpt lat="48.92443" lon="2.07985">
        <ele>67.6</ele>
        <time>2022-05-24T08:23:56Z</time>
      </trkpt>
      <trkpt lat="48.92447" lon="2.07989">
        <ele>68.9</ele>
        <time>2022-05-24T08:23:59Z</time>
      </trkpt>
      <trkpt lat="48.9245" lon="2.07994">
        <ele>68.7</ele>
        <time>2022-05-24T08:24:03Z</time>
      </trkpt>
      <trkpt lat="48.92454" lon="2.07999">
        <ele>68</ele>
        <time>2022-05-24T08:24:07Z</time>
      </trkpt>
      <trkpt lat="48.92457" lon="2.08005">
        <ele>67.4</ele>
        <time>2022-05-24T08:24:11Z</time>
      </trkpt>
      <trkpt lat="48.92461" lon="2.08009">
        <ele>65.8</ele>
        <time>2022-05-24T08:24:15Z</time>
      </trkpt>
      <trkpt lat="48.92466" lon="2.08011">
        <ele>65.8</ele>
        <time>2022-05-24T08:24:19Z</time>
      </trkpt>
      <trkpt lat="48.9247" lon="2.0801">
        <ele>65.8</ele>
        <time>2022-05-24T08:24:22Z</time>
      </trkpt>
      <trkpt lat="48.92475" lon="2.08004">
        <ele>68</ele>
        <time>2022-05-24T08:24:26Z</time>
      </trkpt>
      <trkpt lat="48.92478" lon="2.08">
        <ele>65.3</ele>
        <time>2022-05-24T08:24:30Z</time>
      </trkpt>
      <trkpt lat="48.92483" lon="2.07995">
        <ele>64.2</ele>
        <time>2022-05-24T08:24:34Z</time>
      </trkpt>
      <trkpt lat="48.92487" lon="2.0799">
        <ele>64.6</ele>
        <time>2022-05-24T08:24:38Z</time>
      </trkpt>
      <trkpt lat="48.92491" lon="2.07985">
        <ele>65.3</ele>
        <time>2022-05-24T08:24:42Z</time>
      </trkpt>
      <trkpt lat="48.92495" lon="2.07981">
        <ele>65.9</ele>
        <time>2022-05-24T08:24:46Z</time>
      </trkpt>
      <trkpt lat="48.925" lon="2.07978">
        <ele>68.5</ele>
        <time>2022-05-24T08:24:50Z</time>
      </trkpt>
      <trkpt lat="48.92505" lon="2.07977">
        <ele>68.8</ele>
        <time>2022-05-24T08:24:54Z</time>
      </trkpt>
      <trkpt lat="48.9251" lon="2.07977">
        <ele>69.4</ele>
        <time>2022-05-24T08:24:58Z</time>
      </trkpt>
      <trkpt lat="48.92515" lon="2.07976">
        <ele>70.2</ele>
        <time>2022-05-24T08:25:02Z</time>
      </trkpt>
      <trkpt lat="48.9252" lon="2.07974">
        <ele>71.4</ele>
        <time>2022-05-24T08:25:06Z</time>
      </trkpt>
      <trkpt lat="48.92525" lon="2.07972">
        <ele>68.1</ele>
        <time>2022-05-24T08:25:10Z</time>
      </trkpt>
      <trkpt lat="48.9253" lon="2.0797">
        <ele>66.7</ele>
        <time>2022-05-24T08:25:13Z</time>
      </trkpt>
      <trkpt lat="48.92535" lon="2.07966">
        <ele>67.2</ele>
        <time>2022-05-24T08:25:18Z</time>
      </trkpt>
      <trkpt lat="48.92539" lon="2.07963">
        <ele>67.4</ele>
        <time>2022-05-24T08:25:22Z</time>
      </trkpt>
      <trkpt lat="48.92544" lon="2.0796">
        <ele>64.8</ele>
        <time>2022-05-24T08:25:26Z</time>
      </trkpt>
      <trkpt lat="48.92549" lon="2.07957">
        <ele>64.1</ele>
        <time>2022-05-24T08:25:31Z</time>
      </trkpt>
      <trkpt lat="48.92554" lon="2.07954">
        <ele>64.5</ele>
        <time>2022-05-24T08:25:35Z</time>
      </trkpt>
      <trkpt lat="48.92559" lon="2.07952">
        <ele>64</ele>
        <time>2022-05-24T08:25:39Z</time>
      </trkpt>
      <trkpt lat="48.92564" lon="2.07949">
        <ele>64</ele>
        <time>2022-05-24T08:25:43Z</time>
      </trkpt>
      <trkpt lat="48.9257" lon="2.07947">
        <ele>67.4</ele>
        <time>2022-05-24T08:25:46Z</time>
      </trkpt>
      <trkpt lat="48.92576" lon="2.07947">
        <ele>67.2</ele>
        <time>2022-05-24T08:25:51Z</time>
      </trkpt>
      <trkpt lat="48.92581" lon="2.07947">
        <ele>66.9</ele>
        <time>2022-05-24T08:25:54Z</time>
      </trkpt>
      <trkpt lat="48.92587" lon="2.07947">
        <ele>64.1</ele>
        <time>2022-05-24T08:25:58Z</time>
      </trkpt>
      <trkpt lat="48.92592" lon="2.07948">
        <ele>64.4</ele>
        <time>2022-05-24T08:26:02Z</time>
      </trkpt>
      <trkpt lat="48.92597" lon="2.07949">
        <ele>65.2</ele>
        <time>2022-05-24T08:26:06Z</time>
      </trkpt>
      <trkpt lat="48.92603" lon="2.07951">
        <ele>67.1</ele>
        <time>2022-05-24T08:26:09Z</time>
      </trkpt>
      <trkpt lat="48.92607" lon="2.07953">
        <ele>66.6</ele>
        <time>2022-05-24T08:26:13Z</time>
      </trkpt>
      <trkpt lat="48.92613" lon="2.07955">
        <ele>66.7</ele>
        <time>2022-05-24T08:26:17Z</time>
      </trkpt>
      <trkpt lat="48.92617" lon="2.07957">
        <ele>65.3</ele>
        <time>2022-05-24T08:26:20Z</time>
      </trkpt>
      <trkpt lat="48.92622" lon="2.07959">
        <ele>63.1</ele>
        <time>2022-05-24T08:26:24Z</time>
      </trkpt>
      <trkpt lat="48.92628" lon="2.0796">
        <ele>61.6</ele>
        <time>2022-05-24T08:26:28Z</time>
      </trkpt>
      <trkpt lat="48.92633" lon="2.07962">
        <ele>61.5</ele>
        <time>2022-05-24T08:26:32Z</time>
      </trkpt>
      <trkpt lat="48.92639" lon="2.07963">
        <ele>61.9</ele>
        <time>2022-05-24T08:26:35Z</time>
      </trkpt>
      <trkpt lat="48.92644" lon="2.07963">
        <ele>63.4</ele>
        <time>2022-05-24T08:26:40Z</time>
      </trkpt>
      <trkpt lat="48.92649" lon="2.07965">
        <ele>64.2</ele>
        <time>2022-05-24T08:26:43Z</time>
      </trkpt>
      <trkpt lat="48.92654" lon="2.07967">
        <ele>64.5</ele>
        <time>2022-05-24T08:26:47Z</time>
      </trkpt>
      <trkpt lat="48.92659" lon="2.0797">
        <ele>64.4</ele>
        <time>2022-05-24T08:26:51Z</time>
      </trkpt>
      <trkpt lat="48.92664" lon="2.07972">
        <ele>62.8</ele>
        <time>2022-05-24T08:26:55Z</time>
      </trkpt>
      <trkpt lat="48.92669" lon="2.07974">
        <ele>63</ele>
        <time>2022-05-24T08:26:59Z</time>
      </trkpt>
      <trkpt lat="48.92674" lon="2.07976">
        <ele>62.3</ele>
        <time>2022-05-24T08:27:02Z</time>
      </trkpt>
      <trkpt lat="48.92679" lon="2.07977">
        <ele>60.1</ele>
        <time>2022-05-24T08:27:05Z</time>
      </trkpt>
      <trkpt lat="48.92684" lon="2.07978">
        <ele>60.5</ele>
        <time>2022-05-24T08:27:09Z</time>
      </trkpt>
      <trkpt lat="48.92689" lon="2.07979">
        <ele>62.5</ele>
        <time>2022-05-24T08:27:13Z</time>
      </trkpt>
      <trkpt lat="48.92694" lon="2.0798">
        <ele>60.7</ele>
        <time>2022-05-24T08:27:17Z</time>
      </trkpt>
      <trkpt lat="48.92699" lon="2.0798">
        <ele>61.6</ele>
        <time>2022-05-24T08:27:20Z</time>
      </trkpt>
      <trkpt lat="48.92705" lon="2.07981">
        <ele>61.8</ele>
        <time>2022-05-24T08:27:25Z</time>
      </trkpt>
      <trkpt lat="48.9271" lon="2.07982">
        <ele>62.9</ele>
        <time>2022-05-24T08:27:28Z</time>
      </trkpt>
      <trkpt lat="48.92715" lon="2.07983">
        <ele>63.2</ele>
        <time>2022-05-24T08:27:32Z</time>
      </trkpt>
      <trkpt lat="48.9272" lon="2.07985">
        <ele>61.5</ele>
        <time>2022-05-24T08:27:36Z</time>
      </trkpt>
      <trkpt lat="48.92725" lon="2.07988">
        <ele>61.8</ele>
        <time>2022-05-24T08:27:40Z</time>
      </trkpt>
      <trkpt lat="48.92731" lon="2.0799">
        <ele>63.2</ele>
        <time>2022-05-24T08:27:43Z</time>
      </trkpt>
      <trkpt lat="48.92736" lon="2.07991">
        <ele>64.1</ele>
        <time>2022-05-24T08:27:47Z</time>
      </trkpt>
      <trkpt lat="48.9274" lon="2.07992">
        <ele>61.6</ele>
        <time>2022-05-24T08:27:50Z</time>
      </trkpt>
      <trkpt lat="48.92745" lon="2.07992">
        <ele>59.9</ele>
        <time>2022-05-24T08:27:53Z</time>
      </trkpt>
      <trkpt lat="48.9275" lon="2.07992">
        <ele>59.7</ele>
        <time>2022-05-24T08:27:57Z</time>
      </trkpt>
      <trkpt lat="48.92756" lon="2.07991">
        <ele>61.6</ele>
        <time>2022-05-24T08:28:01Z</time>
      </trkpt>
      <trkpt lat="48.92761" lon="2.07991">
        <ele>61.7</ele>
        <time>2022-05-24T08:28:05Z</time>
      </trkpt>
      <trkpt lat="48.92765" lon="2.07997">
        <ele>63.9</ele>
        <time>2022-05-24T08:28:09Z</time>
      </trkpt>
      <trkpt lat="48.92768" lon="2.08003">
        <ele>66</ele>
        <time>2022-05-24T08:28:13Z</time>
      </trkpt>
      <trkpt lat="48.92773" lon="2.08004">
        <ele>64.8</ele>
        <time>2022-05-24T08:28:41Z</time>
      </trkpt>
      <trkpt lat="48.92777" lon="2.08008">
        <ele>64.4</ele>
        <time>2022-05-24T08:29:02Z</time>
      </trkpt>
      <trkpt lat="48.92781" lon="2.08013">
        <ele>64.5</ele>
        <time>2022-05-24T08:29:08Z</time>
      </trkpt>
      <trkpt lat="48.92787" lon="2.08014">
        <ele>63.7</ele>
        <time>2022-05-24T08:29:12Z</time>
      </trkpt>
      <trkpt lat="48.92792" lon="2.08015">
        <ele>65.5</ele>
        <time>2022-05-24T08:29:16Z</time>
      </trkpt>
      <trkpt lat="48.92798" lon="2.08015">
        <ele>65.9</ele>
        <time>2022-05-24T08:29:19Z</time>
      </trkpt>
      <trkpt lat="48.92802" lon="2.08019">
        <ele>68.3</ele>
        <time>2022-05-24T08:29:23Z</time>
      </trkpt>
      <trkpt lat="48.92805" lon="2.08025">
        <ele>67</ele>
        <time>2022-05-24T08:29:28Z</time>
      </trkpt>
      <trkpt lat="48.92811" lon="2.08027">
        <ele>67.7</ele>
        <time>2022-05-24T08:29:32Z</time>
      </trkpt>
      <trkpt lat="48.92816" lon="2.08026">
        <ele>68.7</ele>
        <time>2022-05-24T08:29:35Z</time>
      </trkpt>
      <trkpt lat="48.92835" lon="2.08032">
        <ele>68.5</ele>
        <time>2022-05-24T08:29:51Z</time>
      </trkpt>
      <trkpt lat="48.9284" lon="2.08033">
        <ele>68.4</ele>
        <time>2022-05-24T08:29:55Z</time>
      </trkpt>
      <trkpt lat="48.92845" lon="2.08033">
        <ele>67.2</ele>
        <time>2022-05-24T08:29:59Z</time>
      </trkpt>
      <trkpt lat="48.92851" lon="2.08033">
        <ele>68.9</ele>
        <time>2022-05-24T08:30:04Z</time>
      </trkpt>
      <trkpt lat="48.92855" lon="2.08034">
        <ele>69</ele>
        <time>2022-05-24T08:30:08Z</time>
      </trkpt>
      <trkpt lat="48.9286" lon="2.08034">
        <ele>64.6</ele>
        <time>2022-05-24T08:30:12Z</time>
      </trkpt>
      <trkpt lat="48.92865" lon="2.08032">
        <ele>65.9</ele>
        <time>2022-05-24T08:30:14Z</time>
      </trkpt>
      <trkpt lat="48.9287" lon="2.0803">
        <ele>61.3</ele>
        <time>2022-05-24T08:30:17Z</time>
      </trkpt>
      <trkpt lat="48.92876" lon="2.08028">
        <ele>56.8</ele>
        <time>2022-05-24T08:30:21Z</time>
      </trkpt>
      <trkpt lat="48.92882" lon="2.08025">
        <ele>58.3</ele>
        <time>2022-05-24T08:30:24Z</time>
      </trkpt>
      <trkpt lat="48.92887" lon="2.08022">
        <ele>59.2</ele>
        <time>2022-05-24T08:30:27Z</time>
      </trkpt>
      <trkpt lat="48.92892" lon="2.0802">
        <ele>59.9</ele>
        <time>2022-05-24T08:30:31Z</time>
      </trkpt>
      <trkpt lat="48.92898" lon="2.08021">
        <ele>60.1</ele>
        <time>2022-05-24T08:30:35Z</time>
      </trkpt>
      <trkpt lat="48.92903" lon="2.08024">
        <ele>63.6</ele>
        <time>2022-05-24T08:30:39Z</time>
      </trkpt>
      <trkpt lat="48.92908" lon="2.08027">
        <ele>63.2</ele>
        <time>2022-05-24T08:30:43Z</time>
      </trkpt>
      <trkpt lat="48.92913" lon="2.08029">
        <ele>64.5</ele>
        <time>2022-05-24T08:30:47Z</time>
      </trkpt>
      <trkpt lat="48.92914" lon="2.08036">
        <ele>64.8</ele>
        <time>2022-05-24T08:30:50Z</time>
      </trkpt>
      <trkpt lat="48.92916" lon="2.08043">
        <ele>67.2</ele>
        <time>2022-05-24T08:30:54Z</time>
      </trkpt>
      <trkpt lat="48.92919" lon="2.08049">
        <ele>68.8</ele>
        <time>2022-05-24T08:30:57Z</time>
      </trkpt>
      <trkpt lat="48.92922" lon="2.08054">
        <ele>70</ele>
        <time>2022-05-24T08:31:01Z</time>
      </trkpt>
      <trkpt lat="48.92926" lon="2.08057">
        <ele>68</ele>
        <time>2022-05-24T08:31:05Z</time>
      </trkpt>
      <trkpt lat="48.9293" lon="2.08062">
        <ele>66.9</ele>
        <time>2022-05-24T08:31:09Z</time>
      </trkpt>
      <trkpt lat="48.92933" lon="2.08068">
        <ele>66.6</ele>
        <time>2022-05-24T08:31:14Z</time>
      </trkpt>
      <trkpt lat="48.92937" lon="2.08074">
        <ele>67.2</ele>
        <time>2022-05-24T08:31:18Z</time>
      </trkpt>
      <trkpt lat="48.92934" lon="2.08068">
        <ele>65.6</ele>
        <time>2022-05-24T08:31:28Z</time>
      </trkpt>
      <trkpt lat="48.92946" lon="2.08085">
        <ele>64.9</ele>
        <time>2022-05-24T08:31:40Z</time>
      </trkpt>
      <trkpt lat="48.9295" lon="2.08088">
        <ele>64.4</ele>
        <time>2022-05-24T08:31:43Z</time>
      </trkpt>
      <trkpt lat="48.92954" lon="2.08095">
        <ele>62.5</ele>
        <time>2022-05-24T08:31:47Z</time>
      </trkpt>
      <trkpt lat="48.92959" lon="2.08101">
        <ele>62.9</ele>
        <time>2022-05-24T08:31:51Z</time>
      </trkpt>
      <trkpt lat="48.92963" lon="2.08107">
        <ele>64.6</ele>
        <time>2022-05-24T08:31:55Z</time>
      </trkpt>
      <trkpt lat="48.92966" lon="2.08111">
        <ele>65.6</ele>
        <time>2022-05-24T08:31:59Z</time>
      </trkpt>
      <trkpt lat="48.9297" lon="2.08117">
        <ele>66.5</ele>
        <time>2022-05-24T08:32:02Z</time>
      </trkpt>
      <trkpt lat="48.92974" lon="2.08121">
        <ele>65.3</ele>
        <time>2022-05-24T08:32:05Z</time>
      </trkpt>
      <trkpt lat="48.92978" lon="2.08127">
        <ele>65.9</ele>
        <time>2022-05-24T08:32:10Z</time>
      </trkpt>
      <trkpt lat="48.92981" lon="2.08132">
        <ele>64.8</ele>
        <time>2022-05-24T08:32:13Z</time>
      </trkpt>
      <trkpt lat="48.92986" lon="2.08137">
        <ele>63.6</ele>
        <time>2022-05-24T08:32:18Z</time>
      </trkpt>
      <trkpt lat="48.9299" lon="2.08143">
        <ele>64.6</ele>
        <time>2022-05-24T08:32:22Z</time>
      </trkpt>
      <trkpt lat="48.92995" lon="2.08149">
        <ele>64.5</ele>
        <time>2022-05-24T08:32:27Z</time>
      </trkpt>
      <trkpt lat="48.92998" lon="2.08155">
        <ele>64.2</ele>
        <time>2022-05-24T08:32:31Z</time>
      </trkpt>
      <trkpt lat="48.93001" lon="2.08162">
        <ele>63.5</ele>
        <time>2022-05-24T08:32:34Z</time>
      </trkpt>
      <trkpt lat="48.93004" lon="2.08167">
        <ele>61.7</ele>
        <time>2022-05-24T08:32:38Z</time>
      </trkpt>
      <trkpt lat="48.93007" lon="2.08173">
        <ele>63.6</ele>
        <time>2022-05-24T08:32:42Z</time>
      </trkpt>
      <trkpt lat="48.93011" lon="2.08179">
        <ele>63.1</ele>
        <time>2022-05-24T08:32:46Z</time>
      </trkpt>
      <trkpt lat="48.93014" lon="2.08184">
        <ele>61.4</ele>
        <time>2022-05-24T08:32:49Z</time>
      </trkpt>
      <trkpt lat="48.93018" lon="2.0819">
        <ele>60.9</ele>
        <time>2022-05-24T08:32:52Z</time>
      </trkpt>
      <trkpt lat="48.93022" lon="2.08196">
        <ele>62.4</ele>
        <time>2022-05-24T08:32:56Z</time>
      </trkpt>
      <trkpt lat="48.93025" lon="2.08202">
        <ele>62.5</ele>
        <time>2022-05-24T08:32:59Z</time>
      </trkpt>
      <trkpt lat="48.93028" lon="2.08209">
        <ele>62</ele>
        <time>2022-05-24T08:33:03Z</time>
      </trkpt>
      <trkpt lat="48.93109" lon="2.0833">
        <ele>64</ele>
        <time>2022-05-24T08:34:18Z</time>
      </trkpt>
      <trkpt lat="48.93112" lon="2.08335">
        <ele>62.6</ele>
        <time>2022-05-24T08:34:21Z</time>
      </trkpt>
      <trkpt lat="48.93115" lon="2.08343">
        <ele>62.9</ele>
        <time>2022-05-24T08:34:25Z</time>
      </trkpt>
      <trkpt lat="48.93118" lon="2.08348">
        <ele>61.9</ele>
        <time>2022-05-24T08:34:28Z</time>
      </trkpt>
      <trkpt lat="48.93121" lon="2.08355">
        <ele>61.8</ele>
        <time>2022-05-24T08:34:33Z</time>
      </trkpt>
      <trkpt lat="48.93124" lon="2.0836">
        <ele>63</ele>
        <time>2022-05-24T08:34:37Z</time>
      </trkpt>
      <trkpt lat="48.93128" lon="2.08365">
        <ele>63</ele>
        <time>2022-05-24T08:34:41Z</time>
      </trkpt>
      <trkpt lat="48.93132" lon="2.0837">
        <ele>63.9</ele>
        <time>2022-05-24T08:34:46Z</time>
      </trkpt>
      <trkpt lat="48.93137" lon="2.08374">
        <ele>65.6</ele>
        <time>2022-05-24T08:34:51Z</time>
      </trkpt>
      <trkpt lat="48.9314" lon="2.08381">
        <ele>64.9</ele>
        <time>2022-05-24T08:34:56Z</time>
      </trkpt>
      <trkpt lat="48.93142" lon="2.08387">
        <ele>64.3</ele>
        <time>2022-05-24T08:35:00Z</time>
      </trkpt>
      <trkpt lat="48.93145" lon="2.08392">
        <ele>64.5</ele>
        <time>2022-05-24T08:35:04Z</time>
      </trkpt>
      <trkpt lat="48.93148" lon="2.08397">
        <ele>65.3</ele>
        <time>2022-05-24T08:35:08Z</time>
      </trkpt>
      <trkpt lat="48.93151" lon="2.08403">
        <ele>65.7</ele>
        <time>2022-05-24T08:35:12Z</time>
      </trkpt>
      <trkpt lat="48.93155" lon="2.08407">
        <ele>67.9</ele>
        <time>2022-05-24T08:35:16Z</time>
      </trkpt>
      <trkpt lat="48.93158" lon="2.08413">
        <ele>69.4</ele>
        <time>2022-05-24T08:35:21Z</time>
      </trkpt>
      <trkpt lat="48.93161" lon="2.08419">
        <ele>66.6</ele>
        <time>2022-05-24T08:35:25Z</time>
      </trkpt>
      <trkpt lat="48.93164" lon="2.08426">
        <ele>61.8</ele>
        <time>2022-05-24T08:35:28Z</time>
      </trkpt>
      <trkpt lat="48.93168" lon="2.08431">
        <ele>63.1</ele>
        <time>2022-05-24T08:35:33Z</time>
      </trkpt>
      <trkpt lat="48.93172" lon="2.08437">
        <ele>61.3</ele>
        <time>2022-05-24T08:35:37Z</time>
      </trkpt>
      <trkpt lat="48.93176" lon="2.08442">
        <ele>63.3</ele>
        <time>2022-05-24T08:35:41Z</time>
      </trkpt>
      <trkpt lat="48.9318" lon="2.08447">
        <ele>65.5</ele>
        <time>2022-05-24T08:35:44Z</time>
      </trkpt>
      <trkpt lat="48.93184" lon="2.08454">
        <ele>67</ele>
        <time>2022-05-24T08:35:49Z</time>
      </trkpt>
      <trkpt lat="48.93188" lon="2.0846">
        <ele>66.8</ele>
        <time>2022-05-24T08:35:53Z</time>
      </trkpt>
      <trkpt lat="48.93191" lon="2.08466">
        <ele>63.9</ele>
        <time>2022-05-24T08:35:57Z</time>
      </trkpt>
      <trkpt lat="48.93195" lon="2.08472">
        <ele>67.1</ele>
        <time>2022-05-24T08:36:01Z</time>
      </trkpt>
      <trkpt lat="48.93198" lon="2.08477">
        <ele>64.8</ele>
        <time>2022-05-24T08:36:04Z</time>
      </trkpt>
      <trkpt lat="48.93202" lon="2.08483">
        <ele>65.5</ele>
        <time>2022-05-24T08:36:08Z</time>
      </trkpt>
      <trkpt lat="48.93206" lon="2.08488">
        <ele>66.6</ele>
        <time>2022-05-24T08:36:11Z</time>
      </trkpt>
      <trkpt lat="48.9321" lon="2.08493">
        <ele>65.1</ele>
        <time>2022-05-24T08:36:15Z</time>
      </trkpt>
      <trkpt lat="48.93214" lon="2.08498">
        <ele>66.6</ele>
        <time>2022-05-24T08:36:19Z</time>
      </trkpt>
      <trkpt lat="48.93218" lon="2.08504">
        <ele>68.8</ele>
        <time>2022-05-24T08:36:23Z</time>
      </trkpt>
      <trkpt lat="48.93221" lon="2.08509">
        <ele>68.7</ele>
        <time>2022-05-24T08:36:26Z</time>
      </trkpt>
      <trkpt lat="48.93225" lon="2.08515">
        <ele>68.9</ele>
        <time>2022-05-24T08:36:29Z</time>
      </trkpt>
      <trkpt lat="48.93229" lon="2.0852">
        <ele>71.3</ele>
        <time>2022-05-24T08:36:33Z</time>
      </trkpt>
      <trkpt lat="48.93235" lon="2.08528">
        <ele>71.2</ele>
        <time>2022-05-24T08:36:38Z</time>
      </trkpt>
      <trkpt lat="48.93238" lon="2.08533">
        <ele>71.7</ele>
        <time>2022-05-24T08:36:42Z</time>
      </trkpt>
      <trkpt lat="48.9325" lon="2.08548">
        <ele>72.7</ele>
        <time>2022-05-24T08:36:52Z</time>
      </trkpt>
      <trkpt lat="48.93253" lon="2.08553">
        <ele>75.8</ele>
        <time>2022-05-24T08:36:54Z</time>
      </trkpt>
      <trkpt lat="48.93263" lon="2.08563">
        <ele>75</ele>
        <time>2022-05-24T08:37:04Z</time>
      </trkpt>
      <trkpt lat="48.93453" lon="2.08866">
        <ele>68.3</ele>
        <time>2022-05-24T08:40:13Z</time>
      </trkpt>
      <trkpt lat="48.93465" lon="2.08885">
        <ele>65.8</ele>
        <time>2022-05-24T08:40:26Z</time>
      </trkpt>
      <trkpt lat="48.93469" lon="2.0889">
        <ele>66</ele>
        <time>2022-05-24T08:40:30Z</time>
      </trkpt>
      <trkpt lat="48.93472" lon="2.08895">
        <ele>65.1</ele>
        <time>2022-05-24T08:40:33Z</time>
      </trkpt>
      <trkpt lat="48.93475" lon="2.089">
        <ele>62.4</ele>
        <time>2022-05-24T08:40:37Z</time>
      </trkpt>
      <trkpt lat="48.9349" lon="2.08927">
        <ele>63.2</ele>
        <time>2022-05-24T08:40:55Z</time>
      </trkpt>
      <trkpt lat="48.93494" lon="2.08932">
        <ele>64.4</ele>
        <time>2022-05-24T08:40:57Z</time>
      </trkpt>
      <trkpt lat="48.93503" lon="2.08941">
        <ele>64.3</ele>
        <time>2022-05-24T08:41:06Z</time>
      </trkpt>
      <trkpt lat="48.93506" lon="2.08946">
        <ele>64.6</ele>
        <time>2022-05-24T08:41:09Z</time>
      </trkpt>
      <trkpt lat="48.9351" lon="2.08952">
        <ele>71</ele>
        <time>2022-05-24T08:41:13Z</time>
      </trkpt>
      <trkpt lat="48.93513" lon="2.08959">
        <ele>73</ele>
        <time>2022-05-24T08:41:17Z</time>
      </trkpt>
      <trkpt lat="48.93516" lon="2.08966">
        <ele>72.8</ele>
        <time>2022-05-24T08:41:20Z</time>
      </trkpt>
      <trkpt lat="48.9352" lon="2.08973">
        <ele>72.3</ele>
        <time>2022-05-24T08:41:25Z</time>
      </trkpt>
      <trkpt lat="48.93523" lon="2.08979">
        <ele>71.4</ele>
        <time>2022-05-24T08:41:28Z</time>
      </trkpt>
      <trkpt lat="48.93526" lon="2.08984">
        <ele>72.9</ele>
        <time>2022-05-24T08:41:31Z</time>
      </trkpt>
      <trkpt lat="48.93529" lon="2.0899">
        <ele>68.4</ele>
        <time>2022-05-24T08:41:35Z</time>
      </trkpt>
      <trkpt lat="48.93533" lon="2.08996">
        <ele>68.5</ele>
        <time>2022-05-24T08:41:39Z</time>
      </trkpt>
      <trkpt lat="48.93537" lon="2.09001">
        <ele>70.1</ele>
        <time>2022-05-24T08:41:43Z</time>
      </trkpt>
      <trkpt lat="48.93541" lon="2.09006">
        <ele>70.4</ele>
        <time>2022-05-24T08:41:47Z</time>
      </trkpt>
      <trkpt lat="48.93545" lon="2.09012">
        <ele>68.3</ele>
        <time>2022-05-24T08:41:51Z</time>
      </trkpt>
      <trkpt lat="48.93549" lon="2.09017">
        <ele>71.5</ele>
        <time>2022-05-24T08:41:55Z</time>
      </trkpt>
      <trkpt lat="48.93553" lon="2.09021">
        <ele>75.2</ele>
        <time>2022-05-24T08:41:59Z</time>
      </trkpt>
      <trkpt lat="48.93557" lon="2.09028">
        <ele>76.8</ele>
        <time>2022-05-24T08:42:04Z</time>
      </trkpt>
      <trkpt lat="48.9356" lon="2.09033">
        <ele>78</ele>
        <time>2022-05-24T08:42:08Z</time>
      </trkpt>
      <trkpt lat="48.93564" lon="2.09037">
        <ele>80.1</ele>
        <time>2022-05-24T08:42:13Z</time>
      </trkpt>
      <trkpt lat="48.93562" lon="2.09031">
        <ele>79.3</ele>
        <time>2022-05-24T08:42:38Z</time>
      </trkpt>
      <trkpt lat="48.93557" lon="2.09026">
        <ele>76.9</ele>
        <time>2022-05-24T08:43:59Z</time>
      </trkpt>
      <trkpt lat="48.93553" lon="2.0903">
        <ele>74.1</ele>
        <time>2022-05-24T08:44:18Z</time>
      </trkpt>
      <trkpt lat="48.93558" lon="2.09028">
        <ele>75.1</ele>
        <time>2022-05-24T08:44:35Z</time>
      </trkpt>
      <trkpt lat="48.93563" lon="2.09028">
        <ele>74.8</ele>
        <time>2022-05-24T08:44:39Z</time>
      </trkpt>
      <trkpt lat="48.93567" lon="2.09026">
        <ele>72.6</ele>
        <time>2022-05-24T08:44:43Z</time>
      </trkpt>
      <trkpt lat="48.93573" lon="2.09026">
        <ele>73.8</ele>
        <time>2022-05-24T08:44:47Z</time>
      </trkpt>
      <trkpt lat="48.93578" lon="2.09028">
        <ele>72.5</ele>
        <time>2022-05-24T08:44:51Z</time>
      </trkpt>
      <trkpt lat="48.93582" lon="2.09029">
        <ele>71.4</ele>
        <time>2022-05-24T08:44:55Z</time>
      </trkpt>
      <trkpt lat="48.93588" lon="2.09029">
        <ele>71.6</ele>
        <time>2022-05-24T08:45:00Z</time>
      </trkpt>
      <trkpt lat="48.93593" lon="2.09028">
        <ele>73.6</ele>
        <time>2022-05-24T08:45:05Z</time>
      </trkpt>
      <trkpt lat="48.93598" lon="2.09028">
        <ele>73.5</ele>
        <time>2022-05-24T08:45:09Z</time>
      </trkpt>
      <trkpt lat="48.93603" lon="2.09029">
        <ele>79.7</ele>
        <time>2022-05-24T08:45:13Z</time>
      </trkpt>
      <trkpt lat="48.93608" lon="2.0903">
        <ele>79.8</ele>
        <time>2022-05-24T08:45:17Z</time>
      </trkpt>
      <trkpt lat="48.93614" lon="2.09031">
        <ele>78</ele>
        <time>2022-05-24T08:45:21Z</time>
      </trkpt>
      <trkpt lat="48.93619" lon="2.09032">
        <ele>75.1</ele>
        <time>2022-05-24T08:45:25Z</time>
      </trkpt>
      <trkpt lat="48.93623" lon="2.09033">
        <ele>78.6</ele>
        <time>2022-05-24T08:45:29Z</time>
      </trkpt>
      <trkpt lat="48.93628" lon="2.09034">
        <ele>76.4</ele>
        <time>2022-05-24T08:45:33Z</time>
      </trkpt>
      <trkpt lat="48.93633" lon="2.09035">
        <ele>76.8</ele>
        <time>2022-05-24T08:45:37Z</time>
      </trkpt>
      <trkpt lat="48.93639" lon="2.09035">
        <ele>73.4</ele>
        <time>2022-05-24T08:45:40Z</time>
      </trkpt>
      <trkpt lat="48.93644" lon="2.09034">
        <ele>71.4</ele>
        <time>2022-05-24T08:45:44Z</time>
      </trkpt>
      <trkpt lat="48.93649" lon="2.09034">
        <ele>68.8</ele>
        <time>2022-05-24T08:45:49Z</time>
      </trkpt>
      <trkpt lat="48.93655" lon="2.09034">
        <ele>65.6</ele>
        <time>2022-05-24T08:45:55Z</time>
      </trkpt>
      <trkpt lat="48.9366" lon="2.09036">
        <ele>68.5</ele>
        <time>2022-05-24T08:45:59Z</time>
      </trkpt>
      <trkpt lat="48.93665" lon="2.0904">
        <ele>68.8</ele>
        <time>2022-05-24T08:46:03Z</time>
      </trkpt>
      <trkpt lat="48.9367" lon="2.09044">
        <ele>70.6</ele>
        <time>2022-05-24T08:46:05Z</time>
      </trkpt>
      <trkpt lat="48.93675" lon="2.09048">
        <ele>71.6</ele>
        <time>2022-05-24T08:46:09Z</time>
      </trkpt>
      <trkpt lat="48.9368" lon="2.09051">
        <ele>73.2</ele>
        <time>2022-05-24T08:46:13Z</time>
      </trkpt>
      <trkpt lat="48.93685" lon="2.09055">
        <ele>70.9</ele>
        <time>2022-05-24T08:46:17Z</time>
      </trkpt>
      <trkpt lat="48.9369" lon="2.09057">
        <ele>69.8</ele>
        <time>2022-05-24T08:46:21Z</time>
      </trkpt>
      <trkpt lat="48.93696" lon="2.09058">
        <ele>71.1</ele>
        <time>2022-05-24T08:46:24Z</time>
      </trkpt>
      <trkpt lat="48.93701" lon="2.09059">
        <ele>71.6</ele>
        <time>2022-05-24T08:46:28Z</time>
      </trkpt>
      <trkpt lat="48.93707" lon="2.09061">
        <ele>73</ele>
        <time>2022-05-24T08:46:31Z</time>
      </trkpt>
      <trkpt lat="48.93712" lon="2.09062">
        <ele>69.7</ele>
        <time>2022-05-24T08:46:34Z</time>
      </trkpt>
      <trkpt lat="48.93717" lon="2.09064">
        <ele>72.1</ele>
        <time>2022-05-24T08:46:38Z</time>
      </trkpt>
      <trkpt lat="48.93722" lon="2.09066">
        <ele>71.9</ele>
        <time>2022-05-24T08:46:42Z</time>
      </trkpt>
      <trkpt lat="48.93727" lon="2.09069">
        <ele>72.6</ele>
        <time>2022-05-24T08:46:46Z</time>
      </trkpt>
      <trkpt lat="48.93732" lon="2.09071">
        <ele>73.6</ele>
        <time>2022-05-24T08:46:49Z</time>
      </trkpt>
      <trkpt lat="48.93738" lon="2.09072">
        <ele>75.6</ele>
        <time>2022-05-24T08:46:53Z</time>
      </trkpt>
      <trkpt lat="48.93742" lon="2.09075">
        <ele>76.4</ele>
        <time>2022-05-24T08:46:56Z</time>
      </trkpt>
      <trkpt lat="48.93747" lon="2.09076">
        <ele>75</ele>
        <time>2022-05-24T08:46:59Z</time>
      </trkpt>
      <trkpt lat="48.93752" lon="2.09077">
        <ele>74.8</ele>
        <time>2022-05-24T08:47:03Z</time>
      </trkpt>
      <trkpt lat="48.93758" lon="2.09078">
        <ele>73</ele>
        <time>2022-05-24T08:47:07Z</time>
      </trkpt>
      <trkpt lat="48.93771" lon="2.09076">
        <ele>76.2</ele>
        <time>2022-05-24T08:47:15Z</time>
      </trkpt>
      <trkpt lat="48.93776" lon="2.09079">
        <ele>75.8</ele>
        <time>2022-05-24T08:47:18Z</time>
      </trkpt>
      <trkpt lat="48.9378" lon="2.09082">
        <ele>75.8</ele>
        <time>2022-05-24T08:47:22Z</time>
      </trkpt>
      <trkpt lat="48.93785" lon="2.09084">
        <ele>75.7</ele>
        <time>2022-05-24T08:47:26Z</time>
      </trkpt>
      <trkpt lat="48.9379" lon="2.09086">
        <ele>75.7</ele>
        <time>2022-05-24T08:47:30Z</time>
      </trkpt>
      <trkpt lat="48.93794" lon="2.09089">
        <ele>73.7</ele>
        <time>2022-05-24T08:47:34Z</time>
      </trkpt>
      <trkpt lat="48.93798" lon="2.09091">
        <ele>71.9</ele>
        <time>2022-05-24T08:47:38Z</time>
      </trkpt>
      <trkpt lat="48.93804" lon="2.09092">
        <ele>68.1</ele>
        <time>2022-05-24T08:47:43Z</time>
      </trkpt>
      <trkpt lat="48.93808" lon="2.09094">
        <ele>65.9</ele>
        <time>2022-05-24T08:47:48Z</time>
      </trkpt>
      <trkpt lat="48.93813" lon="2.09095">
        <ele>67.3</ele>
        <time>2022-05-24T08:47:52Z</time>
      </trkpt>
      <trkpt lat="48.93818" lon="2.09097">
        <ele>67.4</ele>
        <time>2022-05-24T08:47:57Z</time>
      </trkpt>
      <trkpt lat="48.93823" lon="2.09099">
        <ele>66.9</ele>
        <time>2022-05-24T08:48:01Z</time>
      </trkpt>
      <trkpt lat="48.93828" lon="2.091">
        <ele>66</ele>
        <time>2022-05-24T08:48:06Z</time>
      </trkpt>
      <trkpt lat="48.93833" lon="2.09103">
        <ele>68.1</ele>
        <time>2022-05-24T08:48:09Z</time>
      </trkpt>
      <trkpt lat="48.93838" lon="2.09105">
        <ele>67.6</ele>
        <time>2022-05-24T08:48:13Z</time>
      </trkpt>
      <trkpt lat="48.93842" lon="2.09106">
        <ele>67.6</ele>
        <time>2022-05-24T08:48:16Z</time>
      </trkpt>
      <trkpt lat="48.93847" lon="2.09106">
        <ele>65.8</ele>
        <time>2022-05-24T08:48:20Z</time>
      </trkpt>
      <trkpt lat="48.93852" lon="2.09107">
        <ele>66.5</ele>
        <time>2022-05-24T08:48:23Z</time>
      </trkpt>
      <trkpt lat="48.93857" lon="2.0911">
        <ele>67.6</ele>
        <time>2022-05-24T08:48:27Z</time>
      </trkpt>
      <trkpt lat="48.93863" lon="2.09112">
        <ele>65.5</ele>
        <time>2022-05-24T08:48:31Z</time>
      </trkpt>
      <trkpt lat="48.93868" lon="2.09113">
        <ele>62.3</ele>
        <time>2022-05-24T08:48:35Z</time>
      </trkpt>
      <trkpt lat="48.93873" lon="2.09113">
        <ele>62.6</ele>
        <time>2022-05-24T08:48:39Z</time>
      </trkpt>
      <trkpt lat="48.93878" lon="2.09115">
        <ele>62.5</ele>
        <time>2022-05-24T08:48:42Z</time>
      </trkpt>
      <trkpt lat="48.93884" lon="2.09117">
        <ele>63.3</ele>
        <time>2022-05-24T08:48:47Z</time>
      </trkpt>
      <trkpt lat="48.93889" lon="2.09118">
        <ele>61.6</ele>
        <time>2022-05-24T08:48:50Z</time>
      </trkpt>
      <trkpt lat="48.93894" lon="2.09118">
        <ele>61.6</ele>
        <time>2022-05-24T08:48:54Z</time>
      </trkpt>
      <trkpt lat="48.93899" lon="2.09118">
        <ele>60.3</ele>
        <time>2022-05-24T08:48:59Z</time>
      </trkpt>
      <trkpt lat="48.93904" lon="2.0912">
        <ele>62.5</ele>
        <time>2022-05-24T08:49:03Z</time>
      </trkpt>
      <trkpt lat="48.93908" lon="2.09122">
        <ele>63.3</ele>
        <time>2022-05-24T08:49:07Z</time>
      </trkpt>
      <trkpt lat="48.93914" lon="2.09124">
        <ele>62.1</ele>
        <time>2022-05-24T08:49:12Z</time>
      </trkpt>
      <trkpt lat="48.93919" lon="2.09127">
        <ele>61.5</ele>
        <time>2022-05-24T08:49:16Z</time>
      </trkpt>
      <trkpt lat="48.93924" lon="2.09129">
        <ele>62.3</ele>
        <time>2022-05-24T08:49:20Z</time>
      </trkpt>
      <trkpt lat="48.93929" lon="2.0913">
        <ele>62.8</ele>
        <time>2022-05-24T08:49:25Z</time>
      </trkpt>
      <trkpt lat="48.93935" lon="2.0913">
        <ele>63.2</ele>
        <time>2022-05-24T08:49:29Z</time>
      </trkpt>
      <trkpt lat="48.93939" lon="2.09134">
        <ele>65.2</ele>
        <time>2022-05-24T08:49:33Z</time>
      </trkpt>
      <trkpt lat="48.93943" lon="2.09133">
        <ele>64.6</ele>
        <time>2022-05-24T08:49:39Z</time>
      </trkpt>
      <trkpt lat="48.93939" lon="2.09134">
        <ele>57.5</ele>
        <time>2022-05-24T08:49:50Z</time>
      </trkpt>
      <trkpt lat="48.93934" lon="2.09134">
        <ele>57.6</ele>
        <time>2022-05-24T08:49:56Z</time>
      </trkpt>
      <trkpt lat="48.93938" lon="2.0913">
        <ele>55.7</ele>
        <time>2022-05-24T08:50:37Z</time>
      </trkpt>
      <trkpt lat="48.93942" lon="2.09136">
        <ele>57.2</ele>
        <time>2022-05-24T08:50:40Z</time>
      </trkpt>
      <trkpt lat="48.93948" lon="2.09136">
        <ele>58.3</ele>
        <time>2022-05-24T08:50:44Z</time>
      </trkpt>
      <trkpt lat="48.93952" lon="2.09139">
        <ele>56</ele>
        <time>2022-05-24T08:50:48Z</time>
      </trkpt>
      <trkpt lat="48.93957" lon="2.09139">
        <ele>56.4</ele>
        <time>2022-05-24T08:50:53Z</time>
      </trkpt>
      <trkpt lat="48.93962" lon="2.09137">
        <ele>56.2</ele>
        <time>2022-05-24T08:50:57Z</time>
      </trkpt>
      <trkpt lat="48.93968" lon="2.09137">
        <ele>53.2</ele>
        <time>2022-05-24T08:51:02Z</time>
      </trkpt>
      <trkpt lat="48.93974" lon="2.09138">
        <ele>54.4</ele>
        <time>2022-05-24T08:51:06Z</time>
      </trkpt>
      <trkpt lat="48.93978" lon="2.09142">
        <ele>55.2</ele>
        <time>2022-05-24T08:51:11Z</time>
      </trkpt>
      <trkpt lat="48.93983" lon="2.09145">
        <ele>55.1</ele>
        <time>2022-05-24T08:51:16Z</time>
      </trkpt>
      <trkpt lat="48.93987" lon="2.09148">
        <ele>54.6</ele>
        <time>2022-05-24T08:51:20Z</time>
      </trkpt>
      <trkpt lat="48.93992" lon="2.09151">
        <ele>56</ele>
        <time>2022-05-24T08:51:24Z</time>
      </trkpt>
      <trkpt lat="48.93996" lon="2.09154">
        <ele>54.9</ele>
        <time>2022-05-24T08:51:29Z</time>
      </trkpt>
      <trkpt lat="48.94001" lon="2.09156">
        <ele>55.3</ele>
        <time>2022-05-24T08:51:34Z</time>
      </trkpt>
      <trkpt lat="48.94008" lon="2.09156">
        <ele>56.3</ele>
        <time>2022-05-24T08:51:39Z</time>
      </trkpt>
      <trkpt lat="48.94014" lon="2.09157">
        <ele>55.4</ele>
        <time>2022-05-24T08:51:43Z</time>
      </trkpt>
      <trkpt lat="48.94018" lon="2.09156">
        <ele>57.2</ele>
        <time>2022-05-24T08:51:46Z</time>
      </trkpt>
      <trkpt lat="48.94023" lon="2.09155">
        <ele>61.9</ele>
        <time>2022-05-24T08:51:50Z</time>
      </trkpt>
      <trkpt lat="48.9403" lon="2.09156">
        <ele>64.2</ele>
        <time>2022-05-24T08:51:55Z</time>
      </trkpt>
      <trkpt lat="48.94034" lon="2.09157">
        <ele>62.8</ele>
        <time>2022-05-24T08:51:58Z</time>
      </trkpt>
      <trkpt lat="48.94039" lon="2.09159">
        <ele>66.4</ele>
        <time>2022-05-24T08:52:01Z</time>
      </trkpt>
      <trkpt lat="48.94044" lon="2.09161">
        <ele>67.2</ele>
        <time>2022-05-24T08:52:04Z</time>
      </trkpt>
      <trkpt lat="48.94049" lon="2.09162">
        <ele>65.8</ele>
        <time>2022-05-24T08:52:08Z</time>
      </trkpt>
      <trkpt lat="48.94054" lon="2.09165">
        <ele>64</ele>
        <time>2022-05-24T08:52:12Z</time>
      </trkpt>
      <trkpt lat="48.94058" lon="2.09167">
        <ele>64.5</ele>
        <time>2022-05-24T08:52:16Z</time>
      </trkpt>
      <trkpt lat="48.94063" lon="2.09169">
        <ele>65.2</ele>
        <time>2022-05-24T08:52:20Z</time>
      </trkpt>
      <trkpt lat="48.94068" lon="2.0917">
        <ele>58.9</ele>
        <time>2022-05-24T08:52:24Z</time>
      </trkpt>
      <trkpt lat="48.94073" lon="2.09171">
        <ele>62.1</ele>
        <time>2022-05-24T08:52:28Z</time>
      </trkpt>
      <trkpt lat="48.94078" lon="2.09172">
        <ele>64</ele>
        <time>2022-05-24T08:52:32Z</time>
      </trkpt>
      <trkpt lat="48.94083" lon="2.09174">
        <ele>64.6</ele>
        <time>2022-05-24T08:52:36Z</time>
      </trkpt>
      <trkpt lat="48.94088" lon="2.09176">
        <ele>66.5</ele>
        <time>2022-05-24T08:52:39Z</time>
      </trkpt>
      <trkpt lat="48.94092" lon="2.09177">
        <ele>67.8</ele>
        <time>2022-05-24T08:52:42Z</time>
      </trkpt>
      <trkpt lat="48.94098" lon="2.0918">
        <ele>67.2</ele>
        <time>2022-05-24T08:52:47Z</time>
      </trkpt>
      <trkpt lat="48.94103" lon="2.09182">
        <ele>66.4</ele>
        <time>2022-05-24T08:52:51Z</time>
      </trkpt>
      <trkpt lat="48.94107" lon="2.09184">
        <ele>67.6</ele>
        <time>2022-05-24T08:52:54Z</time>
      </trkpt>
      <trkpt lat="48.94112" lon="2.09187">
        <ele>68.5</ele>
        <time>2022-05-24T08:52:58Z</time>
      </trkpt>
      <trkpt lat="48.94117" lon="2.09188">
        <ele>68.2</ele>
        <time>2022-05-24T08:53:01Z</time>
      </trkpt>
      <trkpt lat="48.94123" lon="2.0919">
        <ele>68.8</ele>
        <time>2022-05-24T08:53:06Z</time>
      </trkpt>
      <trkpt lat="48.94128" lon="2.09191">
        <ele>66.9</ele>
        <time>2022-05-24T08:53:09Z</time>
      </trkpt>
      <trkpt lat="48.94134" lon="2.0919">
        <ele>67</ele>
        <time>2022-05-24T08:53:13Z</time>
      </trkpt>
      <trkpt lat="48.94139" lon="2.09191">
        <ele>68.8</ele>
        <time>2022-05-24T08:53:17Z</time>
      </trkpt>
      <trkpt lat="48.94144" lon="2.09194">
        <ele>67.1</ele>
        <time>2022-05-24T08:53:21Z</time>
      </trkpt>
      <trkpt lat="48.94149" lon="2.09196">
        <ele>63.3</ele>
        <time>2022-05-24T08:53:25Z</time>
      </trkpt>
      <trkpt lat="48.94154" lon="2.09197">
        <ele>61.6</ele>
        <time>2022-05-24T08:53:30Z</time>
      </trkpt>
      <trkpt lat="48.94159" lon="2.09197">
        <ele>62.9</ele>
        <time>2022-05-24T08:53:34Z</time>
      </trkpt>
      <trkpt lat="48.94164" lon="2.09196">
        <ele>63.3</ele>
        <time>2022-05-24T08:53:38Z</time>
      </trkpt>
      <trkpt lat="48.94169" lon="2.09198">
        <ele>63.3</ele>
        <time>2022-05-24T08:53:42Z</time>
      </trkpt>
      <trkpt lat="48.94174" lon="2.092">
        <ele>61.7</ele>
        <time>2022-05-24T08:53:46Z</time>
      </trkpt>
      <trkpt lat="48.94178" lon="2.09202">
        <ele>60.4</ele>
        <time>2022-05-24T08:53:48Z</time>
      </trkpt>
      <trkpt lat="48.94184" lon="2.09205">
        <ele>61.3</ele>
        <time>2022-05-24T08:53:53Z</time>
      </trkpt>
      <trkpt lat="48.94188" lon="2.09207">
        <ele>59.7</ele>
        <time>2022-05-24T08:53:56Z</time>
      </trkpt>
      <trkpt lat="48.94194" lon="2.09208">
        <ele>57.4</ele>
        <time>2022-05-24T08:54:00Z</time>
      </trkpt>
      <trkpt lat="48.94199" lon="2.09209">
        <ele>57.4</ele>
        <time>2022-05-24T08:54:04Z</time>
      </trkpt>
      <trkpt lat="48.94204" lon="2.0921">
        <ele>56.2</ele>
        <time>2022-05-24T08:54:08Z</time>
      </trkpt>
      <trkpt lat="48.9421" lon="2.09211">
        <ele>55.6</ele>
        <time>2022-05-24T08:54:12Z</time>
      </trkpt>
      <trkpt lat="48.94215" lon="2.09213">
        <ele>58.2</ele>
        <time>2022-05-24T08:54:15Z</time>
      </trkpt>
      <trkpt lat="48.9422" lon="2.09214">
        <ele>57</ele>
        <time>2022-05-24T08:54:19Z</time>
      </trkpt>
      <trkpt lat="48.94226" lon="2.09214">
        <ele>58.1</ele>
        <time>2022-05-24T08:54:23Z</time>
      </trkpt>
      <trkpt lat="48.94231" lon="2.09215">
        <ele>57.7</ele>
        <time>2022-05-24T08:54:27Z</time>
      </trkpt>
      <trkpt lat="48.94236" lon="2.09216">
        <ele>57.7</ele>
        <time>2022-05-24T08:54:31Z</time>
      </trkpt>
      <trkpt lat="48.94242" lon="2.09218">
        <ele>60.1</ele>
        <time>2022-05-24T08:54:34Z</time>
      </trkpt>
      <trkpt lat="48.94247" lon="2.0922">
        <ele>60.3</ele>
        <time>2022-05-24T08:54:38Z</time>
      </trkpt>
      <trkpt lat="48.94252" lon="2.09222">
        <ele>59.8</ele>
        <time>2022-05-24T08:54:41Z</time>
      </trkpt>
      <trkpt lat="48.94257" lon="2.09224">
        <ele>58.5</ele>
        <time>2022-05-24T08:54:45Z</time>
      </trkpt>
      <trkpt lat="48.94262" lon="2.09224">
        <ele>58.4</ele>
        <time>2022-05-24T08:54:49Z</time>
      </trkpt>
      <trkpt lat="48.94268" lon="2.09225">
        <ele>58</ele>
        <time>2022-05-24T08:54:53Z</time>
      </trkpt>
      <trkpt lat="48.94273" lon="2.09225">
        <ele>58.5</ele>
        <time>2022-05-24T08:54:56Z</time>
      </trkpt>
      <trkpt lat="48.94278" lon="2.09226">
        <ele>60.2</ele>
        <time>2022-05-24T08:55:00Z</time>
      </trkpt>
      <trkpt lat="48.94283" lon="2.09227">
        <ele>62.8</ele>
        <time>2022-05-24T08:55:04Z</time>
      </trkpt>
      <trkpt lat="48.94288" lon="2.09229">
        <ele>61.1</ele>
        <time>2022-05-24T08:55:08Z</time>
      </trkpt>
      <trkpt lat="48.94304" lon="2.09234">
        <ele>61</ele>
        <time>2022-05-24T08:55:20Z</time>
      </trkpt>
      <trkpt lat="48.94309" lon="2.09236">
        <ele>62.1</ele>
        <time>2022-05-24T08:55:24Z</time>
      </trkpt>
      <trkpt lat="48.94314" lon="2.09238">
        <ele>63.9</ele>
        <time>2022-05-24T08:55:27Z</time>
      </trkpt>
      <trkpt lat="48.94321" lon="2.0924">
        <ele>61.4</ele>
        <time>2022-05-24T08:55:32Z</time>
      </trkpt>
      <trkpt lat="48.94326" lon="2.09241">
        <ele>62.1</ele>
        <time>2022-05-24T08:55:35Z</time>
      </trkpt>
      <trkpt lat="48.94331" lon="2.09243">
        <ele>63.2</ele>
        <time>2022-05-24T08:55:39Z</time>
      </trkpt>
      <trkpt lat="48.94342" lon="2.09244">
        <ele>58.8</ele>
        <time>2022-05-24T08:55:46Z</time>
      </trkpt>
      <trkpt lat="48.94352" lon="2.09246">
        <ele>62.1</ele>
        <time>2022-05-24T08:55:54Z</time>
      </trkpt>
      <trkpt lat="48.94357" lon="2.09248">
        <ele>60.8</ele>
        <time>2022-05-24T08:55:57Z</time>
      </trkpt>
      <trkpt lat="48.94362" lon="2.0925">
        <ele>60.8</ele>
        <time>2022-05-24T08:56:01Z</time>
      </trkpt>
      <trkpt lat="48.94368" lon="2.09251">
        <ele>60.4</ele>
        <time>2022-05-24T08:56:05Z</time>
      </trkpt>
      <trkpt lat="48.94373" lon="2.09253">
        <ele>61.4</ele>
        <time>2022-05-24T08:56:08Z</time>
      </trkpt>
      <trkpt lat="48.94379" lon="2.09256">
        <ele>63.2</ele>
        <time>2022-05-24T08:56:13Z</time>
      </trkpt>
      <trkpt lat="48.94383" lon="2.09258">
        <ele>62.9</ele>
        <time>2022-05-24T08:56:16Z</time>
      </trkpt>
      <trkpt lat="48.94389" lon="2.0926">
        <ele>62.8</ele>
        <time>2022-05-24T08:56:20Z</time>
      </trkpt>
      <trkpt lat="48.94394" lon="2.09262">
        <ele>65.4</ele>
        <time>2022-05-24T08:56:26Z</time>
      </trkpt>
      <trkpt lat="48.944" lon="2.09264">
        <ele>67.5</ele>
        <time>2022-05-24T08:56:30Z</time>
      </trkpt>
      <trkpt lat="48.94406" lon="2.09265">
        <ele>67</ele>
        <time>2022-05-24T08:56:33Z</time>
      </trkpt>
      <trkpt lat="48.94411" lon="2.09268">
        <ele>68</ele>
        <time>2022-05-24T08:56:38Z</time>
      </trkpt>
      <trkpt lat="48.94416" lon="2.09271">
        <ele>67.7</ele>
        <time>2022-05-24T08:56:41Z</time>
      </trkpt>
      <trkpt lat="48.94426" lon="2.09271">
        <ele>66</ele>
        <time>2022-05-24T08:56:49Z</time>
      </trkpt>
      <trkpt lat="48.94431" lon="2.09272">
        <ele>67.2</ele>
        <time>2022-05-24T08:56:52Z</time>
      </trkpt>
      <trkpt lat="48.94436" lon="2.09274">
        <ele>65.8</ele>
        <time>2022-05-24T08:56:55Z</time>
      </trkpt>
      <trkpt lat="48.94442" lon="2.09276">
        <ele>64.6</ele>
        <time>2022-05-24T08:57:00Z</time>
      </trkpt>
      <trkpt lat="48.94448" lon="2.09278">
        <ele>64.1</ele>
        <time>2022-05-24T08:57:04Z</time>
      </trkpt>
      <trkpt lat="48.94453" lon="2.09279">
        <ele>63.4</ele>
        <time>2022-05-24T08:57:08Z</time>
      </trkpt>
      <trkpt lat="48.9446" lon="2.09282">
        <ele>63.9</ele>
        <time>2022-05-24T08:57:13Z</time>
      </trkpt>
      <trkpt lat="48.94465" lon="2.09284">
        <ele>62.2</ele>
        <time>2022-05-24T08:57:17Z</time>
      </trkpt>
      <trkpt lat="48.9447" lon="2.09286">
        <ele>62.7</ele>
        <time>2022-05-24T08:57:20Z</time>
      </trkpt>
      <trkpt lat="48.94475" lon="2.09287">
        <ele>62.7</ele>
        <time>2022-05-24T08:57:24Z</time>
      </trkpt>
      <trkpt lat="48.9448" lon="2.0929">
        <ele>63.1</ele>
        <time>2022-05-24T08:57:27Z</time>
      </trkpt>
      <trkpt lat="48.94484" lon="2.09291">
        <ele>61.9</ele>
        <time>2022-05-24T08:57:31Z</time>
      </trkpt>
      <trkpt lat="48.94489" lon="2.09292">
        <ele>63.4</ele>
        <time>2022-05-24T08:57:34Z</time>
      </trkpt>
      <trkpt lat="48.94494" lon="2.09293">
        <ele>63</ele>
        <time>2022-05-24T08:57:38Z</time>
      </trkpt>
      <trkpt lat="48.94499" lon="2.09294">
        <ele>62.3</ele>
        <time>2022-05-24T08:57:42Z</time>
      </trkpt>
      <trkpt lat="48.94504" lon="2.09294">
        <ele>64</ele>
        <time>2022-05-24T08:57:46Z</time>
      </trkpt>
      <trkpt lat="48.94509" lon="2.09296">
        <ele>63</ele>
        <time>2022-05-24T08:57:49Z</time>
      </trkpt>
      <trkpt lat="48.94515" lon="2.09298">
        <ele>62.3</ele>
        <time>2022-05-24T08:57:54Z</time>
      </trkpt>
      <trkpt lat="48.9452" lon="2.09299">
        <ele>63.8</ele>
        <time>2022-05-24T08:57:58Z</time>
      </trkpt>
      <trkpt lat="48.94525" lon="2.093">
        <ele>64.4</ele>
        <time>2022-05-24T08:58:02Z</time>
      </trkpt>
      <trkpt lat="48.9453" lon="2.09301">
        <ele>65</ele>
        <time>2022-05-24T08:58:06Z</time>
      </trkpt>
      <trkpt lat="48.94536" lon="2.09302">
        <ele>61</ele>
        <time>2022-05-24T08:58:10Z</time>
      </trkpt>
      <trkpt lat="48.94541" lon="2.09302">
        <ele>60</ele>
        <time>2022-05-24T08:58:13Z</time>
      </trkpt>
      <trkpt lat="48.9455" lon="2.09302">
        <ele>57</ele>
        <time>2022-05-24T08:58:21Z</time>
      </trkpt>
      <trkpt lat="48.94555" lon="2.09303">
        <ele>58.8</ele>
        <time>2022-05-24T08:58:24Z</time>
      </trkpt>
      <trkpt lat="48.94559" lon="2.09306">
        <ele>58.4</ele>
        <time>2022-05-24T08:58:28Z</time>
      </trkpt>
      <trkpt lat="48.94564" lon="2.0931">
        <ele>58.3</ele>
        <time>2022-05-24T08:58:32Z</time>
      </trkpt>
      <trkpt lat="48.9457" lon="2.09313">
        <ele>57.7</ele>
        <time>2022-05-24T08:58:36Z</time>
      </trkpt>
      <trkpt lat="48.94575" lon="2.09314">
        <ele>61.1</ele>
        <time>2022-05-24T08:58:39Z</time>
      </trkpt>
      <trkpt lat="48.9458" lon="2.09317">
        <ele>59.2</ele>
        <time>2022-05-24T08:58:44Z</time>
      </trkpt>
      <trkpt lat="48.94586" lon="2.09319">
        <ele>57.9</ele>
        <time>2022-05-24T08:58:48Z</time>
      </trkpt>
      <trkpt lat="48.94591" lon="2.0932">
        <ele>58.1</ele>
        <time>2022-05-24T08:58:52Z</time>
      </trkpt>
      <trkpt lat="48.94596" lon="2.0932">
        <ele>59</ele>
        <time>2022-05-24T08:58:56Z</time>
      </trkpt>
      <trkpt lat="48.94601" lon="2.09321">
        <ele>59.2</ele>
        <time>2022-05-24T08:59:00Z</time>
      </trkpt>
      <trkpt lat="48.94608" lon="2.09323">
        <ele>58.6</ele>
        <time>2022-05-24T08:59:05Z</time>
      </trkpt>
      <trkpt lat="48.94613" lon="2.09326">
        <ele>60</ele>
        <time>2022-05-24T08:59:08Z</time>
      </trkpt>
      <trkpt lat="48.94618" lon="2.09328">
        <ele>61</ele>
        <time>2022-05-24T08:59:11Z</time>
      </trkpt>
      <trkpt lat="48.94622" lon="2.0933">
        <ele>59.5</ele>
        <time>2022-05-24T08:59:15Z</time>
      </trkpt>
      <trkpt lat="48.94627" lon="2.09332">
        <ele>58.9</ele>
        <time>2022-05-24T08:59:19Z</time>
      </trkpt>
      <trkpt lat="48.94632" lon="2.09334">
        <ele>59.2</ele>
        <time>2022-05-24T08:59:23Z</time>
      </trkpt>
      <trkpt lat="48.94637" lon="2.09334">
        <ele>59.3</ele>
        <time>2022-05-24T08:59:27Z</time>
      </trkpt>
      <trkpt lat="48.94642" lon="2.09335">
        <ele>59</ele>
        <time>2022-05-24T08:59:30Z</time>
      </trkpt>
      <trkpt lat="48.94647" lon="2.09336">
        <ele>58.9</ele>
        <time>2022-05-24T08:59:34Z</time>
      </trkpt>
      <trkpt lat="48.94652" lon="2.09337">
        <ele>60.6</ele>
        <time>2022-05-24T08:59:38Z</time>
      </trkpt>
      <trkpt lat="48.94657" lon="2.09338">
        <ele>60.9</ele>
        <time>2022-05-24T08:59:42Z</time>
      </trkpt>
      <trkpt lat="48.94662" lon="2.09339">
        <ele>60.1</ele>
        <time>2022-05-24T08:59:46Z</time>
      </trkpt>
      <trkpt lat="48.94667" lon="2.09341">
        <ele>60.2</ele>
        <time>2022-05-24T08:59:49Z</time>
      </trkpt>
      <trkpt lat="48.94672" lon="2.09343">
        <ele>58.9</ele>
        <time>2022-05-24T08:59:53Z</time>
      </trkpt>
      <trkpt lat="48.94676" lon="2.09344">
        <ele>59.2</ele>
        <time>2022-05-24T08:59:56Z</time>
      </trkpt>
      <trkpt lat="48.94682" lon="2.09346">
        <ele>59</ele>
        <time>2022-05-24T09:00:00Z</time>
      </trkpt>
      <trkpt lat="48.94687" lon="2.09348">
        <ele>62.6</ele>
        <time>2022-05-24T09:00:04Z</time>
      </trkpt>
      <trkpt lat="48.94692" lon="2.09349">
        <ele>61.1</ele>
        <time>2022-05-24T09:00:08Z</time>
      </trkpt>
      <trkpt lat="48.94696" lon="2.09351">
        <ele>61.8</ele>
        <time>2022-05-24T09:00:11Z</time>
      </trkpt>
      <trkpt lat="48.94701" lon="2.09352">
        <ele>62.8</ele>
        <time>2022-05-24T09:00:14Z</time>
      </trkpt>
      <trkpt lat="48.94707" lon="2.09354">
        <ele>61.6</ele>
        <time>2022-05-24T09:00:19Z</time>
      </trkpt>
      <trkpt lat="48.94711" lon="2.09354">
        <ele>61.3</ele>
        <time>2022-05-24T09:00:22Z</time>
      </trkpt>
      <trkpt lat="48.94716" lon="2.09354">
        <ele>62</ele>
        <time>2022-05-24T09:00:25Z</time>
      </trkpt>
      <trkpt lat="48.94721" lon="2.09355">
        <ele>62.7</ele>
        <time>2022-05-24T09:00:29Z</time>
      </trkpt>
      <trkpt lat="48.94726" lon="2.09356">
        <ele>60.4</ele>
        <time>2022-05-24T09:00:35Z</time>
      </trkpt>
      <trkpt lat="48.94731" lon="2.0936">
        <ele>57.9</ele>
        <time>2022-05-24T09:00:38Z</time>
      </trkpt>
      <trkpt lat="48.94736" lon="2.0936">
        <ele>55.3</ele>
        <time>2022-05-24T09:00:43Z</time>
      </trkpt>
      <trkpt lat="48.94741" lon="2.09358">
        <ele>55.1</ele>
        <time>2022-05-24T09:00:48Z</time>
      </trkpt>
      <trkpt lat="48.94746" lon="2.09355">
        <ele>56.2</ele>
        <time>2022-05-24T09:00:54Z</time>
      </trkpt>
      <trkpt lat="48.94748" lon="2.09349">
        <ele>55.4</ele>
        <time>2022-05-24T09:00:59Z</time>
      </trkpt>
      <trkpt lat="48.94751" lon="2.09343">
        <ele>56.6</ele>
        <time>2022-05-24T09:01:05Z</time>
      </trkpt>
      <trkpt lat="48.94755" lon="2.09339">
        <ele>55.5</ele>
        <time>2022-05-24T09:01:23Z</time>
      </trkpt>
      <trkpt lat="48.94759" lon="2.09335">
        <ele>54</ele>
        <time>2022-05-24T09:03:35Z</time>
      </trkpt>
      <trkpt lat="48.94761" lon="2.09328">
        <ele>54</ele>
        <time>2022-05-24T09:03:41Z</time>
      </trkpt>
      <trkpt lat="48.94761" lon="2.0932">
        <ele>54.2</ele>
        <time>2022-05-24T09:03:44Z</time>
      </trkpt>
      <trkpt lat="48.94763" lon="2.09311">
        <ele>54.4</ele>
        <time>2022-05-24T09:03:48Z</time>
      </trkpt>
      <trkpt lat="48.94763" lon="2.09303">
        <ele>53.3</ele>
        <time>2022-05-24T09:03:53Z</time>
      </trkpt>
      <trkpt lat="48.94764" lon="2.09295">
        <ele>51.4</ele>
        <time>2022-05-24T09:03:58Z</time>
      </trkpt>
      <trkpt lat="48.94768" lon="2.09289">
        <ele>51.9</ele>
        <time>2022-05-24T09:04:03Z</time>
      </trkpt>
      <trkpt lat="48.94771" lon="2.09283">
        <ele>54.6</ele>
        <time>2022-05-24T09:04:08Z</time>
      </trkpt>
      <trkpt lat="48.94773" lon="2.09276">
        <ele>57.1</ele>
        <time>2022-05-24T09:04:12Z</time>
      </trkpt>
      <trkpt lat="48.94775" lon="2.09268">
        <ele>59</ele>
        <time>2022-05-24T09:04:17Z</time>
      </trkpt>
      <trkpt lat="48.9478" lon="2.09263">
        <ele>60.5</ele>
        <time>2022-05-24T09:04:21Z</time>
      </trkpt>
      <trkpt lat="48.94784" lon="2.09261">
        <ele>60</ele>
        <time>2022-05-24T09:04:24Z</time>
      </trkpt>
      <trkpt lat="48.94789" lon="2.0926">
        <ele>58.7</ele>
        <time>2022-05-24T09:04:27Z</time>
      </trkpt>
      <trkpt lat="48.94794" lon="2.09258">
        <ele>55.9</ele>
        <time>2022-05-24T09:04:30Z</time>
      </trkpt>
      <trkpt lat="48.94797" lon="2.09253">
        <ele>54.4</ele>
        <time>2022-05-24T09:04:34Z</time>
      </trkpt>
      <trkpt lat="48.94799" lon="2.09247">
        <ele>52.8</ele>
        <time>2022-05-24T09:04:38Z</time>
      </trkpt>
      <trkpt lat="48.94801" lon="2.0924">
        <ele>52.1</ele>
        <time>2022-05-24T09:04:42Z</time>
      </trkpt>
      <trkpt lat="48.94803" lon="2.09232">
        <ele>51</ele>
        <time>2022-05-24T09:04:47Z</time>
      </trkpt>
      <trkpt lat="48.94804" lon="2.09223">
        <ele>52</ele>
        <time>2022-05-24T09:04:51Z</time>
      </trkpt>
      <trkpt lat="48.94805" lon="2.09215">
        <ele>52</ele>
        <time>2022-05-24T09:04:55Z</time>
      </trkpt>
      <trkpt lat="48.94806" lon="2.09207">
        <ele>50.7</ele>
        <time>2022-05-24T09:04:59Z</time>
      </trkpt>
      <trkpt lat="48.94808" lon="2.09199">
        <ele>51</ele>
        <time>2022-05-24T09:05:03Z</time>
      </trkpt>
      <trkpt lat="48.9481" lon="2.0919">
        <ele>49.9</ele>
        <time>2022-05-24T09:05:08Z</time>
      </trkpt>
      <trkpt lat="48.94812" lon="2.09183">
        <ele>51.1</ele>
        <time>2022-05-24T09:05:12Z</time>
      </trkpt>
      <trkpt lat="48.94815" lon="2.09176">
        <ele>51.2</ele>
        <time>2022-05-24T09:05:16Z</time>
      </trkpt>
      <trkpt lat="48.94818" lon="2.09168">
        <ele>50.2</ele>
        <time>2022-05-24T09:05:21Z</time>
      </trkpt>
      <trkpt lat="48.94821" lon="2.09161">
        <ele>50.6</ele>
        <time>2022-05-24T09:05:25Z</time>
      </trkpt>
      <trkpt lat="48.94824" lon="2.09155">
        <ele>50.6</ele>
        <time>2022-05-24T09:05:29Z</time>
      </trkpt>
      <trkpt lat="48.94826" lon="2.09148">
        <ele>52.2</ele>
        <time>2022-05-24T09:05:33Z</time>
      </trkpt>
      <trkpt lat="48.94829" lon="2.0914">
        <ele>52.8</ele>
        <time>2022-05-24T09:05:37Z</time>
      </trkpt>
      <trkpt lat="48.94831" lon="2.09133">
        <ele>53.2</ele>
        <time>2022-05-24T09:05:41Z</time>
      </trkpt>
      <trkpt lat="48.94833" lon="2.09126">
        <ele>54.3</ele>
        <time>2022-05-24T09:05:45Z</time>
      </trkpt>
      <trkpt lat="48.94836" lon="2.0912">
        <ele>53.6</ele>
        <time>2022-05-24T09:05:49Z</time>
      </trkpt>
      <trkpt lat="48.94838" lon="2.09114">
        <ele>53.2</ele>
        <time>2022-05-24T09:05:52Z</time>
      </trkpt>
      <trkpt lat="48.94841" lon="2.09108">
        <ele>52.4</ele>
        <time>2022-05-24T09:05:56Z</time>
      </trkpt>
      <trkpt lat="48.94844" lon="2.09103">
        <ele>52.6</ele>
        <time>2022-05-24T09:05:59Z</time>
      </trkpt>
      <trkpt lat="48.94847" lon="2.09095">
        <ele>53.1</ele>
        <time>2022-05-24T09:06:03Z</time>
      </trkpt>
      <trkpt lat="48.94849" lon="2.09089">
        <ele>53</ele>
        <time>2022-05-24T09:06:06Z</time>
      </trkpt>
      <trkpt lat="48.94851" lon="2.09082">
        <ele>51.4</ele>
        <time>2022-05-24T09:06:10Z</time>
      </trkpt>
      <trkpt lat="48.94853" lon="2.09075">
        <ele>50.6</ele>
        <time>2022-05-24T09:06:14Z</time>
      </trkpt>
      <trkpt lat="48.94856" lon="2.09069">
        <ele>52.1</ele>
        <time>2022-05-24T09:06:18Z</time>
      </trkpt>
      <trkpt lat="48.94859" lon="2.09062">
        <ele>53.2</ele>
        <time>2022-05-24T09:06:22Z</time>
      </trkpt>
      <trkpt lat="48.94861" lon="2.09055">
        <ele>54.2</ele>
        <time>2022-05-24T09:06:26Z</time>
      </trkpt>
      <trkpt lat="48.94863" lon="2.09048">
        <ele>55.5</ele>
        <time>2022-05-24T09:06:30Z</time>
      </trkpt>
      <trkpt lat="48.94866" lon="2.09041">
        <ele>54.7</ele>
        <time>2022-05-24T09:06:34Z</time>
      </trkpt>
      <trkpt lat="48.94868" lon="2.09033">
        <ele>56.7</ele>
        <time>2022-05-24T09:06:38Z</time>
      </trkpt>
      <trkpt lat="48.94871" lon="2.09025">
        <ele>57.8</ele>
        <time>2022-05-24T09:06:42Z</time>
      </trkpt>
      <trkpt lat="48.94873" lon="2.09019">
        <ele>59.9</ele>
        <time>2022-05-24T09:06:46Z</time>
      </trkpt>
      <trkpt lat="48.94872" lon="2.09012">
        <ele>56.7</ele>
        <time>2022-05-24T09:06:50Z</time>
      </trkpt>
      <trkpt lat="48.94874" lon="2.09004">
        <ele>55.8</ele>
        <time>2022-05-24T09:06:54Z</time>
      </trkpt>
      <trkpt lat="48.94878" lon="2.08999">
        <ele>54.9</ele>
        <time>2022-05-24T09:06:59Z</time>
      </trkpt>
      <trkpt lat="48.94881" lon="2.08994">
        <ele>56</ele>
        <time>2022-05-24T09:07:04Z</time>
      </trkpt>
      <trkpt lat="48.94881" lon="2.08987">
        <ele>55.5</ele>
        <time>2022-05-24T09:07:09Z</time>
      </trkpt>
      <trkpt lat="48.94883" lon="2.08981">
        <ele>56.5</ele>
        <time>2022-05-24T09:07:14Z</time>
      </trkpt>
      <trkpt lat="48.94886" lon="2.08989">
        <ele>53.5</ele>
        <time>2022-05-24T09:07:27Z</time>
      </trkpt>
      <trkpt lat="48.94881" lon="2.08988">
        <ele>52.6</ele>
        <time>2022-05-24T09:08:56Z</time>
      </trkpt>
      <trkpt lat="48.94878" lon="2.08981">
        <ele>53.4</ele>
        <time>2022-05-24T09:09:01Z</time>
      </trkpt>
      <trkpt lat="48.94876" lon="2.08973">
        <ele>54.8</ele>
        <time>2022-05-24T09:09:05Z</time>
      </trkpt>
      <trkpt lat="48.94876" lon="2.08966">
        <ele>54.2</ele>
        <time>2022-05-24T09:09:09Z</time>
      </trkpt>
      <trkpt lat="48.94877" lon="2.08959">
        <ele>55.2</ele>
        <time>2022-05-24T09:09:12Z</time>
      </trkpt>
      <trkpt lat="48.9488" lon="2.08952">
        <ele>53.7</ele>
        <time>2022-05-24T09:09:16Z</time>
      </trkpt>
      <trkpt lat="48.9488" lon="2.08944">
        <ele>54.3</ele>
        <time>2022-05-24T09:09:22Z</time>
      </trkpt>
      <trkpt lat="48.94876" lon="2.08938">
        <ele>53.6</ele>
        <time>2022-05-24T09:09:26Z</time>
      </trkpt>
      <trkpt lat="48.94874" lon="2.08931">
        <ele>54.2</ele>
        <time>2022-05-24T09:09:30Z</time>
      </trkpt>
      <trkpt lat="48.94872" lon="2.08924">
        <ele>56.7</ele>
        <time>2022-05-24T09:09:34Z</time>
      </trkpt>
      <trkpt lat="48.94871" lon="2.08916">
        <ele>57.8</ele>
        <time>2022-05-24T09:09:38Z</time>
      </trkpt>
      <trkpt lat="48.9487" lon="2.08909">
        <ele>57.2</ele>
        <time>2022-05-24T09:09:41Z</time>
      </trkpt>
      <trkpt lat="48.94869" lon="2.08902">
        <ele>57.3</ele>
        <time>2022-05-24T09:09:45Z</time>
      </trkpt>
      <trkpt lat="48.9487" lon="2.08893">
        <ele>57.8</ele>
        <time>2022-05-24T09:09:49Z</time>
      </trkpt>
      <trkpt lat="48.94869" lon="2.08885">
        <ele>58.7</ele>
        <time>2022-05-24T09:09:53Z</time>
      </trkpt>
      <trkpt lat="48.94868" lon="2.08876">
        <ele>58.2</ele>
        <time>2022-05-24T09:09:58Z</time>
      </trkpt>
      <trkpt lat="48.94867" lon="2.08867">
        <ele>61.1</ele>
        <time>2022-05-24T09:10:02Z</time>
      </trkpt>
      <trkpt lat="48.94865" lon="2.08859">
        <ele>60.3</ele>
        <time>2022-05-24T09:10:07Z</time>
      </trkpt>
      <trkpt lat="48.94865" lon="2.0885">
        <ele>58</ele>
        <time>2022-05-24T09:10:11Z</time>
      </trkpt>
      <trkpt lat="48.94864" lon="2.08841">
        <ele>57.2</ele>
        <time>2022-05-24T09:10:16Z</time>
      </trkpt>
      <trkpt lat="48.94863" lon="2.08833">
        <ele>57.5</ele>
        <time>2022-05-24T09:10:21Z</time>
      </trkpt>
      <trkpt lat="48.94862" lon="2.08824">
        <ele>58.2</ele>
        <time>2022-05-24T09:10:25Z</time>
      </trkpt>
      <trkpt lat="48.94861" lon="2.08817">
        <ele>58.7</ele>
        <time>2022-05-24T09:10:28Z</time>
      </trkpt>
      <trkpt lat="48.9486" lon="2.08811">
        <ele>57.2</ele>
        <time>2022-05-24T09:10:32Z</time>
      </trkpt>
      <trkpt lat="48.94858" lon="2.08803">
        <ele>57</ele>
        <time>2022-05-24T09:10:36Z</time>
      </trkpt>
      <trkpt lat="48.94857" lon="2.08795">
        <ele>57.1</ele>
        <time>2022-05-24T09:10:40Z</time>
      </trkpt>
      <trkpt lat="48.94856" lon="2.08787">
        <ele>57.7</ele>
        <time>2022-05-24T09:10:44Z</time>
      </trkpt>
      <trkpt lat="48.94855" lon="2.08779">
        <ele>59.1</ele>
        <time>2022-05-24T09:10:48Z</time>
      </trkpt>
      <trkpt lat="48.94853" lon="2.08773">
        <ele>57.1</ele>
        <time>2022-05-24T09:10:52Z</time>
      </trkpt>
      <trkpt lat="48.94851" lon="2.08766">
        <ele>58.5</ele>
        <time>2022-05-24T09:10:55Z</time>
      </trkpt>
      <trkpt lat="48.94849" lon="2.08757">
        <ele>56.1</ele>
        <time>2022-05-24T09:11:00Z</time>
      </trkpt>
      <trkpt lat="48.94847" lon="2.08751">
        <ele>54.6</ele>
        <time>2022-05-24T09:11:03Z</time>
      </trkpt>
      <trkpt lat="48.94845" lon="2.08745">
        <ele>54.9</ele>
        <time>2022-05-24T09:11:06Z</time>
      </trkpt>
      <trkpt lat="48.94843" lon="2.08736">
        <ele>55</ele>
        <time>2022-05-24T09:11:11Z</time>
      </trkpt>
      <trkpt lat="48.94843" lon="2.08729">
        <ele>56.3</ele>
        <time>2022-05-24T09:11:14Z</time>
      </trkpt>
      <trkpt lat="48.94843" lon="2.08722">
        <ele>54.4</ele>
        <time>2022-05-24T09:11:18Z</time>
      </trkpt>
      <trkpt lat="48.94843" lon="2.08715">
        <ele>54.9</ele>
        <time>2022-05-24T09:11:21Z</time>
      </trkpt>
      <trkpt lat="48.94843" lon="2.08706">
        <ele>56.3</ele>
        <time>2022-05-24T09:11:25Z</time>
      </trkpt>
      <trkpt lat="48.94842" lon="2.08698">
        <ele>58.2</ele>
        <time>2022-05-24T09:11:30Z</time>
      </trkpt>
      <trkpt lat="48.94841" lon="2.08689">
        <ele>58.7</ele>
        <time>2022-05-24T09:11:34Z</time>
      </trkpt>
      <trkpt lat="48.9484" lon="2.08683">
        <ele>58.9</ele>
        <time>2022-05-24T09:11:38Z</time>
      </trkpt>
      <trkpt lat="48.94839" lon="2.08675">
        <ele>58.2</ele>
        <time>2022-05-24T09:11:42Z</time>
      </trkpt>
      <trkpt lat="48.94837" lon="2.08668">
        <ele>56.9</ele>
        <time>2022-05-24T09:11:46Z</time>
      </trkpt>
      <trkpt lat="48.94835" lon="2.08661">
        <ele>58</ele>
        <time>2022-05-24T09:11:50Z</time>
      </trkpt>
      <trkpt lat="48.94834" lon="2.08654">
        <ele>58.7</ele>
        <time>2022-05-24T09:11:53Z</time>
      </trkpt>
      <trkpt lat="48.94833" lon="2.08646">
        <ele>57.8</ele>
        <time>2022-05-24T09:11:57Z</time>
      </trkpt>
      <trkpt lat="48.94832" lon="2.08638">
        <ele>55.4</ele>
        <time>2022-05-24T09:12:00Z</time>
      </trkpt>
      <trkpt lat="48.94832" lon="2.08629">
        <ele>53.2</ele>
        <time>2022-05-24T09:12:04Z</time>
      </trkpt>
      <trkpt lat="48.94832" lon="2.08622">
        <ele>50.9</ele>
        <time>2022-05-24T09:12:08Z</time>
      </trkpt>
      <trkpt lat="48.94831" lon="2.08615">
        <ele>49.6</ele>
        <time>2022-05-24T09:12:11Z</time>
      </trkpt>
      <trkpt lat="48.94831" lon="2.08607">
        <ele>51.3</ele>
        <time>2022-05-24T09:12:15Z</time>
      </trkpt>
      <trkpt lat="48.94831" lon="2.08599">
        <ele>51.4</ele>
        <time>2022-05-24T09:12:19Z</time>
      </trkpt>
      <trkpt lat="48.94831" lon="2.0859">
        <ele>50.3</ele>
        <time>2022-05-24T09:12:23Z</time>
      </trkpt>
      <trkpt lat="48.9483" lon="2.08583">
        <ele>50.2</ele>
        <time>2022-05-24T09:12:26Z</time>
      </trkpt>
      <trkpt lat="48.94829" lon="2.08576">
        <ele>50.5</ele>
        <time>2022-05-24T09:12:30Z</time>
      </trkpt>
      <trkpt lat="48.94829" lon="2.08568">
        <ele>49.7</ele>
        <time>2022-05-24T09:12:34Z</time>
      </trkpt>
      <trkpt lat="48.94827" lon="2.0856">
        <ele>49</ele>
        <time>2022-05-24T09:12:38Z</time>
      </trkpt>
      <trkpt lat="48.94826" lon="2.08552">
        <ele>47.9</ele>
        <time>2022-05-24T09:12:41Z</time>
      </trkpt>
      <trkpt lat="48.94825" lon="2.08545">
        <ele>46.7</ele>
        <time>2022-05-24T09:12:45Z</time>
      </trkpt>
      <trkpt lat="48.94823" lon="2.08538">
        <ele>45.4</ele>
        <time>2022-05-24T09:12:48Z</time>
      </trkpt>
      <trkpt lat="48.94822" lon="2.08532">
        <ele>45.6</ele>
        <time>2022-05-24T09:12:51Z</time>
      </trkpt>
      <trkpt lat="48.9482" lon="2.08523">
        <ele>46.3</ele>
        <time>2022-05-24T09:12:56Z</time>
      </trkpt>
      <trkpt lat="48.94818" lon="2.08517">
        <ele>47.7</ele>
        <time>2022-05-24T09:12:59Z</time>
      </trkpt>
      <trkpt lat="48.94815" lon="2.08511">
        <ele>47.8</ele>
        <time>2022-05-24T09:13:03Z</time>
      </trkpt>
      <trkpt lat="48.94811" lon="2.08505">
        <ele>46.8</ele>
        <time>2022-05-24T09:13:07Z</time>
      </trkpt>
      <trkpt lat="48.94805" lon="2.08502">
        <ele>46.4</ele>
        <time>2022-05-24T09:13:12Z</time>
      </trkpt>
      <trkpt lat="48.948" lon="2.08503">
        <ele>46.4</ele>
        <time>2022-05-24T09:13:17Z</time>
      </trkpt>
      <trkpt lat="48.94797" lon="2.085">
        <ele>45.1</ele>
        <time>2022-05-24T09:13:20Z</time>
      </trkpt>
      <trkpt lat="48.94792" lon="2.08498">
        <ele>44.5</ele>
        <time>2022-05-24T09:13:24Z</time>
      </trkpt>
      <trkpt lat="48.94787" lon="2.08496">
        <ele>37.4</ele>
        <time>2022-05-24T09:13:35Z</time>
      </trkpt>
      <trkpt lat="48.94782" lon="2.08493">
        <ele>36.1</ele>
        <time>2022-05-24T09:13:40Z</time>
      </trkpt>
      <trkpt lat="48.94776" lon="2.08492">
        <ele>37</ele>
        <time>2022-05-24T09:13:46Z</time>
      </trkpt>
      <trkpt lat="48.94772" lon="2.0849">
        <ele>39.5</ele>
        <time>2022-05-24T09:13:51Z</time>
      </trkpt>
      <trkpt lat="48.94767" lon="2.08488">
        <ele>38.7</ele>
        <time>2022-05-24T09:13:56Z</time>
      </trkpt>
      <trkpt lat="48.94762" lon="2.08486">
        <ele>38.8</ele>
        <time>2022-05-24T09:14:00Z</time>
      </trkpt>
      <trkpt lat="48.94757" lon="2.08482">
        <ele>37.4</ele>
        <time>2022-05-24T09:14:06Z</time>
      </trkpt>
      <trkpt lat="48.94758" lon="2.08474">
        <ele>35.8</ele>
        <time>2022-05-24T09:14:15Z</time>
      </trkpt>
      <trkpt lat="48.94763" lon="2.08472">
        <ele>35.2</ele>
        <time>2022-05-24T09:14:19Z</time>
      </trkpt>
      <trkpt lat="48.94768" lon="2.0847">
        <ele>35.2</ele>
        <time>2022-05-24T09:14:23Z</time>
      </trkpt>
      <trkpt lat="48.94774" lon="2.08468">
        <ele>35.1</ele>
        <time>2022-05-24T09:14:27Z</time>
      </trkpt>
      <trkpt lat="48.94779" lon="2.08466">
        <ele>32.6</ele>
        <time>2022-05-24T09:14:31Z</time>
      </trkpt>
      <trkpt lat="48.94784" lon="2.08463">
        <ele>32.3</ele>
        <time>2022-05-24T09:14:35Z</time>
      </trkpt>
      <trkpt lat="48.94787" lon="2.08457">
        <ele>33.2</ele>
        <time>2022-05-24T09:14:38Z</time>
      </trkpt>
      <trkpt lat="48.94792" lon="2.08458">
        <ele>35</ele>
        <time>2022-05-24T09:14:42Z</time>
      </trkpt>
      <trkpt lat="48.94797" lon="2.08455">
        <ele>36.2</ele>
        <time>2022-05-24T09:14:47Z</time>
      </trkpt>
      <trkpt lat="48.94806" lon="2.08449">
        <ele>41.9</ele>
        <time>2022-05-24T09:14:55Z</time>
      </trkpt>
      <trkpt lat="48.94811" lon="2.08446">
        <ele>42.6</ele>
        <time>2022-05-24T09:14:59Z</time>
      </trkpt>
      <trkpt lat="48.94815" lon="2.08443">
        <ele>42.2</ele>
        <time>2022-05-24T09:15:02Z</time>
      </trkpt>
      <trkpt lat="48.94877" lon="2.08362">
        <ele>38.4</ele>
        <time>2022-05-24T09:16:01Z</time>
      </trkpt>
      <trkpt lat="48.9488" lon="2.08356">
        <ele>39.3</ele>
        <time>2022-05-24T09:16:04Z</time>
      </trkpt>
      <trkpt lat="48.94882" lon="2.08344">
        <ele>38.8</ele>
        <time>2022-05-24T09:16:11Z</time>
      </trkpt>
      <trkpt lat="48.94884" lon="2.08337">
        <ele>39.1</ele>
        <time>2022-05-24T09:16:14Z</time>
      </trkpt>
      <trkpt lat="48.94886" lon="2.0833">
        <ele>39.2</ele>
        <time>2022-05-24T09:16:18Z</time>
      </trkpt>
      <trkpt lat="48.94889" lon="2.08307">
        <ele>37.9</ele>
        <time>2022-05-24T09:16:30Z</time>
      </trkpt>
      <trkpt lat="48.94892" lon="2.08298">
        <ele>37</ele>
        <time>2022-05-24T09:16:35Z</time>
      </trkpt>
      <trkpt lat="48.94895" lon="2.0829">
        <ele>36.2</ele>
        <time>2022-05-24T09:16:39Z</time>
      </trkpt>
      <trkpt lat="48.94898" lon="2.08282">
        <ele>36.7</ele>
        <time>2022-05-24T09:16:43Z</time>
      </trkpt>
      <trkpt lat="48.949" lon="2.08275">
        <ele>38</ele>
        <time>2022-05-24T09:16:47Z</time>
      </trkpt>
      <trkpt lat="48.94904" lon="2.08271">
        <ele>39.3</ele>
        <time>2022-05-24T09:16:51Z</time>
      </trkpt>
      <trkpt lat="48.94907" lon="2.08263">
        <ele>39.7</ele>
        <time>2022-05-24T09:16:55Z</time>
      </trkpt>
      <trkpt lat="48.94912" lon="2.0825">
        <ele>38.1</ele>
        <time>2022-05-24T09:17:02Z</time>
      </trkpt>
      <trkpt lat="48.94913" lon="2.08243">
        <ele>37.1</ele>
        <time>2022-05-24T09:17:05Z</time>
      </trkpt>
      <trkpt lat="48.94915" lon="2.08236">
        <ele>38.1</ele>
        <time>2022-05-24T09:17:08Z</time>
      </trkpt>
      <trkpt lat="48.94915" lon="2.08228">
        <ele>38.4</ele>
        <time>2022-05-24T09:17:13Z</time>
      </trkpt>
      <trkpt lat="48.94917" lon="2.08221">
        <ele>37.9</ele>
        <time>2022-05-24T09:17:16Z</time>
      </trkpt>
      <trkpt lat="48.9492" lon="2.08214">
        <ele>37.2</ele>
        <time>2022-05-24T09:17:21Z</time>
      </trkpt>
      <trkpt lat="48.94923" lon="2.08209">
        <ele>39.7</ele>
        <time>2022-05-24T09:17:26Z</time>
      </trkpt>
      <trkpt lat="48.94928" lon="2.08205">
        <ele>38.8</ele>
        <time>2022-05-24T09:17:46Z</time>
      </trkpt>
      <trkpt lat="48.94931" lon="2.082">
        <ele>39.3</ele>
        <time>2022-05-24T09:17:50Z</time>
      </trkpt>
      <trkpt lat="48.94932" lon="2.08192">
        <ele>36.5</ele>
        <time>2022-05-24T09:17:55Z</time>
      </trkpt>
      <trkpt lat="48.94935" lon="2.08185">
        <ele>35.5</ele>
        <time>2022-05-24T09:18:00Z</time>
      </trkpt>
      <trkpt lat="48.94936" lon="2.08177">
        <ele>31.9</ele>
        <time>2022-05-24T09:18:05Z</time>
      </trkpt>
      <trkpt lat="48.94937" lon="2.08169">
        <ele>29.6</ele>
        <time>2022-05-24T09:18:10Z</time>
      </trkpt>
      <trkpt lat="48.94939" lon="2.08162">
        <ele>28.9</ele>
        <time>2022-05-24T09:18:15Z</time>
      </trkpt>
      <trkpt lat="48.94941" lon="2.08156">
        <ele>29.8</ele>
        <time>2022-05-24T09:18:18Z</time>
      </trkpt>
      <trkpt lat="48.94943" lon="2.08148">
        <ele>29.1</ele>
        <time>2022-05-24T09:18:22Z</time>
      </trkpt>
      <trkpt lat="48.94945" lon="2.08141">
        <ele>29.1</ele>
        <time>2022-05-24T09:18:26Z</time>
      </trkpt>
      <trkpt lat="48.94946" lon="2.08135">
        <ele>28.3</ele>
        <time>2022-05-24T09:18:30Z</time>
      </trkpt>
      <trkpt lat="48.94948" lon="2.08127">
        <ele>28.2</ele>
        <time>2022-05-24T09:18:34Z</time>
      </trkpt>
      <trkpt lat="48.94951" lon="2.0812">
        <ele>28.4</ele>
        <time>2022-05-24T09:18:38Z</time>
      </trkpt>
      <trkpt lat="48.94954" lon="2.08114">
        <ele>29.4</ele>
        <time>2022-05-24T09:18:42Z</time>
      </trkpt>
      <trkpt lat="48.94956" lon="2.08108">
        <ele>27.7</ele>
        <time>2022-05-24T09:18:46Z</time>
      </trkpt>
      <trkpt lat="48.9496" lon="2.08102">
        <ele>27.4</ele>
        <time>2022-05-24T09:18:50Z</time>
      </trkpt>
      <trkpt lat="48.94963" lon="2.08096">
        <ele>27.7</ele>
        <time>2022-05-24T09:18:54Z</time>
      </trkpt>
      <trkpt lat="48.94968" lon="2.08092">
        <ele>29</ele>
        <time>2022-05-24T09:18:58Z</time>
      </trkpt>
      <trkpt lat="48.94972" lon="2.08087">
        <ele>29</ele>
        <time>2022-05-24T09:19:02Z</time>
      </trkpt>
      <trkpt lat="48.94977" lon="2.08084">
        <ele>27.9</ele>
        <time>2022-05-24T09:19:06Z</time>
      </trkpt>
      <trkpt lat="48.94981" lon="2.0808">
        <ele>27.6</ele>
        <time>2022-05-24T09:19:10Z</time>
      </trkpt>
      <trkpt lat="48.94986" lon="2.08076">
        <ele>27.5</ele>
        <time>2022-05-24T09:19:14Z</time>
      </trkpt>
      <trkpt lat="48.9499" lon="2.08072">
        <ele>27</ele>
        <time>2022-05-24T09:19:18Z</time>
      </trkpt>
      <trkpt lat="48.94995" lon="2.0807">
        <ele>27.3</ele>
        <time>2022-05-24T09:19:22Z</time>
      </trkpt>
      <trkpt lat="48.95" lon="2.08069">
        <ele>26.6</ele>
        <time>2022-05-24T09:19:28Z</time>
      </trkpt>
      <trkpt lat="48.94996" lon="2.08065">
        <ele>27.9</ele>
        <time>2022-05-24T09:19:37Z</time>
      </trkpt>
      <trkpt lat="48.9499" lon="2.08062">
        <ele>28.2</ele>
        <time>2022-05-24T09:19:41Z</time>
      </trkpt>
      <trkpt lat="48.94986" lon="2.0806">
        <ele>29.3</ele>
        <time>2022-05-24T09:19:44Z</time>
      </trkpt>
      <trkpt lat="48.94982" lon="2.08054">
        <ele>28.3</ele>
        <time>2022-05-24T09:19:59Z</time>
      </trkpt>
      <trkpt lat="48.94977" lon="2.08049">
        <ele>26.6</ele>
        <time>2022-05-24T09:20:03Z</time>
      </trkpt>
      <trkpt lat="48.94972" lon="2.08045">
        <ele>26.4</ele>
        <time>2022-05-24T09:20:06Z</time>
      </trkpt>
      <trkpt lat="48.94967" lon="2.08043">
        <ele>29.2</ele>
        <time>2022-05-24T09:20:10Z</time>
      </trkpt>
      <trkpt lat="48.94962" lon="2.08045">
        <ele>31.1</ele>
        <time>2022-05-24T09:20:14Z</time>
      </trkpt>
      <trkpt lat="48.94957" lon="2.08046">
        <ele>31.5</ele>
        <time>2022-05-24T09:20:18Z</time>
      </trkpt>
      <trkpt lat="48.94953" lon="2.08043">
        <ele>32</ele>
        <time>2022-05-24T09:20:22Z</time>
      </trkpt>
      <trkpt lat="48.9495" lon="2.08035">
        <ele>31.6</ele>
        <time>2022-05-24T09:20:26Z</time>
      </trkpt>
      <trkpt lat="48.94948" lon="2.08027">
        <ele>31.2</ele>
        <time>2022-05-24T09:20:31Z</time>
      </trkpt>
      <trkpt lat="48.94949" lon="2.0802">
        <ele>31.8</ele>
        <time>2022-05-24T09:20:35Z</time>
      </trkpt>
      <trkpt lat="48.94949" lon="2.08013">
        <ele>29.8</ele>
        <time>2022-05-24T09:20:41Z</time>
      </trkpt>
      <trkpt lat="48.94952" lon="2.08006">
        <ele>28.9</ele>
        <time>2022-05-24T09:20:48Z</time>
      </trkpt>
      <trkpt lat="48.9495" lon="2.07998">
        <ele>29</ele>
        <time>2022-05-24T09:20:52Z</time>
      </trkpt>
      <trkpt lat="48.94946" lon="2.07993">
        <ele>27.9</ele>
        <time>2022-05-24T09:20:56Z</time>
      </trkpt>
      <trkpt lat="48.94944" lon="2.07981">
        <ele>27.3</ele>
        <time>2022-05-24T09:21:02Z</time>
      </trkpt>
      <trkpt lat="48.9494" lon="2.07975">
        <ele>28.7</ele>
        <time>2022-05-24T09:21:07Z</time>
      </trkpt>
      <trkpt lat="48.94939" lon="2.07967">
        <ele>30.4</ele>
        <time>2022-05-24T09:21:10Z</time>
      </trkpt>
      <trkpt lat="48.94941" lon="2.0796">
        <ele>30.4</ele>
        <time>2022-05-24T09:21:13Z</time>
      </trkpt>
      <trkpt lat="48.94943" lon="2.07953">
        <ele>29.1</ele>
        <time>2022-05-24T09:21:16Z</time>
      </trkpt>
      <trkpt lat="48.94948" lon="2.07947">
        <ele>29.4</ele>
        <time>2022-05-24T09:21:19Z</time>
      </trkpt>
      <trkpt lat="48.94951" lon="2.07942">
        <ele>28.7</ele>
        <time>2022-05-24T09:21:22Z</time>
      </trkpt>
      <trkpt lat="48.94954" lon="2.07935">
        <ele>28.7</ele>
        <time>2022-05-24T09:21:26Z</time>
      </trkpt>
      <trkpt lat="48.94954" lon="2.07928">
        <ele>28.3</ele>
        <time>2022-05-24T09:21:30Z</time>
      </trkpt>
      <trkpt lat="48.94953" lon="2.07918">
        <ele>29.1</ele>
        <time>2022-05-24T09:21:35Z</time>
      </trkpt>
      <trkpt lat="48.9495" lon="2.0791">
        <ele>28.3</ele>
        <time>2022-05-24T09:21:40Z</time>
      </trkpt>
      <trkpt lat="48.94948" lon="2.07902">
        <ele>25.6</ele>
        <time>2022-05-24T09:21:45Z</time>
      </trkpt>
      <trkpt lat="48.94945" lon="2.07895">
        <ele>27.5</ele>
        <time>2022-05-24T09:21:50Z</time>
      </trkpt>
      <trkpt lat="48.94941" lon="2.07892">
        <ele>28.1</ele>
        <time>2022-05-24T09:21:55Z</time>
      </trkpt>
      <trkpt lat="48.94936" lon="2.07886">
        <ele>29.3</ele>
        <time>2022-05-24T09:22:01Z</time>
      </trkpt>
      <trkpt lat="48.94936" lon="2.07877">
        <ele>30</ele>
        <time>2022-05-24T09:22:05Z</time>
      </trkpt>
      <trkpt lat="48.94935" lon="2.07868">
        <ele>31.3</ele>
        <time>2022-05-24T09:22:09Z</time>
      </trkpt>
      <trkpt lat="48.94932" lon="2.07861">
        <ele>32.9</ele>
        <time>2022-05-24T09:22:12Z</time>
      </trkpt>
      <trkpt lat="48.94931" lon="2.07854">
        <ele>32.2</ele>
        <time>2022-05-24T09:22:16Z</time>
      </trkpt>
      <trkpt lat="48.9493" lon="2.07847">
        <ele>30.8</ele>
        <time>2022-05-24T09:22:20Z</time>
      </trkpt>
      <trkpt lat="48.94927" lon="2.07839">
        <ele>32.3</ele>
        <time>2022-05-24T09:22:25Z</time>
      </trkpt>
      <trkpt lat="48.94927" lon="2.07832">
        <ele>31.8</ele>
        <time>2022-05-24T09:22:29Z</time>
      </trkpt>
      <trkpt lat="48.94925" lon="2.07826">
        <ele>32.7</ele>
        <time>2022-05-24T09:22:33Z</time>
      </trkpt>
      <trkpt lat="48.94923" lon="2.07818">
        <ele>31.8</ele>
        <time>2022-05-24T09:22:37Z</time>
      </trkpt>
      <trkpt lat="48.94921" lon="2.07812">
        <ele>30.9</ele>
        <time>2022-05-24T09:22:41Z</time>
      </trkpt>
      <trkpt lat="48.94918" lon="2.07804">
        <ele>28</ele>
        <time>2022-05-24T09:22:46Z</time>
      </trkpt>
      <trkpt lat="48.94916" lon="2.07797">
        <ele>28.9</ele>
        <time>2022-05-24T09:22:51Z</time>
      </trkpt>
      <trkpt lat="48.94913" lon="2.0779">
        <ele>29.4</ele>
        <time>2022-05-24T09:22:55Z</time>
      </trkpt>
      <trkpt lat="48.9491" lon="2.07783">
        <ele>30.5</ele>
        <time>2022-05-24T09:22:59Z</time>
      </trkpt>
      <trkpt lat="48.94908" lon="2.07777">
        <ele>32.3</ele>
        <time>2022-05-24T09:23:02Z</time>
      </trkpt>
      <trkpt lat="48.94906" lon="2.07771">
        <ele>34.4</ele>
        <time>2022-05-24T09:23:06Z</time>
      </trkpt>
      <trkpt lat="48.94903" lon="2.07763">
        <ele>33.9</ele>
        <time>2022-05-24T09:23:11Z</time>
      </trkpt>
      <trkpt lat="48.94899" lon="2.07756">
        <ele>32.6</ele>
        <time>2022-05-24T09:23:15Z</time>
      </trkpt>
      <trkpt lat="48.94896" lon="2.07748">
        <ele>32.3</ele>
        <time>2022-05-24T09:23:20Z</time>
      </trkpt>
      <trkpt lat="48.94892" lon="2.07743">
        <ele>31.5</ele>
        <time>2022-05-24T09:23:24Z</time>
      </trkpt>
      <trkpt lat="48.9489" lon="2.07736">
        <ele>32.1</ele>
        <time>2022-05-24T09:23:28Z</time>
      </trkpt>
      <trkpt lat="48.94888" lon="2.07728">
        <ele>28.1</ele>
        <time>2022-05-24T09:23:33Z</time>
      </trkpt>
      <trkpt lat="48.94885" lon="2.07721">
        <ele>26.7</ele>
        <time>2022-05-24T09:23:38Z</time>
      </trkpt>
      <trkpt lat="48.94883" lon="2.07715">
        <ele>28.4</ele>
        <time>2022-05-24T09:23:41Z</time>
      </trkpt>
      <trkpt lat="48.94882" lon="2.07708">
        <ele>29.8</ele>
        <time>2022-05-24T09:23:45Z</time>
      </trkpt>
      <trkpt lat="48.9488" lon="2.07702">
        <ele>27</ele>
        <time>2022-05-24T09:23:48Z</time>
      </trkpt>
      <trkpt lat="48.94877" lon="2.07696">
        <ele>27.3</ele>
        <time>2022-05-24T09:23:51Z</time>
      </trkpt>
      <trkpt lat="48.94876" lon="2.07689">
        <ele>27.2</ele>
        <time>2022-05-24T09:23:55Z</time>
      </trkpt>
      <trkpt lat="48.94873" lon="2.07681">
        <ele>26.6</ele>
        <time>2022-05-24T09:23:59Z</time>
      </trkpt>
      <trkpt lat="48.94872" lon="2.07674">
        <ele>30.4</ele>
        <time>2022-05-24T09:24:03Z</time>
      </trkpt>
      <trkpt lat="48.94869" lon="2.07665">
        <ele>26.8</ele>
        <time>2022-05-24T09:24:07Z</time>
      </trkpt>
      <trkpt lat="48.94867" lon="2.07657">
        <ele>29.6</ele>
        <time>2022-05-24T09:24:10Z</time>
      </trkpt>
      <trkpt lat="48.94865" lon="2.0765">
        <ele>31.9</ele>
        <time>2022-05-24T09:24:14Z</time>
      </trkpt>
      <trkpt lat="48.94863" lon="2.07642">
        <ele>32.9</ele>
        <time>2022-05-24T09:24:17Z</time>
      </trkpt>
      <trkpt lat="48.94861" lon="2.07636">
        <ele>32.9</ele>
        <time>2022-05-24T09:24:21Z</time>
      </trkpt>
      <trkpt lat="48.94859" lon="2.07628">
        <ele>33.5</ele>
        <time>2022-05-24T09:24:25Z</time>
      </trkpt>
      <trkpt lat="48.94857" lon="2.07621">
        <ele>31.3</ele>
        <time>2022-05-24T09:24:29Z</time>
      </trkpt>
      <trkpt lat="48.94855" lon="2.07614">
        <ele>30.3</ele>
        <time>2022-05-24T09:24:33Z</time>
      </trkpt>
      <trkpt lat="48.94852" lon="2.07608">
        <ele>29.8</ele>
        <time>2022-05-24T09:24:37Z</time>
      </trkpt>
      <trkpt lat="48.94849" lon="2.07603">
        <ele>29.5</ele>
        <time>2022-05-24T09:24:41Z</time>
      </trkpt>
      <trkpt lat="48.94846" lon="2.07596">
        <ele>31.8</ele>
        <time>2022-05-24T09:24:44Z</time>
      </trkpt>
      <trkpt lat="48.94843" lon="2.07589">
        <ele>31.3</ele>
        <time>2022-05-24T09:24:48Z</time>
      </trkpt>
      <trkpt lat="48.9484" lon="2.07582">
        <ele>32.9</ele>
        <time>2022-05-24T09:24:52Z</time>
      </trkpt>
      <trkpt lat="48.94837" lon="2.07576">
        <ele>34.3</ele>
        <time>2022-05-24T09:24:56Z</time>
      </trkpt>
      <trkpt lat="48.94834" lon="2.0757">
        <ele>33.4</ele>
        <time>2022-05-24T09:24:59Z</time>
      </trkpt>
      <trkpt lat="48.9483" lon="2.07566">
        <ele>31.5</ele>
        <time>2022-05-24T09:25:02Z</time>
      </trkpt>
      <trkpt lat="48.94825" lon="2.07565">
        <ele>29.7</ele>
        <time>2022-05-24T09:25:06Z</time>
      </trkpt>
      <trkpt lat="48.9482" lon="2.07563">
        <ele>29</ele>
        <time>2022-05-24T09:25:09Z</time>
      </trkpt>
      <trkpt lat="48.94815" lon="2.0756">
        <ele>29.7</ele>
        <time>2022-05-24T09:25:13Z</time>
      </trkpt>
      <trkpt lat="48.9481" lon="2.07557">
        <ele>29.2</ele>
        <time>2022-05-24T09:25:16Z</time>
      </trkpt>
      <trkpt lat="48.94805" lon="2.07554">
        <ele>28.8</ele>
        <time>2022-05-24T09:25:20Z</time>
      </trkpt>
      <trkpt lat="48.948" lon="2.07552">
        <ele>31.6</ele>
        <time>2022-05-24T09:25:24Z</time>
      </trkpt>
      <trkpt lat="48.94794" lon="2.0755">
        <ele>30.7</ele>
        <time>2022-05-24T09:25:28Z</time>
      </trkpt>
      <trkpt lat="48.94789" lon="2.07549">
        <ele>31.1</ele>
        <time>2022-05-24T09:25:32Z</time>
      </trkpt>
      <trkpt lat="48.94783" lon="2.07548">
        <ele>29.2</ele>
        <time>2022-05-24T09:25:36Z</time>
      </trkpt>
      <trkpt lat="48.94778" lon="2.07546">
        <ele>30.4</ele>
        <time>2022-05-24T09:25:40Z</time>
      </trkpt>
      <trkpt lat="48.94773" lon="2.07543">
        <ele>31.8</ele>
        <time>2022-05-24T09:25:44Z</time>
      </trkpt>
      <trkpt lat="48.94768" lon="2.0754">
        <ele>32.3</ele>
        <time>2022-05-24T09:25:48Z</time>
      </trkpt>
      <trkpt lat="48.94762" lon="2.07538">
        <ele>35</ele>
        <time>2022-05-24T09:25:52Z</time>
      </trkpt>
      <trkpt lat="48.94758" lon="2.07537">
        <ele>35.1</ele>
        <time>2022-05-24T09:25:55Z</time>
      </trkpt>
      <trkpt lat="48.94753" lon="2.07534">
        <ele>35.6</ele>
        <time>2022-05-24T09:25:58Z</time>
      </trkpt>
      <trkpt lat="48.94749" lon="2.07532">
        <ele>34.8</ele>
        <time>2022-05-24T09:26:02Z</time>
      </trkpt>
      <trkpt lat="48.94744" lon="2.0753">
        <ele>37.2</ele>
        <time>2022-05-24T09:26:05Z</time>
      </trkpt>
      <trkpt lat="48.94739" lon="2.07528">
        <ele>38</ele>
        <time>2022-05-24T09:26:08Z</time>
      </trkpt>
      <trkpt lat="48.94735" lon="2.07527">
        <ele>39.8</ele>
        <time>2022-05-24T09:26:12Z</time>
      </trkpt>
      <trkpt lat="48.94729" lon="2.07526">
        <ele>39.2</ele>
        <time>2022-05-24T09:26:16Z</time>
      </trkpt>
      <trkpt lat="48.94724" lon="2.07523">
        <ele>36.1</ele>
        <time>2022-05-24T09:26:20Z</time>
      </trkpt>
      <trkpt lat="48.9472" lon="2.07521">
        <ele>36.7</ele>
        <time>2022-05-24T09:26:24Z</time>
      </trkpt>
      <trkpt lat="48.94715" lon="2.07519">
        <ele>35.3</ele>
        <time>2022-05-24T09:26:28Z</time>
      </trkpt>
      <trkpt lat="48.9471" lon="2.07516">
        <ele>36.4</ele>
        <time>2022-05-24T09:26:32Z</time>
      </trkpt>
      <trkpt lat="48.94705" lon="2.07515">
        <ele>36.2</ele>
        <time>2022-05-24T09:26:36Z</time>
      </trkpt>
      <trkpt lat="48.947" lon="2.07513">
        <ele>37.2</ele>
        <time>2022-05-24T09:26:40Z</time>
      </trkpt>
      <trkpt lat="48.94696" lon="2.0751">
        <ele>38.1</ele>
        <time>2022-05-24T09:26:43Z</time>
      </trkpt>
      <trkpt lat="48.94691" lon="2.07507">
        <ele>38.1</ele>
        <time>2022-05-24T09:26:46Z</time>
      </trkpt>
      <trkpt lat="48.94686" lon="2.07506">
        <ele>36.3</ele>
        <time>2022-05-24T09:26:51Z</time>
      </trkpt>
      <trkpt lat="48.94681" lon="2.07504">
        <ele>38.6</ele>
        <time>2022-05-24T09:26:55Z</time>
      </trkpt>
      <trkpt lat="48.94675" lon="2.07502">
        <ele>37.3</ele>
        <time>2022-05-24T09:27:00Z</time>
      </trkpt>
      <trkpt lat="48.94669" lon="2.075">
        <ele>39</ele>
        <time>2022-05-24T09:27:04Z</time>
      </trkpt>
      <trkpt lat="48.94665" lon="2.07499">
        <ele>38.8</ele>
        <time>2022-05-24T09:27:08Z</time>
      </trkpt>
      <trkpt lat="48.9466" lon="2.07496">
        <ele>39.3</ele>
        <time>2022-05-24T09:27:11Z</time>
      </trkpt>
      <trkpt lat="48.94655" lon="2.07493">
        <ele>37.2</ele>
        <time>2022-05-24T09:27:15Z</time>
      </trkpt>
      <trkpt lat="48.94651" lon="2.0749">
        <ele>38.5</ele>
        <time>2022-05-24T09:27:19Z</time>
      </trkpt>
      <trkpt lat="48.94646" lon="2.07488">
        <ele>39</ele>
        <time>2022-05-24T09:27:23Z</time>
      </trkpt>
      <trkpt lat="48.94641" lon="2.07486">
        <ele>42.1</ele>
        <time>2022-05-24T09:27:27Z</time>
      </trkpt>
      <trkpt lat="48.94637" lon="2.07483">
        <ele>40.2</ele>
        <time>2022-05-24T09:27:31Z</time>
      </trkpt>
      <trkpt lat="48.94632" lon="2.07479">
        <ele>38.5</ele>
        <time>2022-05-24T09:27:35Z</time>
      </trkpt>
      <trkpt lat="48.94627" lon="2.07476">
        <ele>37.8</ele>
        <time>2022-05-24T09:27:39Z</time>
      </trkpt>
      <trkpt lat="48.94623" lon="2.07474">
        <ele>36</ele>
        <time>2022-05-24T09:27:44Z</time>
      </trkpt>
      <trkpt lat="48.94617" lon="2.07474">
        <ele>37</ele>
        <time>2022-05-24T09:27:51Z</time>
      </trkpt>
      <trkpt lat="48.94614" lon="2.07469">
        <ele>35.7</ele>
        <time>2022-05-24T09:28:00Z</time>
      </trkpt>
      <trkpt lat="48.94609" lon="2.07468">
        <ele>35.2</ele>
        <time>2022-05-24T09:28:04Z</time>
      </trkpt>
      <trkpt lat="48.94604" lon="2.0747">
        <ele>34.8</ele>
        <time>2022-05-24T09:28:09Z</time>
      </trkpt>
      <trkpt lat="48.94599" lon="2.07473">
        <ele>32.7</ele>
        <time>2022-05-24T09:28:14Z</time>
      </trkpt>
      <trkpt lat="48.94595" lon="2.07474">
        <ele>35.2</ele>
        <time>2022-05-24T09:28:18Z</time>
      </trkpt>
      <trkpt lat="48.9459" lon="2.07473">
        <ele>36.8</ele>
        <time>2022-05-24T09:28:23Z</time>
      </trkpt>
      <trkpt lat="48.94585" lon="2.07471">
        <ele>36.6</ele>
        <time>2022-05-24T09:28:27Z</time>
      </trkpt>
      <trkpt lat="48.94585" lon="2.07464">
        <ele>35.7</ele>
        <time>2022-05-24T09:28:35Z</time>
      </trkpt>
      <trkpt lat="48.94582" lon="2.07456">
        <ele>36</ele>
        <time>2022-05-24T09:28:48Z</time>
      </trkpt>
      <trkpt lat="48.94578" lon="2.0745">
        <ele>37.5</ele>
        <time>2022-05-24T09:29:59Z</time>
      </trkpt>
      <trkpt lat="48.94576" lon="2.07442">
        <ele>38.6</ele>
        <time>2022-05-24T09:30:03Z</time>
      </trkpt>
      <trkpt lat="48.94573" lon="2.07435">
        <ele>36.8</ele>
        <time>2022-05-24T09:30:06Z</time>
      </trkpt>
      <trkpt lat="48.94569" lon="2.0743">
        <ele>36.8</ele>
        <time>2022-05-24T09:30:10Z</time>
      </trkpt>
      <trkpt lat="48.94566" lon="2.07424">
        <ele>38.1</ele>
        <time>2022-05-24T09:30:14Z</time>
      </trkpt>
      <trkpt lat="48.94563" lon="2.07416">
        <ele>37.3</ele>
        <time>2022-05-24T09:30:20Z</time>
      </trkpt>
      <trkpt lat="48.94561" lon="2.07409">
        <ele>37.7</ele>
        <time>2022-05-24T09:30:24Z</time>
      </trkpt>
      <trkpt lat="48.94558" lon="2.07401">
        <ele>40</ele>
        <time>2022-05-24T09:30:28Z</time>
      </trkpt>
      <trkpt lat="48.94556" lon="2.07395">
        <ele>38</ele>
        <time>2022-05-24T09:30:32Z</time>
      </trkpt>
      <trkpt lat="48.94554" lon="2.07389">
        <ele>37.8</ele>
        <time>2022-05-24T09:30:36Z</time>
      </trkpt>
      <trkpt lat="48.94551" lon="2.07382">
        <ele>38.4</ele>
        <time>2022-05-24T09:30:43Z</time>
      </trkpt>
      <trkpt lat="48.94546" lon="2.07378">
        <ele>38.4</ele>
        <time>2022-05-24T09:30:48Z</time>
      </trkpt>
      <trkpt lat="48.94542" lon="2.07375">
        <ele>37</ele>
        <time>2022-05-24T09:30:51Z</time>
      </trkpt>
      <trkpt lat="48.94537" lon="2.07372">
        <ele>37.2</ele>
        <time>2022-05-24T09:30:55Z</time>
      </trkpt>
      <trkpt lat="48.94533" lon="2.07366">
        <ele>36.3</ele>
        <time>2022-05-24T09:30:59Z</time>
      </trkpt>
      <trkpt lat="48.9453" lon="2.07361">
        <ele>36.1</ele>
        <time>2022-05-24T09:31:04Z</time>
      </trkpt>
      <trkpt lat="48.94526" lon="2.07356">
        <ele>37.3</ele>
        <time>2022-05-24T09:31:09Z</time>
      </trkpt>
      <trkpt lat="48.94523" lon="2.0735">
        <ele>38.9</ele>
        <time>2022-05-24T09:31:14Z</time>
      </trkpt>
      <trkpt lat="48.9452" lon="2.07344">
        <ele>36.6</ele>
        <time>2022-05-24T09:31:19Z</time>
      </trkpt>
      <trkpt lat="48.94518" lon="2.07337">
        <ele>34.6</ele>
        <time>2022-05-24T09:31:23Z</time>
      </trkpt>
      <trkpt lat="48.94515" lon="2.07331">
        <ele>32.7</ele>
        <time>2022-05-24T09:31:28Z</time>
      </trkpt>
      <trkpt lat="48.94512" lon="2.07326">
        <ele>31.7</ele>
        <time>2022-05-24T09:31:32Z</time>
      </trkpt>
      <trkpt lat="48.94509" lon="2.0732">
        <ele>32</ele>
        <time>2022-05-24T09:31:36Z</time>
      </trkpt>
      <trkpt lat="48.94505" lon="2.07315">
        <ele>29.8</ele>
        <time>2022-05-24T09:31:40Z</time>
      </trkpt>
      <trkpt lat="48.94501" lon="2.07309">
        <ele>28.2</ele>
        <time>2022-05-24T09:31:44Z</time>
      </trkpt>
      <trkpt lat="48.94498" lon="2.07304">
        <ele>25.6</ele>
        <time>2022-05-24T09:31:49Z</time>
      </trkpt>
      <trkpt lat="48.94495" lon="2.07299">
        <ele>28.4</ele>
        <time>2022-05-24T09:31:53Z</time>
      </trkpt>
      <trkpt lat="48.94491" lon="2.07293">
        <ele>25.8</ele>
        <time>2022-05-24T09:31:57Z</time>
      </trkpt>
      <trkpt lat="48.94489" lon="2.07285">
        <ele>29.6</ele>
        <time>2022-05-24T09:32:02Z</time>
      </trkpt>
      <trkpt lat="48.94486" lon="2.07279">
        <ele>29.1</ele>
        <time>2022-05-24T09:32:05Z</time>
      </trkpt>
      <trkpt lat="48.94483" lon="2.07273">
        <ele>30.9</ele>
        <time>2022-05-24T09:32:09Z</time>
      </trkpt>
      <trkpt lat="48.94479" lon="2.07267">
        <ele>28.6</ele>
        <time>2022-05-24T09:32:14Z</time>
      </trkpt>
      <trkpt lat="48.94475" lon="2.07261">
        <ele>29.2</ele>
        <time>2022-05-24T09:32:18Z</time>
      </trkpt>
      <trkpt lat="48.94473" lon="2.07254">
        <ele>28.5</ele>
        <time>2022-05-24T09:32:22Z</time>
      </trkpt>
      <trkpt lat="48.9447" lon="2.07249">
        <ele>28.8</ele>
        <time>2022-05-24T09:32:25Z</time>
      </trkpt>
      <trkpt lat="48.94466" lon="2.07243">
        <ele>28.8</ele>
        <time>2022-05-24T09:32:30Z</time>
      </trkpt>
      <trkpt lat="48.94463" lon="2.07237">
        <ele>29.7</ele>
        <time>2022-05-24T09:32:34Z</time>
      </trkpt>
      <trkpt lat="48.9446" lon="2.07232">
        <ele>31.1</ele>
        <time>2022-05-24T09:32:38Z</time>
      </trkpt>
      <trkpt lat="48.94457" lon="2.07225">
        <ele>31.9</ele>
        <time>2022-05-24T09:32:42Z</time>
      </trkpt>
      <trkpt lat="48.94455" lon="2.07219">
        <ele>31.3</ele>
        <time>2022-05-24T09:32:46Z</time>
      </trkpt>
      <trkpt lat="48.94453" lon="2.07212">
        <ele>32.3</ele>
        <time>2022-05-24T09:32:50Z</time>
      </trkpt>
      <trkpt lat="48.9445" lon="2.07206">
        <ele>31.8</ele>
        <time>2022-05-24T09:32:54Z</time>
      </trkpt>
      <trkpt lat="48.94448" lon="2.07199">
        <ele>30</ele>
        <time>2022-05-24T09:32:58Z</time>
      </trkpt>
      <trkpt lat="48.94445" lon="2.07193">
        <ele>29.5</ele>
        <time>2022-05-24T09:33:02Z</time>
      </trkpt>
      <trkpt lat="48.94441" lon="2.07188">
        <ele>30.3</ele>
        <time>2022-05-24T09:33:06Z</time>
      </trkpt>
      <trkpt lat="48.94437" lon="2.07182">
        <ele>31.8</ele>
        <time>2022-05-24T09:33:11Z</time>
      </trkpt>
      <trkpt lat="48.94434" lon="2.07176">
        <ele>30.7</ele>
        <time>2022-05-24T09:33:15Z</time>
      </trkpt>
      <trkpt lat="48.94431" lon="2.07168">
        <ele>28.8</ele>
        <time>2022-05-24T09:33:19Z</time>
      </trkpt>
      <trkpt lat="48.94429" lon="2.0716">
        <ele>29.9</ele>
        <time>2022-05-24T09:33:24Z</time>
      </trkpt>
      <trkpt lat="48.94427" lon="2.07152">
        <ele>28.2</ele>
        <time>2022-05-24T09:33:28Z</time>
      </trkpt>
      <trkpt lat="48.94424" lon="2.07145">
        <ele>27.2</ele>
        <time>2022-05-24T09:33:33Z</time>
      </trkpt>
      <trkpt lat="48.94421" lon="2.07138">
        <ele>28.6</ele>
        <time>2022-05-24T09:33:37Z</time>
      </trkpt>
      <trkpt lat="48.94416" lon="2.07138">
        <ele>30.3</ele>
        <time>2022-05-24T09:34:26Z</time>
      </trkpt>
      <trkpt lat="48.94413" lon="2.07143">
        <ele>29.9</ele>
        <time>2022-05-24T09:34:41Z</time>
      </trkpt>
      <trkpt lat="48.94411" lon="2.07151">
        <ele>30.4</ele>
        <time>2022-05-24T09:34:48Z</time>
      </trkpt>
      <trkpt lat="48.94407" lon="2.07156">
        <ele>30</ele>
        <time>2022-05-24T09:34:52Z</time>
      </trkpt>
      <trkpt lat="48.94403" lon="2.07159">
        <ele>30.8</ele>
        <time>2022-05-24T09:34:56Z</time>
      </trkpt>
      <trkpt lat="48.94399" lon="2.07164">
        <ele>31.5</ele>
        <time>2022-05-24T09:35:00Z</time>
      </trkpt>
      <trkpt lat="48.94394" lon="2.07165">
        <ele>29.1</ele>
        <time>2022-05-24T09:35:06Z</time>
      </trkpt>
      <trkpt lat="48.94389" lon="2.07161">
        <ele>31.6</ele>
        <time>2022-05-24T09:35:10Z</time>
      </trkpt>
      <trkpt lat="48.94384" lon="2.07157">
        <ele>31.9</ele>
        <time>2022-05-24T09:35:18Z</time>
      </trkpt>
      <trkpt lat="48.94378" lon="2.07158">
        <ele>30.6</ele>
        <time>2022-05-24T09:35:22Z</time>
      </trkpt>
      <trkpt lat="48.94373" lon="2.0716">
        <ele>30.2</ele>
        <time>2022-05-24T09:35:26Z</time>
      </trkpt>
      <trkpt lat="48.94368" lon="2.07164">
        <ele>29.4</ele>
        <time>2022-05-24T09:35:30Z</time>
      </trkpt>
      <trkpt lat="48.94363" lon="2.07165">
        <ele>26.7</ele>
        <time>2022-05-24T09:35:34Z</time>
      </trkpt>
      <trkpt lat="48.94357" lon="2.07163">
        <ele>27.2</ele>
        <time>2022-05-24T09:35:39Z</time>
      </trkpt>
      <trkpt lat="48.94353" lon="2.07161">
        <ele>28.8</ele>
        <time>2022-05-24T09:35:44Z</time>
      </trkpt>
      <trkpt lat="48.94347" lon="2.07162">
        <ele>31.8</ele>
        <time>2022-05-24T09:35:49Z</time>
      </trkpt>
      <trkpt lat="48.94342" lon="2.07167">
        <ele>38.3</ele>
        <time>2022-05-24T09:35:54Z</time>
      </trkpt>
      <trkpt lat="48.94338" lon="2.07171">
        <ele>43.9</ele>
        <time>2022-05-24T09:35:59Z</time>
      </trkpt>
      <trkpt lat="48.94332" lon="2.0717">
        <ele>46.8</ele>
        <time>2022-05-24T09:36:03Z</time>
      </trkpt>
      <trkpt lat="48.94327" lon="2.07166">
        <ele>42.7</ele>
        <time>2022-05-24T09:36:07Z</time>
      </trkpt>
      <trkpt lat="48.94323" lon="2.07162">
        <ele>42.5</ele>
        <time>2022-05-24T09:36:10Z</time>
      </trkpt>
      <trkpt lat="48.94318" lon="2.07159">
        <ele>43.3</ele>
        <time>2022-05-24T09:36:13Z</time>
      </trkpt>
      <trkpt lat="48.94313" lon="2.07157">
        <ele>42.4</ele>
        <time>2022-05-24T09:36:16Z</time>
      </trkpt>
      <trkpt lat="48.94308" lon="2.07154">
        <ele>38.5</ele>
        <time>2022-05-24T09:36:20Z</time>
      </trkpt>
      <trkpt lat="48.94303" lon="2.07151">
        <ele>37</ele>
        <time>2022-05-24T09:36:23Z</time>
      </trkpt>
      <trkpt lat="48.94299" lon="2.07149">
        <ele>35.1</ele>
        <time>2022-05-24T09:36:27Z</time>
      </trkpt>
      <trkpt lat="48.94294" lon="2.07148">
        <ele>33.5</ele>
        <time>2022-05-24T09:36:31Z</time>
      </trkpt>
      <trkpt lat="48.94289" lon="2.0715">
        <ele>33.9</ele>
        <time>2022-05-24T09:36:35Z</time>
      </trkpt>
      <trkpt lat="48.94283" lon="2.07151">
        <ele>36.2</ele>
        <time>2022-05-24T09:36:39Z</time>
      </trkpt>
      <trkpt lat="48.94278" lon="2.07151">
        <ele>37.6</ele>
        <time>2022-05-24T09:36:44Z</time>
      </trkpt>
      <trkpt lat="48.94273" lon="2.07152">
        <ele>37.5</ele>
        <time>2022-05-24T09:36:48Z</time>
      </trkpt>
      <trkpt lat="48.9427" lon="2.07157">
        <ele>40</ele>
        <time>2022-05-24T09:36:54Z</time>
      </trkpt>
      <trkpt lat="48.94265" lon="2.07157">
        <ele>40.4</ele>
        <time>2022-05-24T09:36:58Z</time>
      </trkpt>
      <trkpt lat="48.9426" lon="2.07155">
        <ele>37.5</ele>
        <time>2022-05-24T09:37:03Z</time>
      </trkpt>
      <trkpt lat="48.94254" lon="2.07154">
        <ele>36</ele>
        <time>2022-05-24T09:37:07Z</time>
      </trkpt>
      <trkpt lat="48.94249" lon="2.07153">
        <ele>33.8</ele>
        <time>2022-05-24T09:37:12Z</time>
      </trkpt>
      <trkpt lat="48.94244" lon="2.07151">
        <ele>30.4</ele>
        <time>2022-05-24T09:37:15Z</time>
      </trkpt>
      <trkpt lat="48.94239" lon="2.07148">
        <ele>30.8</ele>
        <time>2022-05-24T09:37:19Z</time>
      </trkpt>
      <trkpt lat="48.94234" lon="2.07145">
        <ele>29.9</ele>
        <time>2022-05-24T09:37:23Z</time>
      </trkpt>
      <trkpt lat="48.94229" lon="2.07142">
        <ele>28.7</ele>
        <time>2022-05-24T09:37:27Z</time>
      </trkpt>
      <trkpt lat="48.94224" lon="2.0714">
        <ele>29.1</ele>
        <time>2022-05-24T09:37:31Z</time>
      </trkpt>
      <trkpt lat="48.94218" lon="2.07138">
        <ele>28.2</ele>
        <time>2022-05-24T09:37:35Z</time>
      </trkpt>
      <trkpt lat="48.94213" lon="2.07137">
        <ele>29.7</ele>
        <time>2022-05-24T09:37:40Z</time>
      </trkpt>
      <trkpt lat="48.94206" lon="2.07137">
        <ele>32.7</ele>
        <time>2022-05-24T09:37:45Z</time>
      </trkpt>
      <trkpt lat="48.94201" lon="2.07138">
        <ele>33.1</ele>
        <time>2022-05-24T09:37:49Z</time>
      </trkpt>
      <trkpt lat="48.94196" lon="2.07138">
        <ele>32.5</ele>
        <time>2022-05-24T09:37:53Z</time>
      </trkpt>
      <trkpt lat="48.94191" lon="2.07137">
        <ele>34.8</ele>
        <time>2022-05-24T09:37:58Z</time>
      </trkpt>
      <trkpt lat="48.94186" lon="2.07134">
        <ele>35.6</ele>
        <time>2022-05-24T09:38:02Z</time>
      </trkpt>
      <trkpt lat="48.94182" lon="2.07131">
        <ele>34.9</ele>
        <time>2022-05-24T09:38:06Z</time>
      </trkpt>
      <trkpt lat="48.94179" lon="2.07124">
        <ele>38.7</ele>
        <time>2022-05-24T09:38:12Z</time>
      </trkpt>
      <trkpt lat="48.94175" lon="2.07121">
        <ele>38.8</ele>
        <time>2022-05-24T09:38:15Z</time>
      </trkpt>
      <trkpt lat="48.94169" lon="2.07118">
        <ele>37.2</ele>
        <time>2022-05-24T09:38:20Z</time>
      </trkpt>
      <trkpt lat="48.94164" lon="2.07115">
        <ele>36.8</ele>
        <time>2022-05-24T09:38:23Z</time>
      </trkpt>
      <trkpt lat="48.9416" lon="2.07113">
        <ele>36.3</ele>
        <time>2022-05-24T09:38:27Z</time>
      </trkpt>
      <trkpt lat="48.94155" lon="2.07109">
        <ele>36.3</ele>
        <time>2022-05-24T09:38:31Z</time>
      </trkpt>
      <trkpt lat="48.94151" lon="2.07106">
        <ele>38.6</ele>
        <time>2022-05-24T09:38:35Z</time>
      </trkpt>
      <trkpt lat="48.94148" lon="2.07101">
        <ele>39.4</ele>
        <time>2022-05-24T09:38:39Z</time>
      </trkpt>
      <trkpt lat="48.94143" lon="2.07097">
        <ele>38.8</ele>
        <time>2022-05-24T09:38:43Z</time>
      </trkpt>
      <trkpt lat="48.94141" lon="2.0709">
        <ele>35.8</ele>
        <time>2022-05-24T09:38:51Z</time>
      </trkpt>
      <trkpt lat="48.94136" lon="2.07087">
        <ele>35.9</ele>
        <time>2022-05-24T09:38:57Z</time>
      </trkpt>
      <trkpt lat="48.94132" lon="2.07084">
        <ele>37.3</ele>
        <time>2022-05-24T09:39:01Z</time>
      </trkpt>
      <trkpt lat="48.94127" lon="2.07081">
        <ele>35</ele>
        <time>2022-05-24T09:39:06Z</time>
      </trkpt>
      <trkpt lat="48.94122" lon="2.07078">
        <ele>37</ele>
        <time>2022-05-24T09:39:11Z</time>
      </trkpt>
      <trkpt lat="48.94118" lon="2.07073">
        <ele>39.1</ele>
        <time>2022-05-24T09:39:16Z</time>
      </trkpt>
      <trkpt lat="48.94113" lon="2.0707">
        <ele>42.8</ele>
        <time>2022-05-24T09:39:21Z</time>
      </trkpt>
      <trkpt lat="48.94108" lon="2.07065">
        <ele>41</ele>
        <time>2022-05-24T09:39:26Z</time>
      </trkpt>
      <trkpt lat="48.94106" lon="2.07058">
        <ele>36.9</ele>
        <time>2022-05-24T09:39:30Z</time>
      </trkpt>
      <trkpt lat="48.94103" lon="2.07051">
        <ele>36.3</ele>
        <time>2022-05-24T09:39:35Z</time>
      </trkpt>
      <trkpt lat="48.94099" lon="2.07045">
        <ele>34.3</ele>
        <time>2022-05-24T09:39:40Z</time>
      </trkpt>
      <trkpt lat="48.94096" lon="2.07039">
        <ele>35.1</ele>
        <time>2022-05-24T09:39:44Z</time>
      </trkpt>
      <trkpt lat="48.94092" lon="2.07034">
        <ele>33.3</ele>
        <time>2022-05-24T09:39:49Z</time>
      </trkpt>
      <trkpt lat="48.94088" lon="2.07029">
        <ele>33.2</ele>
        <time>2022-05-24T09:39:53Z</time>
      </trkpt>
      <trkpt lat="48.94083" lon="2.07025">
        <ele>32.1</ele>
        <time>2022-05-24T09:39:57Z</time>
      </trkpt>
      <trkpt lat="48.94079" lon="2.07021">
        <ele>31</ele>
        <time>2022-05-24T09:40:01Z</time>
      </trkpt>
      <trkpt lat="48.94074" lon="2.07016">
        <ele>30.5</ele>
        <time>2022-05-24T09:40:04Z</time>
      </trkpt>
      <trkpt lat="48.9407" lon="2.07012">
        <ele>30.1</ele>
        <time>2022-05-24T09:40:08Z</time>
      </trkpt>
      <trkpt lat="48.94065" lon="2.07007">
        <ele>33.6</ele>
        <time>2022-05-24T09:40:12Z</time>
      </trkpt>
      <trkpt lat="48.94061" lon="2.07003">
        <ele>33.7</ele>
        <time>2022-05-24T09:40:17Z</time>
      </trkpt>
      <trkpt lat="48.94056" lon="2.07">
        <ele>33.8</ele>
        <time>2022-05-24T09:40:20Z</time>
      </trkpt>
      <trkpt lat="48.94052" lon="2.06995">
        <ele>35.7</ele>
        <time>2022-05-24T09:40:25Z</time>
      </trkpt>
      <trkpt lat="48.94048" lon="2.06991">
        <ele>36.6</ele>
        <time>2022-05-24T09:40:29Z</time>
      </trkpt>
      <trkpt lat="48.94045" lon="2.06987">
        <ele>36.8</ele>
        <time>2022-05-24T09:40:33Z</time>
      </trkpt>
      <trkpt lat="48.94041" lon="2.06982">
        <ele>34.1</ele>
        <time>2022-05-24T09:40:37Z</time>
      </trkpt>
      <trkpt lat="48.94036" lon="2.06978">
        <ele>35.1</ele>
        <time>2022-05-24T09:40:41Z</time>
      </trkpt>
      <trkpt lat="48.94032" lon="2.06974">
        <ele>35.9</ele>
        <time>2022-05-24T09:40:45Z</time>
      </trkpt>
      <trkpt lat="48.94027" lon="2.0697">
        <ele>37.9</ele>
        <time>2022-05-24T09:40:50Z</time>
      </trkpt>
      <trkpt lat="48.94022" lon="2.06965">
        <ele>36.7</ele>
        <time>2022-05-24T09:40:54Z</time>
      </trkpt>
      <trkpt lat="48.94018" lon="2.06959">
        <ele>36.1</ele>
        <time>2022-05-24T09:40:59Z</time>
      </trkpt>
      <trkpt lat="48.94013" lon="2.06955">
        <ele>36.5</ele>
        <time>2022-05-24T09:41:03Z</time>
      </trkpt>
      <trkpt lat="48.94007" lon="2.0695">
        <ele>35.7</ele>
        <time>2022-05-24T09:41:08Z</time>
      </trkpt>
      <trkpt lat="48.94003" lon="2.06944">
        <ele>35.9</ele>
        <time>2022-05-24T09:41:12Z</time>
      </trkpt>
      <trkpt lat="48.94" lon="2.06938">
        <ele>36.5</ele>
        <time>2022-05-24T09:41:16Z</time>
      </trkpt>
      <trkpt lat="48.93995" lon="2.06933">
        <ele>35.6</ele>
        <time>2022-05-24T09:41:20Z</time>
      </trkpt>
      <trkpt lat="48.93991" lon="2.06929">
        <ele>34</ele>
        <time>2022-05-24T09:41:24Z</time>
      </trkpt>
      <trkpt lat="48.93986" lon="2.06926">
        <ele>35.4</ele>
        <time>2022-05-24T09:41:28Z</time>
      </trkpt>
      <trkpt lat="48.93981" lon="2.06921">
        <ele>35.6</ele>
        <time>2022-05-24T09:41:33Z</time>
      </trkpt>
      <trkpt lat="48.93977" lon="2.06916">
        <ele>36.5</ele>
        <time>2022-05-24T09:41:37Z</time>
      </trkpt>
      <trkpt lat="48.93974" lon="2.06912">
        <ele>35.1</ele>
        <time>2022-05-24T09:41:41Z</time>
      </trkpt>
      <trkpt lat="48.9397" lon="2.06907">
        <ele>35.1</ele>
        <time>2022-05-24T09:41:45Z</time>
      </trkpt>
      <trkpt lat="48.93965" lon="2.06901">
        <ele>33.1</ele>
        <time>2022-05-24T09:41:49Z</time>
      </trkpt>
      <trkpt lat="48.9396" lon="2.06896">
        <ele>31.8</ele>
        <time>2022-05-24T09:41:54Z</time>
      </trkpt>
      <trkpt lat="48.93957" lon="2.0689">
        <ele>35</ele>
        <time>2022-05-24T09:41:58Z</time>
      </trkpt>
      <trkpt lat="48.93952" lon="2.06885">
        <ele>31.8</ele>
        <time>2022-05-24T09:42:02Z</time>
      </trkpt>
      <trkpt lat="48.93948" lon="2.0688">
        <ele>32.2</ele>
        <time>2022-05-24T09:42:07Z</time>
      </trkpt>
      <trkpt lat="48.93943" lon="2.06876">
        <ele>30.4</ele>
        <time>2022-05-24T09:42:11Z</time>
      </trkpt>
      <trkpt lat="48.93939" lon="2.06873">
        <ele>31.5</ele>
        <time>2022-05-24T09:42:14Z</time>
      </trkpt>
      <trkpt lat="48.93935" lon="2.06868">
        <ele>32.6</ele>
        <time>2022-05-24T09:42:19Z</time>
      </trkpt>
      <trkpt lat="48.9393" lon="2.06861">
        <ele>31.8</ele>
        <time>2022-05-24T09:42:24Z</time>
      </trkpt>
      <trkpt lat="48.93926" lon="2.06856">
        <ele>31</ele>
        <time>2022-05-24T09:42:28Z</time>
      </trkpt>
      <trkpt lat="48.93922" lon="2.0685">
        <ele>31.7</ele>
        <time>2022-05-24T09:42:32Z</time>
      </trkpt>
      <trkpt lat="48.93918" lon="2.06845">
        <ele>32.6</ele>
        <time>2022-05-24T09:42:36Z</time>
      </trkpt>
      <trkpt lat="48.93914" lon="2.0684">
        <ele>33.7</ele>
        <time>2022-05-24T09:42:40Z</time>
      </trkpt>
      <trkpt lat="48.9391" lon="2.06835">
        <ele>31.9</ele>
        <time>2022-05-24T09:42:44Z</time>
      </trkpt>
      <trkpt lat="48.93906" lon="2.0683">
        <ele>33.7</ele>
        <time>2022-05-24T09:42:48Z</time>
      </trkpt>
      <trkpt lat="48.93902" lon="2.06827">
        <ele>33.7</ele>
        <time>2022-05-24T09:42:52Z</time>
      </trkpt>
      <trkpt lat="48.93897" lon="2.06823">
        <ele>34.9</ele>
        <time>2022-05-24T09:42:56Z</time>
      </trkpt>
      <trkpt lat="48.93892" lon="2.06819">
        <ele>35.2</ele>
        <time>2022-05-24T09:43:00Z</time>
      </trkpt>
      <trkpt lat="48.93888" lon="2.06815">
        <ele>34.2</ele>
        <time>2022-05-24T09:43:04Z</time>
      </trkpt>
      <trkpt lat="48.93884" lon="2.0681">
        <ele>35</ele>
        <time>2022-05-24T09:43:08Z</time>
      </trkpt>
      <trkpt lat="48.9388" lon="2.06805">
        <ele>35.5</ele>
        <time>2022-05-24T09:43:12Z</time>
      </trkpt>
      <trkpt lat="48.93876" lon="2.068">
        <ele>35.2</ele>
        <time>2022-05-24T09:43:16Z</time>
      </trkpt>
      <trkpt lat="48.93872" lon="2.06796">
        <ele>35.3</ele>
        <time>2022-05-24T09:43:19Z</time>
      </trkpt>
      <trkpt lat="48.93868" lon="2.0679">
        <ele>36.4</ele>
        <time>2022-05-24T09:43:23Z</time>
      </trkpt>
      <trkpt lat="48.93865" lon="2.06783">
        <ele>36.1</ele>
        <time>2022-05-24T09:43:27Z</time>
      </trkpt>
      <trkpt lat="48.93862" lon="2.06776">
        <ele>36.2</ele>
        <time>2022-05-24T09:43:32Z</time>
      </trkpt>
      <trkpt lat="48.93859" lon="2.06771">
        <ele>35.9</ele>
        <time>2022-05-24T09:43:35Z</time>
      </trkpt>
      <trkpt lat="48.93854" lon="2.06765">
        <ele>36.8</ele>
        <time>2022-05-24T09:43:40Z</time>
      </trkpt>
      <trkpt lat="48.9385" lon="2.06761">
        <ele>36.9</ele>
        <time>2022-05-24T09:43:43Z</time>
      </trkpt>
      <trkpt lat="48.93845" lon="2.06757">
        <ele>37.6</ele>
        <time>2022-05-24T09:43:47Z</time>
      </trkpt>
      <trkpt lat="48.93841" lon="2.06755">
        <ele>37.3</ele>
        <time>2022-05-24T09:43:51Z</time>
      </trkpt>
      <trkpt lat="48.93836" lon="2.06751">
        <ele>39.8</ele>
        <time>2022-05-24T09:43:55Z</time>
      </trkpt>
      <trkpt lat="48.93832" lon="2.06746">
        <ele>40.1</ele>
        <time>2022-05-24T09:43:59Z</time>
      </trkpt>
      <trkpt lat="48.93829" lon="2.0674">
        <ele>40.6</ele>
        <time>2022-05-24T09:44:03Z</time>
      </trkpt>
      <trkpt lat="48.93825" lon="2.06735">
        <ele>40.3</ele>
        <time>2022-05-24T09:44:07Z</time>
      </trkpt>
      <trkpt lat="48.9382" lon="2.06731">
        <ele>39.6</ele>
        <time>2022-05-24T09:44:11Z</time>
      </trkpt>
      <trkpt lat="48.93814" lon="2.06727">
        <ele>37.8</ele>
        <time>2022-05-24T09:44:15Z</time>
      </trkpt>
      <trkpt lat="48.93809" lon="2.06724">
        <ele>38.6</ele>
        <time>2022-05-24T09:44:20Z</time>
      </trkpt>
      <trkpt lat="48.93805" lon="2.0672">
        <ele>37.2</ele>
        <time>2022-05-24T09:44:24Z</time>
      </trkpt>
      <trkpt lat="48.938" lon="2.06717">
        <ele>36.1</ele>
        <time>2022-05-24T09:44:28Z</time>
      </trkpt>
      <trkpt lat="48.93796" lon="2.06713">
        <ele>36.9</ele>
        <time>2022-05-24T09:44:32Z</time>
      </trkpt>
      <trkpt lat="48.93792" lon="2.06711">
        <ele>37.9</ele>
        <time>2022-05-24T09:44:36Z</time>
      </trkpt>
      <trkpt lat="48.93787" lon="2.06707">
        <ele>40.3</ele>
        <time>2022-05-24T09:44:40Z</time>
      </trkpt>
      <trkpt lat="48.93785" lon="2.067">
        <ele>41.4</ele>
        <time>2022-05-24T09:44:44Z</time>
      </trkpt>
      <trkpt lat="48.93781" lon="2.06694">
        <ele>38.7</ele>
        <time>2022-05-24T09:44:48Z</time>
      </trkpt>
      <trkpt lat="48.9378" lon="2.06687">
        <ele>37.3</ele>
        <time>2022-05-24T09:44:53Z</time>
      </trkpt>
      <trkpt lat="48.9378" lon="2.0668">
        <ele>37.5</ele>
        <time>2022-05-24T09:44:57Z</time>
      </trkpt>
      <trkpt lat="48.93776" lon="2.06674">
        <ele>38.7</ele>
        <time>2022-05-24T09:45:02Z</time>
      </trkpt>
      <trkpt lat="48.93772" lon="2.0667">
        <ele>38</ele>
        <time>2022-05-24T09:45:07Z</time>
      </trkpt>
      <trkpt lat="48.9377" lon="2.06663">
        <ele>36.6</ele>
        <time>2022-05-24T09:45:13Z</time>
      </trkpt>
      <trkpt lat="48.93771" lon="2.06655">
        <ele>34.6</ele>
        <time>2022-05-24T09:45:21Z</time>
      </trkpt>
      <trkpt lat="48.93768" lon="2.06649">
        <ele>34.2</ele>
        <time>2022-05-24T09:45:26Z</time>
      </trkpt>
      <trkpt lat="48.9377" lon="2.06642">
        <ele>35.3</ele>
        <time>2022-05-24T09:45:54Z</time>
      </trkpt>
      <trkpt lat="48.93766" lon="2.06637">
        <ele>31.3</ele>
        <time>2022-05-24T09:46:54Z</time>
      </trkpt>
      <trkpt lat="48.93762" lon="2.06635">
        <ele>30.8</ele>
        <time>2022-05-24T09:46:58Z</time>
      </trkpt>
      <trkpt lat="48.93758" lon="2.0663">
        <ele>32.4</ele>
        <time>2022-05-24T09:47:02Z</time>
      </trkpt>
      <trkpt lat="48.93752" lon="2.06628">
        <ele>33.1</ele>
        <time>2022-05-24T09:47:07Z</time>
      </trkpt>
      <trkpt lat="48.93747" lon="2.06626">
        <ele>34.7</ele>
        <time>2022-05-24T09:47:13Z</time>
      </trkpt>
      <trkpt lat="48.93743" lon="2.06621">
        <ele>37.8</ele>
        <time>2022-05-24T09:47:21Z</time>
      </trkpt>
      <trkpt lat="48.93739" lon="2.06615">
        <ele>35.6</ele>
        <time>2022-05-24T09:47:29Z</time>
      </trkpt>
      <trkpt lat="48.93743" lon="2.06619">
        <ele>35.6</ele>
        <time>2022-05-24T09:47:31Z</time>
      </trkpt>
      <trkpt lat="48.93745" lon="2.06612">
        <ele>38.4</ele>
        <time>2022-05-24T09:47:45Z</time>
      </trkpt>
      <trkpt lat="48.93741" lon="2.06605">
        <ele>38.4</ele>
        <time>2022-05-24T09:47:50Z</time>
      </trkpt>
      <trkpt lat="48.93737" lon="2.06599">
        <ele>37.6</ele>
        <time>2022-05-24T09:47:54Z</time>
      </trkpt>
      <trkpt lat="48.93733" lon="2.06594">
        <ele>34.6</ele>
        <time>2022-05-24T09:47:58Z</time>
      </trkpt>
      <trkpt lat="48.93728" lon="2.06589">
        <ele>37.7</ele>
        <time>2022-05-24T09:48:02Z</time>
      </trkpt>
      <trkpt lat="48.93724" lon="2.06584">
        <ele>37.4</ele>
        <time>2022-05-24T09:48:06Z</time>
      </trkpt>
      <trkpt lat="48.93718" lon="2.06578">
        <ele>37.1</ele>
        <time>2022-05-24T09:48:09Z</time>
      </trkpt>
      <trkpt lat="48.93714" lon="2.06575">
        <ele>36.7</ele>
        <time>2022-05-24T09:48:11Z</time>
      </trkpt>
      <trkpt lat="48.9371" lon="2.06571">
        <ele>37</ele>
        <time>2022-05-24T09:48:14Z</time>
      </trkpt>
      <trkpt lat="48.93706" lon="2.06567">
        <ele>30.4</ele>
        <time>2022-05-24T09:48:20Z</time>
      </trkpt>
      <trkpt lat="48.93702" lon="2.06562">
        <ele>32.8</ele>
        <time>2022-05-24T09:48:26Z</time>
      </trkpt>
      <trkpt lat="48.93697" lon="2.06559">
        <ele>37.2</ele>
        <time>2022-05-24T09:48:31Z</time>
      </trkpt>
      <trkpt lat="48.93692" lon="2.06555">
        <ele>38.1</ele>
        <time>2022-05-24T09:48:36Z</time>
      </trkpt>
      <trkpt lat="48.93688" lon="2.0655">
        <ele>38.7</ele>
        <time>2022-05-24T09:48:41Z</time>
      </trkpt>
      <trkpt lat="48.93684" lon="2.06544">
        <ele>38</ele>
        <time>2022-05-24T09:48:45Z</time>
      </trkpt>
      <trkpt lat="48.9368" lon="2.0654">
        <ele>36.6</ele>
        <time>2022-05-24T09:48:50Z</time>
      </trkpt>
      <trkpt lat="48.93676" lon="2.06534">
        <ele>35.8</ele>
        <time>2022-05-24T09:48:56Z</time>
      </trkpt>
      <trkpt lat="48.93672" lon="2.06529">
        <ele>36.2</ele>
        <time>2022-05-24T09:49:01Z</time>
      </trkpt>
      <trkpt lat="48.93668" lon="2.06526">
        <ele>35</ele>
        <time>2022-05-24T09:49:05Z</time>
      </trkpt>
      <trkpt lat="48.93663" lon="2.06523">
        <ele>37.1</ele>
        <time>2022-05-24T09:49:09Z</time>
      </trkpt>
      <trkpt lat="48.93659" lon="2.06521">
        <ele>38.5</ele>
        <time>2022-05-24T09:49:14Z</time>
      </trkpt>
      <trkpt lat="48.93654" lon="2.06517">
        <ele>38.8</ele>
        <time>2022-05-24T09:49:20Z</time>
      </trkpt>
      <trkpt lat="48.93649" lon="2.06521">
        <ele>37</ele>
        <time>2022-05-24T09:49:28Z</time>
      </trkpt>
      <trkpt lat="48.93645" lon="2.06518">
        <ele>41.1</ele>
        <time>2022-05-24T09:49:38Z</time>
      </trkpt>
      <trkpt lat="48.9364" lon="2.0652">
        <ele>44.9</ele>
        <time>2022-05-24T09:49:46Z</time>
      </trkpt>
      <trkpt lat="48.93643" lon="2.06526">
        <ele>46.8</ele>
        <time>2022-05-24T09:51:28Z</time>
      </trkpt>
      <trkpt lat="48.9364" lon="2.06531">
        <ele>46.5</ele>
        <time>2022-05-24T09:51:57Z</time>
      </trkpt>
      <trkpt lat="48.93635" lon="2.06527">
        <ele>40.9</ele>
        <time>2022-05-24T09:52:03Z</time>
      </trkpt>
      <trkpt lat="48.93629" lon="2.06525">
        <ele>46.7</ele>
        <time>2022-05-24T09:52:06Z</time>
      </trkpt>
      <trkpt lat="48.93624" lon="2.0652">
        <ele>47.8</ele>
        <time>2022-05-24T09:52:10Z</time>
      </trkpt>
      <trkpt lat="48.93619" lon="2.06519">
        <ele>44.9</ele>
        <time>2022-05-24T09:52:15Z</time>
      </trkpt>
      <trkpt lat="48.93615" lon="2.06514">
        <ele>42.5</ele>
        <time>2022-05-24T09:52:19Z</time>
      </trkpt>
      <trkpt lat="48.93612" lon="2.06508">
        <ele>43.6</ele>
        <time>2022-05-24T09:52:23Z</time>
      </trkpt>
      <trkpt lat="48.93609" lon="2.06502">
        <ele>41.6</ele>
        <time>2022-05-24T09:52:27Z</time>
      </trkpt>
      <trkpt lat="48.93605" lon="2.06496">
        <ele>41.2</ele>
        <time>2022-05-24T09:52:31Z</time>
      </trkpt>
      <trkpt lat="48.936" lon="2.06494">
        <ele>40.8</ele>
        <time>2022-05-24T09:52:35Z</time>
      </trkpt>
      <trkpt lat="48.93595" lon="2.06491">
        <ele>47.6</ele>
        <time>2022-05-24T09:52:39Z</time>
      </trkpt>
      <trkpt lat="48.93592" lon="2.06486">
        <ele>46.4</ele>
        <time>2022-05-24T09:52:44Z</time>
      </trkpt>
      <trkpt lat="48.93588" lon="2.06481">
        <ele>46.6</ele>
        <time>2022-05-24T09:52:48Z</time>
      </trkpt>
      <trkpt lat="48.93585" lon="2.06475">
        <ele>43.7</ele>
        <time>2022-05-24T09:52:53Z</time>
      </trkpt>
      <trkpt lat="48.93583" lon="2.06468">
        <ele>39.5</ele>
        <time>2022-05-24T09:52:57Z</time>
      </trkpt>
      <trkpt lat="48.93582" lon="2.06461">
        <ele>42.8</ele>
        <time>2022-05-24T09:53:01Z</time>
      </trkpt>
      <trkpt lat="48.93579" lon="2.06455">
        <ele>43.8</ele>
        <time>2022-05-24T09:53:08Z</time>
      </trkpt>
      <trkpt lat="48.93574" lon="2.06454">
        <ele>45.3</ele>
        <time>2022-05-24T09:53:13Z</time>
      </trkpt>
      <trkpt lat="48.93569" lon="2.06453">
        <ele>43.6</ele>
        <time>2022-05-24T09:53:17Z</time>
      </trkpt>
      <trkpt lat="48.93566" lon="2.06447">
        <ele>39.8</ele>
        <time>2022-05-24T09:53:21Z</time>
      </trkpt>
      <trkpt lat="48.93563" lon="2.06441">
        <ele>39.5</ele>
        <time>2022-05-24T09:53:25Z</time>
      </trkpt>
      <trkpt lat="48.93559" lon="2.06437">
        <ele>39.6</ele>
        <time>2022-05-24T09:53:28Z</time>
      </trkpt>
      <trkpt lat="48.93555" lon="2.06433">
        <ele>40.5</ele>
        <time>2022-05-24T09:53:32Z</time>
      </trkpt>
      <trkpt lat="48.93551" lon="2.06429">
        <ele>40.3</ele>
        <time>2022-05-24T09:53:35Z</time>
      </trkpt>
      <trkpt lat="48.93547" lon="2.06425">
        <ele>37.1</ele>
        <time>2022-05-24T09:53:38Z</time>
      </trkpt>
      <trkpt lat="48.93535" lon="2.06418">
        <ele>43.1</ele>
        <time>2022-05-24T09:53:45Z</time>
      </trkpt>
      <trkpt lat="48.93531" lon="2.06413">
        <ele>41.6</ele>
        <time>2022-05-24T09:53:48Z</time>
      </trkpt>
      <trkpt lat="48.93528" lon="2.06408">
        <ele>41.1</ele>
        <time>2022-05-24T09:53:51Z</time>
      </trkpt>
      <trkpt lat="48.93525" lon="2.06401">
        <ele>44.1</ele>
        <time>2022-05-24T09:53:55Z</time>
      </trkpt>
      <trkpt lat="48.93522" lon="2.06396">
        <ele>43.7</ele>
        <time>2022-05-24T09:53:58Z</time>
      </trkpt>
      <trkpt lat="48.9352" lon="2.06389">
        <ele>44.7</ele>
        <time>2022-05-24T09:54:01Z</time>
      </trkpt>
      <trkpt lat="48.93516" lon="2.06384">
        <ele>46.7</ele>
        <time>2022-05-24T09:54:05Z</time>
      </trkpt>
      <trkpt lat="48.93512" lon="2.06379">
        <ele>47.3</ele>
        <time>2022-05-24T09:54:09Z</time>
      </trkpt>
      <trkpt lat="48.93507" lon="2.06374">
        <ele>49.1</ele>
        <time>2022-05-24T09:54:13Z</time>
      </trkpt>
      <trkpt lat="48.93503" lon="2.06369">
        <ele>48.9</ele>
        <time>2022-05-24T09:54:17Z</time>
      </trkpt>
      <trkpt lat="48.93499" lon="2.06368">
        <ele>46.3</ele>
        <time>2022-05-24T09:54:20Z</time>
      </trkpt>
      <trkpt lat="48.93493" lon="2.06369">
        <ele>44.1</ele>
        <time>2022-05-24T09:54:24Z</time>
      </trkpt>
      <trkpt lat="48.93488" lon="2.06374">
        <ele>44.4</ele>
        <time>2022-05-24T09:54:27Z</time>
      </trkpt>
      <trkpt lat="48.93484" lon="2.06378">
        <ele>47</ele>
        <time>2022-05-24T09:54:31Z</time>
      </trkpt>
      <trkpt lat="48.93478" lon="2.06379">
        <ele>46.7</ele>
        <time>2022-05-24T09:54:36Z</time>
      </trkpt>
      <trkpt lat="48.93473" lon="2.06379">
        <ele>48.5</ele>
        <time>2022-05-24T09:54:40Z</time>
      </trkpt>
      <trkpt lat="48.93467" lon="2.0638">
        <ele>47.7</ele>
        <time>2022-05-24T09:54:45Z</time>
      </trkpt>
      <trkpt lat="48.93463" lon="2.06382">
        <ele>48.6</ele>
        <time>2022-05-24T09:54:49Z</time>
      </trkpt>
      <trkpt lat="48.93458" lon="2.06387">
        <ele>50.2</ele>
        <time>2022-05-24T09:54:55Z</time>
      </trkpt>
      <trkpt lat="48.93454" lon="2.06392">
        <ele>51.1</ele>
        <time>2022-05-24T09:54:59Z</time>
      </trkpt>
      <trkpt lat="48.9345" lon="2.06395">
        <ele>52.5</ele>
        <time>2022-05-24T09:55:05Z</time>
      </trkpt>
      <trkpt lat="48.93445" lon="2.06395">
        <ele>51.1</ele>
        <time>2022-05-24T09:55:10Z</time>
      </trkpt>
      <trkpt lat="48.9344" lon="2.06399">
        <ele>50.7</ele>
        <time>2022-05-24T09:55:14Z</time>
      </trkpt>
      <trkpt lat="48.93435" lon="2.06401">
        <ele>50.2</ele>
        <time>2022-05-24T09:55:19Z</time>
      </trkpt>
      <trkpt lat="48.9343" lon="2.064">
        <ele>49.2</ele>
        <time>2022-05-24T09:55:23Z</time>
      </trkpt>
      <trkpt lat="48.93426" lon="2.06396">
        <ele>45.9</ele>
        <time>2022-05-24T09:55:28Z</time>
      </trkpt>
      <trkpt lat="48.93421" lon="2.06394">
        <ele>46.6</ele>
        <time>2022-05-24T09:55:32Z</time>
      </trkpt>
      <trkpt lat="48.93417" lon="2.0639">
        <ele>50.3</ele>
        <time>2022-05-24T09:55:37Z</time>
      </trkpt>
      <trkpt lat="48.93413" lon="2.06387">
        <ele>50.7</ele>
        <time>2022-05-24T09:55:41Z</time>
      </trkpt>
      <trkpt lat="48.93408" lon="2.06383">
        <ele>50.5</ele>
        <time>2022-05-24T09:55:45Z</time>
      </trkpt>
      <trkpt lat="48.93405" lon="2.06378">
        <ele>51.5</ele>
        <time>2022-05-24T09:55:50Z</time>
      </trkpt>
      <trkpt lat="48.93408" lon="2.06372">
        <ele>50.8</ele>
        <time>2022-05-24T09:55:55Z</time>
      </trkpt>
      <trkpt lat="48.93412" lon="2.06377">
        <ele>50.8</ele>
        <time>2022-05-24T09:55:59Z</time>
      </trkpt>
      <trkpt lat="48.93407" lon="2.06374">
        <ele>51</ele>
        <time>2022-05-24T09:56:16Z</time>
      </trkpt>
      <trkpt lat="48.93403" lon="2.06368">
        <ele>53.4</ele>
        <time>2022-05-24T09:56:19Z</time>
      </trkpt>
      <trkpt lat="48.93399" lon="2.06362">
        <ele>52.8</ele>
        <time>2022-05-24T09:56:23Z</time>
      </trkpt>
      <trkpt lat="48.93396" lon="2.06355">
        <ele>52.3</ele>
        <time>2022-05-24T09:56:27Z</time>
      </trkpt>
      <trkpt lat="48.93393" lon="2.06348">
        <ele>50.8</ele>
        <time>2022-05-24T09:56:31Z</time>
      </trkpt>
      <trkpt lat="48.93389" lon="2.06342">
        <ele>49.3</ele>
        <time>2022-05-24T09:56:35Z</time>
      </trkpt>
      <trkpt lat="48.93385" lon="2.06338">
        <ele>48.8</ele>
        <time>2022-05-24T09:56:39Z</time>
      </trkpt>
      <trkpt lat="48.93382" lon="2.0633">
        <ele>47.1</ele>
        <time>2022-05-24T09:56:44Z</time>
      </trkpt>
      <trkpt lat="48.93378" lon="2.06323">
        <ele>47.1</ele>
        <time>2022-05-24T09:56:49Z</time>
      </trkpt>
      <trkpt lat="48.93375" lon="2.06316">
        <ele>48.1</ele>
        <time>2022-05-24T09:56:54Z</time>
      </trkpt>
      <trkpt lat="48.93371" lon="2.0631">
        <ele>48.3</ele>
        <time>2022-05-24T09:56:58Z</time>
      </trkpt>
      <trkpt lat="48.93368" lon="2.06304">
        <ele>47.7</ele>
        <time>2022-05-24T09:57:02Z</time>
      </trkpt>
      <trkpt lat="48.93366" lon="2.06297">
        <ele>47.7</ele>
        <time>2022-05-24T09:57:07Z</time>
      </trkpt>
      <trkpt lat="48.93363" lon="2.0629">
        <ele>47.5</ele>
        <time>2022-05-24T09:57:12Z</time>
      </trkpt>
      <trkpt lat="48.9336" lon="2.06284">
        <ele>46.8</ele>
        <time>2022-05-24T09:57:16Z</time>
      </trkpt>
      <trkpt lat="48.93357" lon="2.06278">
        <ele>45.9</ele>
        <time>2022-05-24T09:57:21Z</time>
      </trkpt>
      <trkpt lat="48.93355" lon="2.06271">
        <ele>46</ele>
        <time>2022-05-24T09:57:30Z</time>
      </trkpt>
      <trkpt lat="48.93353" lon="2.06263">
        <ele>46.5</ele>
        <time>2022-05-24T09:57:35Z</time>
      </trkpt>
      <trkpt lat="48.93351" lon="2.06257">
        <ele>46.6</ele>
        <time>2022-05-24T09:57:40Z</time>
      </trkpt>
      <trkpt lat="48.93347" lon="2.06251">
        <ele>47.5</ele>
        <time>2022-05-24T09:57:45Z</time>
      </trkpt>
      <trkpt lat="48.93344" lon="2.06244">
        <ele>49.1</ele>
        <time>2022-05-24T09:57:52Z</time>
      </trkpt>
      <trkpt lat="48.93341" lon="2.06239">
        <ele>49</ele>
        <time>2022-05-24T09:57:57Z</time>
      </trkpt>
      <trkpt lat="48.93337" lon="2.06233">
        <ele>49.1</ele>
        <time>2022-05-24T09:58:02Z</time>
      </trkpt>
      <trkpt lat="48.93333" lon="2.06237">
        <ele>45.5</ele>
        <time>2022-05-24T09:58:24Z</time>
      </trkpt>
      <trkpt lat="48.93328" lon="2.0624">
        <ele>48.1</ele>
        <time>2022-05-24T09:58:32Z</time>
      </trkpt>
      <trkpt lat="48.93323" lon="2.06243">
        <ele>48.6</ele>
        <time>2022-05-24T09:58:42Z</time>
      </trkpt>
      <trkpt lat="48.93318" lon="2.06245">
        <ele>49.6</ele>
        <time>2022-05-24T09:58:47Z</time>
      </trkpt>
      <trkpt lat="48.93313" lon="2.06245">
        <ele>51.3</ele>
        <time>2022-05-24T09:58:51Z</time>
      </trkpt>
      <trkpt lat="48.93308" lon="2.06244">
        <ele>51.3</ele>
        <time>2022-05-24T09:58:55Z</time>
      </trkpt>
      <trkpt lat="48.93302" lon="2.06243">
        <ele>50.3</ele>
        <time>2022-05-24T09:58:59Z</time>
      </trkpt>
      <trkpt lat="48.93298" lon="2.06241">
        <ele>49.2</ele>
        <time>2022-05-24T09:59:03Z</time>
      </trkpt>
      <trkpt lat="48.93293" lon="2.06238">
        <ele>48.9</ele>
        <time>2022-05-24T09:59:06Z</time>
      </trkpt>
      <trkpt lat="48.93289" lon="2.06235">
        <ele>47.6</ele>
        <time>2022-05-24T09:59:10Z</time>
      </trkpt>
      <trkpt lat="48.93285" lon="2.06231">
        <ele>49.6</ele>
        <time>2022-05-24T09:59:15Z</time>
      </trkpt>
      <trkpt lat="48.9328" lon="2.06231">
        <ele>49.6</ele>
        <time>2022-05-24T09:59:19Z</time>
      </trkpt>
      <trkpt lat="48.93276" lon="2.06228">
        <ele>49.3</ele>
        <time>2022-05-24T09:59:23Z</time>
      </trkpt>
      <trkpt lat="48.93272" lon="2.06224">
        <ele>49.1</ele>
        <time>2022-05-24T09:59:26Z</time>
      </trkpt>
      <trkpt lat="48.93267" lon="2.0622">
        <ele>51.3</ele>
        <time>2022-05-24T09:59:30Z</time>
      </trkpt>
      <trkpt lat="48.93263" lon="2.06216">
        <ele>50</ele>
        <time>2022-05-24T09:59:35Z</time>
      </trkpt>
      <trkpt lat="48.93259" lon="2.06212">
        <ele>49</ele>
        <time>2022-05-24T09:59:39Z</time>
      </trkpt>
      <trkpt lat="48.93256" lon="2.06206">
        <ele>49.5</ele>
        <time>2022-05-24T09:59:43Z</time>
      </trkpt>
      <trkpt lat="48.93252" lon="2.062">
        <ele>51.8</ele>
        <time>2022-05-24T09:59:48Z</time>
      </trkpt>
      <trkpt lat="48.93248" lon="2.06195">
        <ele>52.3</ele>
        <time>2022-05-24T09:59:52Z</time>
      </trkpt>
      <trkpt lat="48.93244" lon="2.06192">
        <ele>53</ele>
        <time>2022-05-24T09:59:56Z</time>
      </trkpt>
      <trkpt lat="48.9324" lon="2.06186">
        <ele>50.6</ele>
        <time>2022-05-24T10:00:01Z</time>
      </trkpt>
      <trkpt lat="48.93237" lon="2.0618">
        <ele>49.3</ele>
        <time>2022-05-24T10:00:06Z</time>
      </trkpt>
      <trkpt lat="48.93234" lon="2.06175">
        <ele>49.5</ele>
        <time>2022-05-24T10:00:10Z</time>
      </trkpt>
      <trkpt lat="48.93229" lon="2.0617">
        <ele>49.6</ele>
        <time>2022-05-24T10:00:14Z</time>
      </trkpt>
      <trkpt lat="48.93225" lon="2.06166">
        <ele>47.8</ele>
        <time>2022-05-24T10:00:19Z</time>
      </trkpt>
      <trkpt lat="48.9322" lon="2.06163">
        <ele>47</ele>
        <time>2022-05-24T10:00:23Z</time>
      </trkpt>
      <trkpt lat="48.93215" lon="2.06161">
        <ele>46.5</ele>
        <time>2022-05-24T10:00:27Z</time>
      </trkpt>
      <trkpt lat="48.93209" lon="2.06158">
        <ele>46</ele>
        <time>2022-05-24T10:00:32Z</time>
      </trkpt>
      <trkpt lat="48.93205" lon="2.06155">
        <ele>46.8</ele>
        <time>2022-05-24T10:00:36Z</time>
      </trkpt>
      <trkpt lat="48.93201" lon="2.06151">
        <ele>47.5</ele>
        <time>2022-05-24T10:00:40Z</time>
      </trkpt>
      <trkpt lat="48.93197" lon="2.06147">
        <ele>45.8</ele>
        <time>2022-05-24T10:00:45Z</time>
      </trkpt>
      <trkpt lat="48.93193" lon="2.06143">
        <ele>48</ele>
        <time>2022-05-24T10:00:49Z</time>
      </trkpt>
      <trkpt lat="48.93188" lon="2.06138">
        <ele>50.2</ele>
        <time>2022-05-24T10:00:54Z</time>
      </trkpt>
      <trkpt lat="48.93184" lon="2.06133">
        <ele>50.7</ele>
        <time>2022-05-24T10:00:58Z</time>
      </trkpt>
      <trkpt lat="48.9318" lon="2.0613">
        <ele>54.2</ele>
        <time>2022-05-24T10:01:02Z</time>
      </trkpt>
      <trkpt lat="48.93175" lon="2.06126">
        <ele>54.2</ele>
        <time>2022-05-24T10:01:06Z</time>
      </trkpt>
      <trkpt lat="48.9317" lon="2.06121">
        <ele>53.2</ele>
        <time>2022-05-24T10:01:11Z</time>
      </trkpt>
      <trkpt lat="48.93167" lon="2.06115">
        <ele>50.7</ele>
        <time>2022-05-24T10:01:15Z</time>
      </trkpt>
      <trkpt lat="48.93164" lon="2.06109">
        <ele>51.7</ele>
        <time>2022-05-24T10:01:19Z</time>
      </trkpt>
      <trkpt lat="48.93161" lon="2.06102">
        <ele>50.1</ele>
        <time>2022-05-24T10:01:23Z</time>
      </trkpt>
      <trkpt lat="48.93157" lon="2.06098">
        <ele>49.8</ele>
        <time>2022-05-24T10:01:28Z</time>
      </trkpt>
      <trkpt lat="48.93152" lon="2.06096">
        <ele>49.7</ele>
        <time>2022-05-24T10:01:32Z</time>
      </trkpt>
      <trkpt lat="48.93147" lon="2.06095">
        <ele>49.9</ele>
        <time>2022-05-24T10:01:36Z</time>
      </trkpt>
      <trkpt lat="48.93141" lon="2.06096">
        <ele>50.3</ele>
        <time>2022-05-24T10:01:41Z</time>
      </trkpt>
      <trkpt lat="48.93136" lon="2.06096">
        <ele>52.5</ele>
        <time>2022-05-24T10:01:45Z</time>
      </trkpt>
      <trkpt lat="48.93131" lon="2.06097">
        <ele>53.5</ele>
        <time>2022-05-24T10:01:49Z</time>
      </trkpt>
      <trkpt lat="48.93127" lon="2.06096">
        <ele>53.7</ele>
        <time>2022-05-24T10:01:53Z</time>
      </trkpt>
      <trkpt lat="48.93123" lon="2.06091">
        <ele>54.5</ele>
        <time>2022-05-24T10:01:57Z</time>
      </trkpt>
      <trkpt lat="48.9312" lon="2.06086">
        <ele>51.5</ele>
        <time>2022-05-24T10:02:00Z</time>
      </trkpt>
      <trkpt lat="48.93116" lon="2.06081">
        <ele>51.9</ele>
        <time>2022-05-24T10:02:05Z</time>
      </trkpt>
      <trkpt lat="48.9311" lon="2.0608">
        <ele>51.9</ele>
        <time>2022-05-24T10:02:09Z</time>
      </trkpt>
      <trkpt lat="48.93105" lon="2.06082">
        <ele>54.8</ele>
        <time>2022-05-24T10:02:14Z</time>
      </trkpt>
      <trkpt lat="48.931" lon="2.06085">
        <ele>54.4</ele>
        <time>2022-05-24T10:02:18Z</time>
      </trkpt>
      <trkpt lat="48.93095" lon="2.06088">
        <ele>54.5</ele>
        <time>2022-05-24T10:02:23Z</time>
      </trkpt>
      <trkpt lat="48.9309" lon="2.0609">
        <ele>54.4</ele>
        <time>2022-05-24T10:02:27Z</time>
      </trkpt>
      <trkpt lat="48.93085" lon="2.06091">
        <ele>54.3</ele>
        <time>2022-05-24T10:02:32Z</time>
      </trkpt>
      <trkpt lat="48.9308" lon="2.0609">
        <ele>54.8</ele>
        <time>2022-05-24T10:02:36Z</time>
      </trkpt>
      <trkpt lat="48.93075" lon="2.06088">
        <ele>54</ele>
        <time>2022-05-24T10:02:40Z</time>
      </trkpt>
      <trkpt lat="48.9307" lon="2.06085">
        <ele>54.7</ele>
        <time>2022-05-24T10:02:45Z</time>
      </trkpt>
      <trkpt lat="48.93065" lon="2.06081">
        <ele>56.4</ele>
        <time>2022-05-24T10:02:49Z</time>
      </trkpt>
      <trkpt lat="48.9306" lon="2.06077">
        <ele>57</ele>
        <time>2022-05-24T10:02:53Z</time>
      </trkpt>
      <trkpt lat="48.93056" lon="2.06073">
        <ele>59.5</ele>
        <time>2022-05-24T10:02:57Z</time>
      </trkpt>
      <trkpt lat="48.93051" lon="2.06069">
        <ele>60.2</ele>
        <time>2022-05-24T10:03:01Z</time>
      </trkpt>
      <trkpt lat="48.93046" lon="2.06067">
        <ele>61.3</ele>
        <time>2022-05-24T10:03:07Z</time>
      </trkpt>
      <trkpt lat="48.93041" lon="2.06066">
        <ele>57</ele>
        <time>2022-05-24T10:03:11Z</time>
      </trkpt>
      <trkpt lat="48.93037" lon="2.06064">
        <ele>56.1</ele>
        <time>2022-05-24T10:03:15Z</time>
      </trkpt>
      <trkpt lat="48.93032" lon="2.06061">
        <ele>57.6</ele>
        <time>2022-05-24T10:03:20Z</time>
      </trkpt>
      <trkpt lat="48.93027" lon="2.06059">
        <ele>60.1</ele>
        <time>2022-05-24T10:03:24Z</time>
      </trkpt>
      <trkpt lat="48.93023" lon="2.06056">
        <ele>61.9</ele>
        <time>2022-05-24T10:03:28Z</time>
      </trkpt>
      <trkpt lat="48.93018" lon="2.06053">
        <ele>61.6</ele>
        <time>2022-05-24T10:03:33Z</time>
      </trkpt>
      <trkpt lat="48.93015" lon="2.06045">
        <ele>59.5</ele>
        <time>2022-05-24T10:03:39Z</time>
      </trkpt>
      <trkpt lat="48.93014" lon="2.06038">
        <ele>59.6</ele>
        <time>2022-05-24T10:03:42Z</time>
      </trkpt>
      <trkpt lat="48.93013" lon="2.0603">
        <ele>59.5</ele>
        <time>2022-05-24T10:03:46Z</time>
      </trkpt>
      <trkpt lat="48.93012" lon="2.06023">
        <ele>59.7</ele>
        <time>2022-05-24T10:03:49Z</time>
      </trkpt>
      <trkpt lat="48.93011" lon="2.06015">
        <ele>59.1</ele>
        <time>2022-05-24T10:03:53Z</time>
      </trkpt>
      <trkpt lat="48.93007" lon="2.06008">
        <ele>58.5</ele>
        <time>2022-05-24T10:03:58Z</time>
      </trkpt>
      <trkpt lat="48.93002" lon="2.06006">
        <ele>56.5</ele>
        <time>2022-05-24T10:04:02Z</time>
      </trkpt>
      <trkpt lat="48.92998" lon="2.06004">
        <ele>53.1</ele>
        <time>2022-05-24T10:04:06Z</time>
      </trkpt>
      <trkpt lat="48.92993" lon="2.06003">
        <ele>50.8</ele>
        <time>2022-05-24T10:04:10Z</time>
      </trkpt>
      <trkpt lat="48.92988" lon="2.06001">
        <ele>49.7</ele>
        <time>2022-05-24T10:04:15Z</time>
      </trkpt>
      <trkpt lat="48.92985" lon="2.05994">
        <ele>52.8</ele>
        <time>2022-05-24T10:04:20Z</time>
      </trkpt>
      <trkpt lat="48.92984" lon="2.05987">
        <ele>54.1</ele>
        <time>2022-05-24T10:04:24Z</time>
      </trkpt>
      <trkpt lat="48.92983" lon="2.05979">
        <ele>55.5</ele>
        <time>2022-05-24T10:04:29Z</time>
      </trkpt>
      <trkpt lat="48.92983" lon="2.0597">
        <ele>54.8</ele>
        <time>2022-05-24T10:04:33Z</time>
      </trkpt>
      <trkpt lat="48.92982" lon="2.05962">
        <ele>52.8</ele>
        <time>2022-05-24T10:04:37Z</time>
      </trkpt>
      <trkpt lat="48.92978" lon="2.05957">
        <ele>53.9</ele>
        <time>2022-05-24T10:04:42Z</time>
      </trkpt>
      <trkpt lat="48.92973" lon="2.05955">
        <ele>53.9</ele>
        <time>2022-05-24T10:04:47Z</time>
      </trkpt>
      <trkpt lat="48.92967" lon="2.05956">
        <ele>55.7</ele>
        <time>2022-05-24T10:04:51Z</time>
      </trkpt>
      <trkpt lat="48.92962" lon="2.05956">
        <ele>57.4</ele>
        <time>2022-05-24T10:04:55Z</time>
      </trkpt>
      <trkpt lat="48.92957" lon="2.05957">
        <ele>57.2</ele>
        <time>2022-05-24T10:05:00Z</time>
      </trkpt>
      <trkpt lat="48.92952" lon="2.05956">
        <ele>56.3</ele>
        <time>2022-05-24T10:05:04Z</time>
      </trkpt>
      <trkpt lat="48.92947" lon="2.05956">
        <ele>57.7</ele>
        <time>2022-05-24T10:05:09Z</time>
      </trkpt>
      <trkpt lat="48.92942" lon="2.05953">
        <ele>61.4</ele>
        <time>2022-05-24T10:05:14Z</time>
      </trkpt>
      <trkpt lat="48.92938" lon="2.05948">
        <ele>59.9</ele>
        <time>2022-05-24T10:05:18Z</time>
      </trkpt>
      <trkpt lat="48.92937" lon="2.05941">
        <ele>57.4</ele>
        <time>2022-05-24T10:05:22Z</time>
      </trkpt>
      <trkpt lat="48.92936" lon="2.05934">
        <ele>56.9</ele>
        <time>2022-05-24T10:05:25Z</time>
      </trkpt>
      <trkpt lat="48.92936" lon="2.05925">
        <ele>57.3</ele>
        <time>2022-05-24T10:05:29Z</time>
      </trkpt>
      <trkpt lat="48.92934" lon="2.05918">
        <ele>57.3</ele>
        <time>2022-05-24T10:05:33Z</time>
      </trkpt>
      <trkpt lat="48.92931" lon="2.05911">
        <ele>57.2</ele>
        <time>2022-05-24T10:05:38Z</time>
      </trkpt>
      <trkpt lat="48.92927" lon="2.05906">
        <ele>54.9</ele>
        <time>2022-05-24T10:05:42Z</time>
      </trkpt>
      <trkpt lat="48.92924" lon="2.059">
        <ele>54.2</ele>
        <time>2022-05-24T10:05:47Z</time>
      </trkpt>
      <trkpt lat="48.9292" lon="2.05895">
        <ele>55.7</ele>
        <time>2022-05-24T10:05:53Z</time>
      </trkpt>
      <trkpt lat="48.92917" lon="2.059">
        <ele>52.1</ele>
        <time>2022-05-24T10:05:58Z</time>
      </trkpt>
      <trkpt lat="48.92915" lon="2.05907">
        <ele>52.1</ele>
        <time>2022-05-24T10:06:01Z</time>
      </trkpt>
      <trkpt lat="48.92914" lon="2.05913">
        <ele>51.2</ele>
        <time>2022-05-24T10:06:05Z</time>
      </trkpt>
      <trkpt lat="48.92912" lon="2.0592">
        <ele>51.7</ele>
        <time>2022-05-24T10:06:10Z</time>
      </trkpt>
      <trkpt lat="48.92908" lon="2.05926">
        <ele>52.7</ele>
        <time>2022-05-24T10:06:16Z</time>
      </trkpt>
      <trkpt lat="48.92904" lon="2.0593">
        <ele>53.3</ele>
        <time>2022-05-24T10:06:21Z</time>
      </trkpt>
      <trkpt lat="48.929" lon="2.05934">
        <ele>52.8</ele>
        <time>2022-05-24T10:06:25Z</time>
      </trkpt>
      <trkpt lat="48.92895" lon="2.05938">
        <ele>53.3</ele>
        <time>2022-05-24T10:06:30Z</time>
      </trkpt>
      <trkpt lat="48.92891" lon="2.05942">
        <ele>53.8</ele>
        <time>2022-05-24T10:06:35Z</time>
      </trkpt>
      <trkpt lat="48.92887" lon="2.05947">
        <ele>52.4</ele>
        <time>2022-05-24T10:06:40Z</time>
      </trkpt>
      <trkpt lat="48.92885" lon="2.05953">
        <ele>53.3</ele>
        <time>2022-05-24T10:06:44Z</time>
      </trkpt>
      <trkpt lat="48.92882" lon="2.05959">
        <ele>55.1</ele>
        <time>2022-05-24T10:06:50Z</time>
      </trkpt>
      <trkpt lat="48.92878" lon="2.05964">
        <ele>56.1</ele>
        <time>2022-05-24T10:06:54Z</time>
      </trkpt>
      <trkpt lat="48.92873" lon="2.05967">
        <ele>57.8</ele>
        <time>2022-05-24T10:06:59Z</time>
      </trkpt>
      <trkpt lat="48.92867" lon="2.05968">
        <ele>54.7</ele>
        <time>2022-05-24T10:07:04Z</time>
      </trkpt>
      <trkpt lat="48.92863" lon="2.05969">
        <ele>56.2</ele>
        <time>2022-05-24T10:07:08Z</time>
      </trkpt>
      <trkpt lat="48.92857" lon="2.05969">
        <ele>58.1</ele>
        <time>2022-05-24T10:07:13Z</time>
      </trkpt>
      <trkpt lat="48.92853" lon="2.05968">
        <ele>59.5</ele>
        <time>2022-05-24T10:07:18Z</time>
      </trkpt>
      <trkpt lat="48.92848" lon="2.05967">
        <ele>60.3</ele>
        <time>2022-05-24T10:07:22Z</time>
      </trkpt>
      <trkpt lat="48.92842" lon="2.05967">
        <ele>60.7</ele>
        <time>2022-05-24T10:07:27Z</time>
      </trkpt>
      <trkpt lat="48.92837" lon="2.05967">
        <ele>60.3</ele>
        <time>2022-05-24T10:07:31Z</time>
      </trkpt>
      <trkpt lat="48.92834" lon="2.05974">
        <ele>60.2</ele>
        <time>2022-05-24T10:07:36Z</time>
      </trkpt>
      <trkpt lat="48.92831" lon="2.05981">
        <ele>61</ele>
        <time>2022-05-24T10:07:40Z</time>
      </trkpt>
      <trkpt lat="48.92828" lon="2.05986">
        <ele>59.3</ele>
        <time>2022-05-24T10:07:45Z</time>
      </trkpt>
      <trkpt lat="48.92823" lon="2.05986">
        <ele>60.5</ele>
        <time>2022-05-24T10:07:49Z</time>
      </trkpt>
      <trkpt lat="48.92819" lon="2.0598">
        <ele>60.2</ele>
        <time>2022-05-24T10:07:55Z</time>
      </trkpt>
      <trkpt lat="48.92815" lon="2.05973">
        <ele>56.6</ele>
        <time>2022-05-24T10:08:00Z</time>
      </trkpt>
      <trkpt lat="48.92812" lon="2.05967">
        <ele>56.6</ele>
        <time>2022-05-24T10:08:04Z</time>
      </trkpt>
      <trkpt lat="48.92809" lon="2.05961">
        <ele>57.6</ele>
        <time>2022-05-24T10:08:07Z</time>
      </trkpt>
      <trkpt lat="48.92805" lon="2.05956">
        <ele>59.6</ele>
        <time>2022-05-24T10:08:11Z</time>
      </trkpt>
      <trkpt lat="48.92801" lon="2.05951">
        <ele>59.1</ele>
        <time>2022-05-24T10:08:16Z</time>
      </trkpt>
      <trkpt lat="48.92797" lon="2.05946">
        <ele>59.4</ele>
        <time>2022-05-24T10:08:20Z</time>
      </trkpt>
      <trkpt lat="48.92794" lon="2.05943">
        <ele>60.2</ele>
        <time>2022-05-24T10:08:24Z</time>
      </trkpt>
      <trkpt lat="48.9279" lon="2.05938">
        <ele>57.8</ele>
        <time>2022-05-24T10:08:28Z</time>
      </trkpt>
      <trkpt lat="48.92786" lon="2.05933">
        <ele>58.4</ele>
        <time>2022-05-24T10:08:32Z</time>
      </trkpt>
      <trkpt lat="48.92782" lon="2.05929">
        <ele>56.3</ele>
        <time>2022-05-24T10:08:36Z</time>
      </trkpt>
      <trkpt lat="48.92777" lon="2.05925">
        <ele>57.1</ele>
        <time>2022-05-24T10:08:40Z</time>
      </trkpt>
      <trkpt lat="48.92773" lon="2.05921">
        <ele>56.7</ele>
        <time>2022-05-24T10:08:44Z</time>
      </trkpt>
      <trkpt lat="48.92769" lon="2.05916">
        <ele>57.6</ele>
        <time>2022-05-24T10:08:48Z</time>
      </trkpt>
      <trkpt lat="48.92765" lon="2.05911">
        <ele>57.5</ele>
        <time>2022-05-24T10:08:52Z</time>
      </trkpt>
      <trkpt lat="48.9276" lon="2.05906">
        <ele>58.5</ele>
        <time>2022-05-24T10:08:56Z</time>
      </trkpt>
      <trkpt lat="48.92755" lon="2.05901">
        <ele>57.8</ele>
        <time>2022-05-24T10:09:01Z</time>
      </trkpt>
      <trkpt lat="48.92751" lon="2.05895">
        <ele>57</ele>
        <time>2022-05-24T10:09:05Z</time>
      </trkpt>
      <trkpt lat="48.92747" lon="2.0589">
        <ele>57.7</ele>
        <time>2022-05-24T10:09:10Z</time>
      </trkpt>
      <trkpt lat="48.92743" lon="2.05883">
        <ele>58.6</ele>
        <time>2022-05-24T10:09:14Z</time>
      </trkpt>
      <trkpt lat="48.92739" lon="2.05879">
        <ele>57</ele>
        <time>2022-05-24T10:09:19Z</time>
      </trkpt>
      <trkpt lat="48.92734" lon="2.05875">
        <ele>56.3</ele>
        <time>2022-05-24T10:09:23Z</time>
      </trkpt>
      <trkpt lat="48.9273" lon="2.05871">
        <ele>56.9</ele>
        <time>2022-05-24T10:09:27Z</time>
      </trkpt>
      <trkpt lat="48.92726" lon="2.05866">
        <ele>57.8</ele>
        <time>2022-05-24T10:09:31Z</time>
      </trkpt>
      <trkpt lat="48.92722" lon="2.05861">
        <ele>59.4</ele>
        <time>2022-05-24T10:09:35Z</time>
      </trkpt>
      <trkpt lat="48.92719" lon="2.05855">
        <ele>63.1</ele>
        <time>2022-05-24T10:09:39Z</time>
      </trkpt>
      <trkpt lat="48.92715" lon="2.05851">
        <ele>61.9</ele>
        <time>2022-05-24T10:09:43Z</time>
      </trkpt>
      <trkpt lat="48.92711" lon="2.05846">
        <ele>61.9</ele>
        <time>2022-05-24T10:09:47Z</time>
      </trkpt>
      <trkpt lat="48.92707" lon="2.0584">
        <ele>62.8</ele>
        <time>2022-05-24T10:09:51Z</time>
      </trkpt>
      <trkpt lat="48.92703" lon="2.05834">
        <ele>59.8</ele>
        <time>2022-05-24T10:09:55Z</time>
      </trkpt>
      <trkpt lat="48.92699" lon="2.0583">
        <ele>62.9</ele>
        <time>2022-05-24T10:09:59Z</time>
      </trkpt>
      <trkpt lat="48.92695" lon="2.05825">
        <ele>62.3</ele>
        <time>2022-05-24T10:10:04Z</time>
      </trkpt>
      <trkpt lat="48.9269" lon="2.05819">
        <ele>65.8</ele>
        <time>2022-05-24T10:10:08Z</time>
      </trkpt>
      <trkpt lat="48.92687" lon="2.05812">
        <ele>62.6</ele>
        <time>2022-05-24T10:10:13Z</time>
      </trkpt>
      <trkpt lat="48.92682" lon="2.05807">
        <ele>62.9</ele>
        <time>2022-05-24T10:10:17Z</time>
      </trkpt>
      <trkpt lat="48.92678" lon="2.05803">
        <ele>62.9</ele>
        <time>2022-05-24T10:10:20Z</time>
      </trkpt>
      <trkpt lat="48.92674" lon="2.05797">
        <ele>63.8</ele>
        <time>2022-05-24T10:10:25Z</time>
      </trkpt>
      <trkpt lat="48.9267" lon="2.05791">
        <ele>63.8</ele>
        <time>2022-05-24T10:10:30Z</time>
      </trkpt>
      <trkpt lat="48.92666" lon="2.05786">
        <ele>64.5</ele>
        <time>2022-05-24T10:10:34Z</time>
      </trkpt>
      <trkpt lat="48.92663" lon="2.0578">
        <ele>62.4</ele>
        <time>2022-05-24T10:10:38Z</time>
      </trkpt>
      <trkpt lat="48.92659" lon="2.05775">
        <ele>62.4</ele>
        <time>2022-05-24T10:10:42Z</time>
      </trkpt>
      <trkpt lat="48.92655" lon="2.0577">
        <ele>60.7</ele>
        <time>2022-05-24T10:10:46Z</time>
      </trkpt>
      <trkpt lat="48.92651" lon="2.05765">
        <ele>61.2</ele>
        <time>2022-05-24T10:10:50Z</time>
      </trkpt>
      <trkpt lat="48.92647" lon="2.05761">
        <ele>61.4</ele>
        <time>2022-05-24T10:10:54Z</time>
      </trkpt>
      <trkpt lat="48.92642" lon="2.05756">
        <ele>61.4</ele>
        <time>2022-05-24T10:10:58Z</time>
      </trkpt>
      <trkpt lat="48.92638" lon="2.05752">
        <ele>64.2</ele>
        <time>2022-05-24T10:11:02Z</time>
      </trkpt>
      <trkpt lat="48.92634" lon="2.05747">
        <ele>63</ele>
        <time>2022-05-24T10:11:06Z</time>
      </trkpt>
      <trkpt lat="48.92631" lon="2.05741">
        <ele>61.3</ele>
        <time>2022-05-24T10:11:10Z</time>
      </trkpt>
      <trkpt lat="48.92627" lon="2.05735">
        <ele>60.9</ele>
        <time>2022-05-24T10:11:14Z</time>
      </trkpt>
      <trkpt lat="48.92623" lon="2.05731">
        <ele>60.8</ele>
        <time>2022-05-24T10:11:18Z</time>
      </trkpt>
      <trkpt lat="48.92619" lon="2.05726">
        <ele>61.6</ele>
        <time>2022-05-24T10:11:22Z</time>
      </trkpt>
      <trkpt lat="48.92615" lon="2.05721">
        <ele>58.6</ele>
        <time>2022-05-24T10:11:26Z</time>
      </trkpt>
      <trkpt lat="48.92611" lon="2.05716">
        <ele>57.7</ele>
        <time>2022-05-24T10:11:30Z</time>
      </trkpt>
      <trkpt lat="48.92607" lon="2.05712">
        <ele>58</ele>
        <time>2022-05-24T10:11:34Z</time>
      </trkpt>
      <trkpt lat="48.92603" lon="2.05706">
        <ele>60.7</ele>
        <time>2022-05-24T10:11:38Z</time>
      </trkpt>
      <trkpt lat="48.92599" lon="2.05702">
        <ele>59.6</ele>
        <time>2022-05-24T10:11:42Z</time>
      </trkpt>
      <trkpt lat="48.92595" lon="2.05697">
        <ele>58.7</ele>
        <time>2022-05-24T10:11:46Z</time>
      </trkpt>
      <trkpt lat="48.9259" lon="2.05693">
        <ele>58.4</ele>
        <time>2022-05-24T10:11:50Z</time>
      </trkpt>
      <trkpt lat="48.92586" lon="2.05687">
        <ele>59.5</ele>
        <time>2022-05-24T10:11:54Z</time>
      </trkpt>
      <trkpt lat="48.92581" lon="2.05682">
        <ele>60.8</ele>
        <time>2022-05-24T10:11:59Z</time>
      </trkpt>
      <trkpt lat="48.92577" lon="2.05676">
        <ele>63.9</ele>
        <time>2022-05-24T10:12:03Z</time>
      </trkpt>
      <trkpt lat="48.92573" lon="2.05671">
        <ele>65.9</ele>
        <time>2022-05-24T10:12:08Z</time>
      </trkpt>
      <trkpt lat="48.9257" lon="2.05665">
        <ele>62.3</ele>
        <time>2022-05-24T10:12:12Z</time>
      </trkpt>
      <trkpt lat="48.92566" lon="2.05659">
        <ele>60.1</ele>
        <time>2022-05-24T10:12:17Z</time>
      </trkpt>
      <trkpt lat="48.92561" lon="2.05655">
        <ele>58.6</ele>
        <time>2022-05-24T10:12:21Z</time>
      </trkpt>
      <trkpt lat="48.92557" lon="2.05651">
        <ele>59.5</ele>
        <time>2022-05-24T10:12:24Z</time>
      </trkpt>
      <trkpt lat="48.92553" lon="2.05645">
        <ele>60.4</ele>
        <time>2022-05-24T10:12:29Z</time>
      </trkpt>
      <trkpt lat="48.92549" lon="2.05641">
        <ele>58.6</ele>
        <time>2022-05-24T10:12:32Z</time>
      </trkpt>
      <trkpt lat="48.92545" lon="2.05635">
        <ele>58.8</ele>
        <time>2022-05-24T10:12:36Z</time>
      </trkpt>
      <trkpt lat="48.92541" lon="2.0563">
        <ele>58.6</ele>
        <time>2022-05-24T10:12:40Z</time>
      </trkpt>
      <trkpt lat="48.92537" lon="2.05625">
        <ele>58.5</ele>
        <time>2022-05-24T10:12:44Z</time>
      </trkpt>
      <trkpt lat="48.92533" lon="2.05621">
        <ele>60.8</ele>
        <time>2022-05-24T10:12:48Z</time>
      </trkpt>
      <trkpt lat="48.92529" lon="2.05616">
        <ele>60.1</ele>
        <time>2022-05-24T10:12:52Z</time>
      </trkpt>
      <trkpt lat="48.92524" lon="2.05611">
        <ele>60.4</ele>
        <time>2022-05-24T10:12:56Z</time>
      </trkpt>
      <trkpt lat="48.9252" lon="2.05606">
        <ele>58.9</ele>
        <time>2022-05-24T10:13:00Z</time>
      </trkpt>
      <trkpt lat="48.92516" lon="2.056">
        <ele>60.6</ele>
        <time>2022-05-24T10:13:04Z</time>
      </trkpt>
      <trkpt lat="48.92512" lon="2.05595">
        <ele>60.6</ele>
        <time>2022-05-24T10:13:09Z</time>
      </trkpt>
      <trkpt lat="48.92508" lon="2.0559">
        <ele>60</ele>
        <time>2022-05-24T10:13:13Z</time>
      </trkpt>
      <trkpt lat="48.92504" lon="2.05587">
        <ele>60.5</ele>
        <time>2022-05-24T10:13:17Z</time>
      </trkpt>
      <trkpt lat="48.92499" lon="2.05583">
        <ele>60.8</ele>
        <time>2022-05-24T10:13:21Z</time>
      </trkpt>
      <trkpt lat="48.92495" lon="2.05578">
        <ele>59.4</ele>
        <time>2022-05-24T10:13:25Z</time>
      </trkpt>
      <trkpt lat="48.92492" lon="2.05573">
        <ele>57.6</ele>
        <time>2022-05-24T10:13:29Z</time>
      </trkpt>
      <trkpt lat="48.92487" lon="2.05569">
        <ele>57.8</ele>
        <time>2022-05-24T10:13:33Z</time>
      </trkpt>
      <trkpt lat="48.92483" lon="2.05564">
        <ele>61.2</ele>
        <time>2022-05-24T10:13:37Z</time>
      </trkpt>
      <trkpt lat="48.92479" lon="2.05559">
        <ele>58</ele>
        <time>2022-05-24T10:13:41Z</time>
      </trkpt>
      <trkpt lat="48.92475" lon="2.05554">
        <ele>60.8</ele>
        <time>2022-05-24T10:13:45Z</time>
      </trkpt>
      <trkpt lat="48.92472" lon="2.05548">
        <ele>62.6</ele>
        <time>2022-05-24T10:13:49Z</time>
      </trkpt>
      <trkpt lat="48.92468" lon="2.05544">
        <ele>63</ele>
        <time>2022-05-24T10:13:53Z</time>
      </trkpt>
      <trkpt lat="48.92464" lon="2.0554">
        <ele>64.2</ele>
        <time>2022-05-24T10:13:57Z</time>
      </trkpt>
      <trkpt lat="48.9246" lon="2.05535">
        <ele>64.6</ele>
        <time>2022-05-24T10:14:01Z</time>
      </trkpt>
      <trkpt lat="48.92456" lon="2.0553">
        <ele>64.5</ele>
        <time>2022-05-24T10:14:05Z</time>
      </trkpt>
      <trkpt lat="48.92452" lon="2.05526">
        <ele>64.3</ele>
        <time>2022-05-24T10:14:09Z</time>
      </trkpt>
      <trkpt lat="48.92447" lon="2.05521">
        <ele>62.4</ele>
        <time>2022-05-24T10:14:13Z</time>
      </trkpt>
      <trkpt lat="48.92444" lon="2.05516">
        <ele>61.7</ele>
        <time>2022-05-24T10:14:17Z</time>
      </trkpt>
      <trkpt lat="48.92439" lon="2.05511">
        <ele>65.6</ele>
        <time>2022-05-24T10:14:21Z</time>
      </trkpt>
      <trkpt lat="48.92435" lon="2.05506">
        <ele>64.4</ele>
        <time>2022-05-24T10:14:26Z</time>
      </trkpt>
      <trkpt lat="48.92431" lon="2.055">
        <ele>63.9</ele>
        <time>2022-05-24T10:14:30Z</time>
      </trkpt>
      <trkpt lat="48.92427" lon="2.05494">
        <ele>65.3</ele>
        <time>2022-05-24T10:14:34Z</time>
      </trkpt>
      <trkpt lat="48.92424" lon="2.05488">
        <ele>64.7</ele>
        <time>2022-05-24T10:14:39Z</time>
      </trkpt>
      <trkpt lat="48.9242" lon="2.05484">
        <ele>64.8</ele>
        <time>2022-05-24T10:14:43Z</time>
      </trkpt>
      <trkpt lat="48.92416" lon="2.0548">
        <ele>64.6</ele>
        <time>2022-05-24T10:14:47Z</time>
      </trkpt>
      <trkpt lat="48.92412" lon="2.05476">
        <ele>65.4</ele>
        <time>2022-05-24T10:14:51Z</time>
      </trkpt>
      <trkpt lat="48.92408" lon="2.05471">
        <ele>64.6</ele>
        <time>2022-05-24T10:14:56Z</time>
      </trkpt>
      <trkpt lat="48.92403" lon="2.05466">
        <ele>64.1</ele>
        <time>2022-05-24T10:15:00Z</time>
      </trkpt>
      <trkpt lat="48.92399" lon="2.05462">
        <ele>65.4</ele>
        <time>2022-05-24T10:15:05Z</time>
      </trkpt>
      <trkpt lat="48.92395" lon="2.05458">
        <ele>63.7</ele>
        <time>2022-05-24T10:15:11Z</time>
      </trkpt>
      <trkpt lat="48.92391" lon="2.05454">
        <ele>63.2</ele>
        <time>2022-05-24T10:15:16Z</time>
      </trkpt>
      <trkpt lat="48.92387" lon="2.05449">
        <ele>64.6</ele>
        <time>2022-05-24T10:15:20Z</time>
      </trkpt>
      <trkpt lat="48.92384" lon="2.05445">
        <ele>65.1</ele>
        <time>2022-05-24T10:15:24Z</time>
      </trkpt>
      <trkpt lat="48.9238" lon="2.05438">
        <ele>63.7</ele>
        <time>2022-05-24T10:15:29Z</time>
      </trkpt>
      <trkpt lat="48.92377" lon="2.05434">
        <ele>61.3</ele>
        <time>2022-05-24T10:15:33Z</time>
      </trkpt>
      <trkpt lat="48.92373" lon="2.05429">
        <ele>59.2</ele>
        <time>2022-05-24T10:15:38Z</time>
      </trkpt>
      <trkpt lat="48.9237" lon="2.05422">
        <ele>61.3</ele>
        <time>2022-05-24T10:15:44Z</time>
      </trkpt>
      <trkpt lat="48.92372" lon="2.05415">
        <ele>61.5</ele>
        <time>2022-05-24T10:15:49Z</time>
      </trkpt>
      <trkpt lat="48.92373" lon="2.05409">
        <ele>60.6</ele>
        <time>2022-05-24T10:15:53Z</time>
      </trkpt>
      <trkpt lat="48.92372" lon="2.05401">
        <ele>59.4</ele>
        <time>2022-05-24T10:15:59Z</time>
      </trkpt>
      <trkpt lat="48.92368" lon="2.05395">
        <ele>59.1</ele>
        <time>2022-05-24T10:16:05Z</time>
      </trkpt>
      <trkpt lat="48.92364" lon="2.05389">
        <ele>57.8</ele>
        <time>2022-05-24T10:16:11Z</time>
      </trkpt>
      <trkpt lat="48.9236" lon="2.05393">
        <ele>58.3</ele>
        <time>2022-05-24T10:16:14Z</time>
      </trkpt>
      <trkpt lat="48.92357" lon="2.05399">
        <ele>58.4</ele>
        <time>2022-05-24T10:16:19Z</time>
      </trkpt>
      <trkpt lat="48.92352" lon="2.05405">
        <ele>58.5</ele>
        <time>2022-05-24T10:16:24Z</time>
      </trkpt>
      <trkpt lat="48.92348" lon="2.05404">
        <ele>57.5</ele>
        <time>2022-05-24T10:16:29Z</time>
      </trkpt>
      <trkpt lat="48.92346" lon="2.05398">
        <ele>57.6</ele>
        <time>2022-05-24T10:16:33Z</time>
      </trkpt>
      <trkpt lat="48.92346" lon="2.05389">
        <ele>57</ele>
        <time>2022-05-24T10:16:40Z</time>
      </trkpt>
      <trkpt lat="48.92349" lon="2.05384">
        <ele>57.3</ele>
        <time>2022-05-24T10:16:49Z</time>
      </trkpt>
    </trkseg>
  </trk>
</gpx>